GFSCGP_sfc_dewp_000.txt.gz
Dewpoint
16 19 21 27 25 24 27 33 34 35 34 48 48 50 51 53 54 54 55 56 57 57 59 60 62 63 65 67 68 68 69 71 73 72 71 71 70 70 71 71 72 72 71 71
16 21 26 30 30 26 23 28 34 37 34 37 48 49 50 52 54 55 56 57 58 60 60 61 63 65 66 66 67 70 69 72 72 72 71 71 71 71 72 72 73 72 71 71
16 20 28 30 29 28 22 32 32 33 36 40 47 47 48 52 53 53 55 57 57 61 60 61 63 64 66 66 70 70 71 72 72 72 72 72 71 70 69 69 70 68 65 66
16 18 25 29 28 25 18 23 31 36 35 36 41 40 45 48 48 49 53 55 57 59 62 63 63 63 65 68 71 71 72 73 73 72 72 70 67 62 64 66 66 63 63 65
15 18 20 23 25 22 19 19 19 37 34 35 40 39 42 45 43 45 50 53 55 58 62 63 63 63 66 68 71 71 72 73 73 71 72 65 59 61 65 65 63 62 62 64
15 22 22 22 23 20 20 18 19 25 27 28 35 34 38 44 42 42 47 53 53 57 61 63 64 63 66 69 71 72 71 71 68 67 62 58 60 61 62 62 60 61 59 64
19 15 19 21 17 19 18 16 14 15 17 16 21 35 34 44 43 42 44 52 53 56 57 61 61 63 67 69 70 71 71 69 63 61 59 58 60 60 60 60 61 60 63 62
13 13 17 18 15 14 16 15 18 15 22 19 24 20 20 44 45 44 45 51 52 55 56 58 58 62 66 68 69 70 69 67 63 61 60 61 61 60 60 61 62 57 59 62
16 16 19 17 16 16 15 19 22 22 33 24 24 26 36 41 44 43 43 47 50 53 56 57 59 61 65 67 68 69 67 66 64 62 62 61 61 62 64 64 60 58 61 61
13 12 15 16 17 18 15 20 19 21 17 17 23 26 30 43 44 45 44 44 46 52 56 57 58 61 65 65 68 69 67 65 64 64 62 61 62 63 63 62 60 62 60 61
11 17 12 20 16 15 23 22 21 22 23 19 19 24 35 43 46 47 47 46 46 50 53 57 58 59 64 65 67 69 67 66 64 64 63 64 64 63 62 62 61 61 61 62
13 15 11 12 19 17 23 21 23 20 19 23 23 26 38 40 43 46 46 48 48 48 52 55 57 58 63 64 67 68 68 67 66 66 66 65 65 64 62 62 61 62 62 61
14 15 14 15 18 20 19 22 27 24 25 23 24 28 37 37 40 39 40 41 45 50 50 53 54 56 61 63 66 68 68 67 68 67 66 63 61 61 62 62 61 61 61 60
31 16 13 12 18 20 18 21 25 23 23 23 25 27 35 38 39 41 42 44 48 52 50 53 54 54 59 62 65 67 68 68 68 67 66 62 58 59 61 62 61 61 61 60
15 14 23 19 18 23 17 18 24 21 22 20 21 28 34 40 42 42 43 46 47 48 54 52 54 57 60 62 64 67 67 68 67 66 65 62 60 60 60 61 61 61 61 61
23 18 22 16 21 16 14 21 24 24 25 29 26 31 38 40 43 43 42 44 45 49 57 54 55 59 61 62 64 65 66 66 66 65 65 64 62 62 61 62 62 62 62 60
24 24 23 17 23 23 22 26 21 25 32 24 23 25 36 40 41 40 40 40 40 43 48 58 60 61 62 63 63 63 64 66 65 65 64 64 64 63 62 62 62 62 61 60
30 25 25 22 20 18 22 31 33 37 39 39 32 36 38 41 43 42 40 40 40 41 42 47 57 61 63 64 64 64 64 64 64 64 63 63 63 63 62 62 61 61 62 62
42 39 38 24 20 22 30 36 36 34 37 43 41 41 39 41 43 43 40 40 41 41 44 48 51 59 63 64 64 62 63 64 64 63 63 63 63 62 61 61 62 62 62 61
38 43 40 40 25 22 33 43 43 40 37 42 43 43 40 41 40 43 46 43 45 49 50 52 54 65 64 64 62 61 62 62 63 63 63 62 62 61 61 62 63 62 63 62
38 40 37 39 36 35 40 46 43 34 36 46 43 42 41 42 44 45 44 46 49 51 53 55 64 65 64 62 62 62 62 62 63 63 62 61 62 61 61 62 64 64 62 60
45 42 41 41 34 32 46 45 44 44 46 45 46 47 48 48 48 49 46 42 42 44 51 55 63 65 63 61 62 62 61 63 63 62 62 61 59 64 64 65 64 62 61 60
44 48 48 48 46 50 51 47 50 50 45 46 46 46 46 47 49 51 48 48 46 46 49 55 61 65 64 64 63 60 60 62 62 61 61 59 60 60 61 64 63 61 59 58
48 52 49 48 49 53 52 49 48 49 49 48 50 52 50 48 49 48 51 56 59 61 58 64 62 61 60 62 61 61 63 62 60 60 60 60 59 59 61 62 62 60 59 57
49 49 50 50 51 50 48 47 46 48 49 48 48 48 49 53 60 61 60 61 60 60 60 60 61 60 60 61 61 62 61 60 60 60 60 60 60 62 59 55 54 56 50 52
46 48 48 48 51 50 50 51 49 43 45 46 44 40 44 48 59 62 60 60 59 59 59 60 61 61 59 59 59 59 60 59 57 56 58 59 61 59 55 52 50 46 45 43

GFSCGP_sfc_dewp_003.txt.gz
Dewpoint
14 14 19 18 26 25 27 30 38 41 41 47 47 49 53 56 56 56 57 58 58 59 60 61 63 64 64 66 69 70 70 72 73 72 71 70 70 70 70 71 71 71 70 71
13 15 17 22 28 25 21 19 29 35 43 46 48 49 50 52 53 54 55 55 56 58 58 59 61 62 63 66 67 68 69 71 72 72 70 71 70 70 70 71 72 72 71 71
10 13 22 27 28 27 24 24 25 33 40 47 48 48 50 52 53 53 54 55 56 57 58 58 60 61 63 65 67 68 68 71 72 72 71 71 71 70 69 69 70 70 70 70
14 14 22 28 27 27 28 24 26 33 36 38 46 42 46 50 52 53 55 56 57 58 59 59 61 63 64 65 67 68 69 71 72 72 70 70 69 67 65 66 68 67 66 65
12 16 18 24 27 26 25 24 22 31 33 39 41 40 44 49 50 51 53 55 57 59 59 59 60 63 64 66 68 69 70 71 72 72 71 70 66 63 63 65 65 63 63 63
11 18 18 20 22 24 27 20 20 29 32 33 41 36 37 46 49 50 51 54 57 58 60 60 61 62 64 67 69 70 71 71 72 72 71 69 63 61 63 63 62 60 59 60
18 14 18 23 21 22 19 16 15 24 29 31 33 36 36 45 48 49 49 51 56 58 60 61 62 62 64 67 68 71 71 71 71 71 69 66 60 62 63 62 60 60 61 62
14 11 18 18 20 20 17 16 17 11 20 24 30 35 36 40 46 48 48 49 54 56 59 61 63 63 64 67 68 70 71 70 69 67 64 59 60 60 61 61 61 59 60 61
14 14 18 19 17 19 19 16 17 16 30 22 23 25 27 42 42 45 45 45 52 54 57 61 63 63 63 66 68 69 70 70 67 63 61 58 60 60 59 61 61 56 58 60
14 13 16 16 18 18 16 20 17 20 17 20 21 23 24 34 43 45 45 44 49 54 56 59 62 62 65 66 68 68 70 70 67 62 59 59 61 61 62 62 59 58 59 60
14 13 12 16 16 15 23 19 20 20 22 18 18 22 32 33 44 45 45 45 47 53 56 58 60 60 63 65 67 68 68 68 67 63 60 61 61 63 62 61 59 59 59 59
14 14 11 11 17 18 17 19 19 16 18 22 22 21 30 37 46 46 45 45 48 51 55 57 58 59 60 63 65 67 68 67 66 64 63 62 63 62 62 61 60 60 59 59
15 13 11 12 16 21 18 23 23 22 25 26 23 24 35 41 44 49 48 48 47 49 54 57 57 58 59 62 64 65 67 67 66 65 64 64 64 64 62 62 61 60 60 60
29 14 11 10 13 19 18 23 25 22 22 22 23 23 34 38 41 44 46 49 49 48 50 54 56 58 58 60 63 65 67 67 68 66 65 64 64 64 63 62 61 60 60 58
14 13 14 11 13 19 19 19 25 21 21 21 22 25 33 38 39 43 44 45 46 49 49 50 53 55 57 58 63 65 67 68 68 67 66 64 65 63 62 62 61 60 60 59
16 13 20 16 15 14 14 18 24 22 23 23 23 26 32 37 43 43 42 43 45 49 50 49 51 53 54 57 62 64 66 68 69 68 67 65 64 62 60 61 61 60 59 59
22 18 19 13 19 21 20 21 23 27 32 25 24 26 34 40 42 42 42 43 46 48 55 51 52 54 55 57 61 63 66 68 69 68 67 65 65 62 60 59 60 60 59 59
29 19 22 12 22 19 21 34 32 37 39 41 39 30 36 38 41 42 43 43 44 47 50 56 55 55 59 60 61 63 67 68 68 67 66 65 64 63 61 60 60 59 60 59
41 29 32 23 21 25 34 38 37 31 35 42 42 41 43 43 41 41 41 43 44 45 46 50 59 61 60 62 64 64 66 67 67 66 65 66 65 62 62 61 60 59 61 60
40 40 34 34 21 23 35 40 46 41 35 42 42 43 42 41 39 41 47 42 44 43 48 50 54 59 61 62 65 64 64 65 65 65 65 65 64 62 62 61 61 60 62 61
42 40 37 36 36 35 43 46 45 34 35 46 44 43 43 42 44 44 47 48 49 50 53 55 59 62 63 64 63 63 63 64 65 65 65 64 62 62 63 62 62 62 63 61
41 40 44 42 37 34 45 45 40 42 44 46 47 47 47 48 49 48 48 46 44 46 48 53 58 64 64 63 63 61 62 63 64 64 63 59 61 62 62 59 59 60 62 62
42 46 46 45 42 46 50 47 49 48 45 45 46 48 47 49 47 48 49 50 53 55 58 57 57 65 62 62 63 61 62 63 63 63 61 61 62 62 61 59 58 59 60 60
47 49 46 46 43 48 48 46 47 46 46 47 47 46 45 48 54 55 56 58 58 59 60 62 62 61 60 61 63 62 63 63 63 61 60 61 61 60 62 61 60 62 60 59
47 49 48 45 48 46 42 47 47 44 43 42 43 47 48 49 52 56 55 57 58 59 60 62 61 60 61 62 62 62 62 62 61 61 61 60 61 59 60 55 54 57 54 54
45 49 47 45 50 47 45 44 44 40 40 42 41 40 40 43 46 56 58 60 59 58 59 60 59 59 60 61 60 61 61 61 59 59 59 59 59 61 60 54 49 46 46 43

GFSCGP_sfc_dewp_006.txt.gz
Dewpoint
12 16 17 23 25 36 34 39 39 42 44 46 48 50 56 57 56 57 57 58 60 61 62 63 64 66 66 67 70 71 72 73 73 72 71 71 71 72 72 72 72 72 71 72
17 13 17 22 27 29 35 33 37 37 43 45 49 49 55 57 56 56 57 57 58 59 60 61 63 65 65 66 69 70 71 72 73 72 71 72 71 71 71 72 72 72 72 72
12 14 19 27 27 23 26 22 25 34 45 48 48 48 51 56 56 57 57 57 58 58 59 60 61 64 64 65 68 69 70 71 72 72 71 71 71 71 71 71 72 72 71 71
10 12 19 25 27 27 25 25 25 37 41 38 44 37 48 50 53 53 54 55 57 58 59 59 60 62 63 65 67 69 69 70 71 72 71 71 70 69 69 69 71 71 71 70
14 14 18 26 24 26 23 27 28 37 38 40 45 37 40 50 50 51 52 53 55 56 57 59 59 61 62 65 66 68 69 69 71 71 71 71 69 69 65 66 69 68 67 66
17 16 18 17 25 27 24 18 25 30 35 33 38 39 36 48 49 50 52 54 56 56 58 59 60 61 63 65 66 68 69 69 71 71 71 70 69 66 64 65 66 64 63 63
17 11 17 21 19 25 19 20 19 21 30 30 36 40 36 42 49 48 50 53 56 57 59 59 60 61 63 65 66 68 69 69 71 71 71 71 69 65 64 64 64 62 61 63
12 7 14 18 19 19 20 20 20 15 21 29 37 38 39 41 43 49 50 52 54 56 59 59 60 61 63 65 66 68 69 69 71 71 71 71 68 64 64 64 63 62 62 63
13 12 17 18 19 18 19 17 19 18 22 21 28 28 30 34 38 46 48 51 52 56 58 60 61 62 63 64 66 68 69 69 70 71 71 68 66 63 63 63 62 62 62 62
15 12 14 14 20 20 18 20 17 19 17 21 23 25 27 32 36 41 47 49 51 54 58 60 61 62 63 63 65 67 69 69 70 70 69 67 64 62 62 62 62 61 61 62
15 13 12 16 15 13 19 19 20 20 20 17 17 22 29 30 36 39 45 48 49 52 56 58 62 63 63 63 65 67 68 70 70 68 67 64 61 61 61 62 62 61 60 61
14 13 12 12 16 18 17 17 19 16 17 22 20 19 28 33 36 45 45 47 47 52 56 58 61 62 63 63 64 66 68 69 70 69 66 63 60 62 61 62 62 62 61 61
17 12 10 10 12 21 17 22 20 21 22 23 20 21 32 38 42 48 47 48 50 54 56 57 60 62 62 63 64 65 67 68 69 69 64 62 62 63 63 63 63 62 61 61
39 13 11 10 11 15 19 22 23 18 21 22 24 22 28 38 42 46 49 49 49 52 56 57 58 60 61 61 64 66 67 68 69 67 64 64 62 63 64 63 62 62 62 61
16 14 14 14 14 19 18 20 24 21 21 20 21 24 28 37 41 44 49 51 51 50 52 56 57 59 61 61 63 64 66 68 68 66 65 64 64 63 64 64 64 63 62 61
24 15 16 14 12 16 14 19 26 25 26 24 26 26 29 39 44 44 47 50 50 50 50 52 56 58 59 60 61 64 66 67 69 68 66 66 65 65 64 64 64 63 62 61
32 18 18 14 16 15 15 14 18 24 27 24 24 27 32 39 41 43 44 47 48 49 51 52 52 55 57 58 61 63 66 68 69 68 68 67 66 64 64 64 65 63 61 61
43 25 21 15 21 16 16 28 19 22 37 36 37 33 36 39 43 45 46 45 47 50 52 53 52 55 57 57 60 63 66 68 69 69 68 67 65 64 64 63 62 63 62 61
45 30 25 20 19 23 37 40 37 34 36 44 42 45 43 42 43 45 46 49 49 52 54 56 56 56 58 60 62 64 66 68 69 68 68 66 66 65 65 64 63 62 62 62
42 42 35 30 21 26 35 44 47 45 34 43 44 43 43 43 35 43 47 47 46 50 52 55 58 59 61 62 64 64 65 67 68 68 67 67 66 65 63 64 64 63 63 63
42 43 39 36 34 36 44 46 47 33 34 46 46 46 44 43 45 47 51 50 52 54 56 58 60 62 62 64 65 64 64 65 67 67 67 67 67 66 65 63 63 62 63 63
41 44 44 41 37 34 46 46 38 44 46 48 48 48 48 49 49 52 52 53 54 54 56 56 58 61 64 64 65 64 64 65 66 66 65 64 64 65 63 61 61 62 61 60
42 46 44 43 42 47 49 47 48 48 44 46 47 48 51 50 52 54 54 55 57 59 59 62 62 63 64 64 65 63 63 64 64 62 62 62 62 62 62 61 61 61 61 60
48 48 45 46 46 47 46 47 46 47 47 46 48 50 52 53 57 57 58 58 58 59 60 62 62 61 61 62 63 63 64 63 62 61 62 62 62 61 61 61 62 61 60 60
47 47 45 44 47 48 44 48 49 46 45 44 45 47 48 48 48 48 53 59 59 59 61 61 61 61 62 63 62 63 63 62 61 61 61 61 61 61 61 61 58 60 57 57
47 48 43 43 46 45 45 48 50 44 44 45 43 42 44 45 46 48 47 56 59 59 61 60 60 61 61 61 62 62 63 63 62 62 61 60 60 61 60 54 52 46 45 45

GFSCGP_sfc_dewp_012.txt.gz
Dewpoint
17 16 14 19 23 25 27 29 30 33 42 44 41 42 47 53 53 53 56 57 56 56 58 62 64 65 66 69 71 72 73 74 76 70 69 69 68 69 70 71 74 74 73 73
15 12 14 17 20 24 27 28 29 33 43 42 40 42 44 49 53 53 54 56 58 56 57 62 64 64 65 68 71 73 74 75 75 71 76 71 70 68 69 70 74 74 73 74
15 8 11 14 16 23 28 27 29 34 42 43 39 41 43 44 50 53 54 54 57 57 57 60 62 64 65 67 70 72 74 75 76 75 74 74 74 74 71 70 71 72 74 74
13 8 9 13 16 21 25 26 28 33 37 36 41 33 37 40 46 51 53 54 53 57 59 59 61 63 64 66 69 72 74 75 75 76 76 76 70 66 65 67 66 68 72 72
17 10 11 12 13 17 25 26 29 31 34 35 38 36 35 39 41 46 51 53 53 53 56 59 60 62 64 65 67 70 74 75 76 76 77 73 74 67 67 67 70 72 72 71
19 15 9 10 10 16 23 26 29 30 29 30 34 34 31 32 42 39 46 50 53 51 53 56 59 61 63 64 66 68 73 76 76 76 76 76 74 72 67 69 67 65 65 68
20 15 11 7 10 13 23 26 28 28 27 27 33 32 34 31 33 36 35 46 52 51 52 54 57 60 63 65 66 67 72 75 75 75 75 76 75 75 74 72 68 66 63 63
20 15 16 12 10 16 21 25 25 29 24 25 31 31 30 34 33 33 37 40 49 51 49 52 56 59 62 64 66 67 70 74 74 74 75 77 76 72 71 72 65 64 61 62
20 19 15 13 12 14 20 24 25 24 25 22 23 31 31 32 34 36 36 42 47 51 49 52 55 58 61 64 67 70 73 73 73 73 74 76 76 75 72 73 72 67 68 62
25 23 19 15 13 13 18 23 23 24 29 26 24 27 28 33 30 30 39 42 46 50 52 49 54 57 60 62 64 67 69 72 72 72 73 73 74 75 74 74 73 71 68 68
26 23 17 18 14 13 15 20 24 23 24 23 24 24 29 32 33 30 31 41 42 49 52 53 52 55 59 61 63 65 67 70 71 71 73 73 72 73 74 74 74 73 71 69
28 24 22 12 10 10 15 21 25 22 31 25 24 21 25 29 29 29 29 29 37 46 52 55 55 56 58 61 61 62 65 66 68 71 74 72 73 73 73 75 74 74 72 69
28 26 24 22 12 13 12 14 19 22 26 33 24 24 26 28 33 36 38 38 42 49 53 56 56 58 59 59 63 62 64 64 64 69 69 70 72 72 73 74 73 71 70 69
34 24 27 19 23 19 18 13 14 17 20 25 23 27 28 27 31 30 31 39 42 52 55 57 58 60 61 63 67 67 64 64 64 65 68 71 72 72 72 74 73 69 68 67
24 34 31 25 22 20 17 15 13 15 19 22 24 24 29 31 31 31 30 33 42 52 55 58 59 64 68 68 69 68 66 67 67 67 67 70 73 73 72 73 72 69 68 68
31 37 36 31 26 25 23 21 19 13 13 17 19 22 24 29 32 31 31 33 40 52 55 58 60 62 65 66 67 67 68 67 69 70 69 72 74 74 73 74 71 70 67 68
35 34 38 33 27 27 26 27 26 23 16 14 17 23 24 27 28 32 32 38 43 50 55 57 60 62 65 65 68 67 69 69 70 71 71 72 74 74 74 73 71 70 68 68
42 43 38 33 35 30 27 26 27 26 22 16 19 23 26 31 32 34 37 35 38 51 54 58 57 61 64 64 64 67 68 71 71 72 72 73 73 73 73 72 71 70 68 67
38 41 37 33 30 30 31 37 32 29 25 22 21 24 24 26 31 41 48 48 49 52 56 58 58 62 65 64 65 67 67 69 69 70 71 72 72 72 72 71 69 69 68 67
38 43 38 37 32 30 41 43 45 45 35 28 26 27 27 28 32 31 51 49 48 52 57 59 58 61 64 64 64 65 65 67 68 69 71 72 73 72 71 71 70 69 66 65
41 40 34 36 35 36 45 44 46 40 34 49 28 29 28 30 41 53 54 55 55 56 58 60 61 62 64 64 64 65 65 66 67 69 71 72 73 72 71 72 70 68 66 65
40 38 33 36 39 37 46 44 45 51 53 50 49 44 45 52 54 56 57 59 60 61 61 61 63 64 65 66 67 67 68 70 71 72 71 73 72 70 70 69 68 67 67 67
37 37 37 40 40 49 49 48 49 51 53 52 51 51 53 53 55 56 57 57 57 58 56 58 62 65 67 67 67 69 72 72 72 72 72 70 71 69 69 67 66 65 67 64
44 46 43 47 50 48 48 48 49 50 53 53 53 52 53 54 55 56 58 59 59 59 59 60 61 64 67 69 70 71 71 71 71 70 69 69 67 67 67 66 65 65 65 63
48 49 46 47 49 48 49 49 48 48 49 50 50 52 55 57 59 60 60 62 61 62 62 62 62 65 67 69 70 70 70 70 69 69 68 68 66 67 66 57 58 65 64 58
49 50 44 43 48 50 50 48 45 45 45 46 47 47 48 50 51 53 54 57 60 63 65 65 65 66 67 68 69 70 70 70 69 67 65 64 64 64 64 62 59 44 45 45

GFSCGP_sfc_dewp_015.txt.gz
Dewpoint
20 13 13 18 23 24 26 27 25 30 32 36 38 39 42 47 47 45 48 49 50 52 55 57 60 61 62 65 68 70 72 76 73 71 73 71 69 70 67 67 72 74 74 74
15 13 12 17 21 23 24 26 27 29 32 35 37 37 41 47 47 48 48 49 50 51 52 56 60 60 62 65 69 73 74 77 76 72 73 73 71 66 67 67 72 72 72 74
11 9 10 15 20 22 24 24 26 27 37 37 36 37 38 41 47 49 48 50 50 50 49 55 58 60 62 65 69 73 76 77 77 77 74 74 76 71 68 66 69 71 72 72
13 7 6 10 15 20 22 24 25 25 34 34 33 31 39 37 40 45 49 49 50 50 51 52 57 60 61 64 68 73 76 78 77 78 74 77 70 66 63 65 65 68 70 70
15 11 9 10 12 17 21 23 26 26 30 38 30 29 33 36 36 39 45 49 49 50 51 52 54 59 61 63 65 70 76 78 78 78 77 72 73 65 64 63 72 74 74 70
16 13 9 7 8 16 18 22 26 25 25 28 33 31 33 35 36 37 39 45 50 51 50 54 55 58 60 62 64 69 76 78 79 78 78 78 77 73 66 68 67 65 65 67
19 15 13 7 9 12 17 19 23 24 23 23 30 29 38 34 34 35 35 39 46 51 50 51 56 56 61 64 66 69 75 78 78 76 76 77 77 77 75 72 67 68 62 63
19 16 16 12 10 11 14 17 19 27 22 22 27 27 29 34 33 32 32 32 38 47 50 49 53 57 61 63 68 69 73 77 78 77 78 78 78 71 70 72 67 63 62 64
20 20 17 14 11 7 11 14 18 21 24 23 24 27 30 33 33 33 32 31 33 45 50 50 51 54 59 62 67 70 73 76 76 74 78 78 78 77 71 74 75 67 70 63
22 22 19 13 13 11 7 11 15 22 29 27 23 26 26 34 34 33 33 31 34 42 49 49 50 52 58 59 64 68 71 74 74 75 76 75 77 78 77 77 76 73 71 71
18 23 22 21 17 14 9 8 17 19 23 23 24 25 29 35 36 34 33 31 32 39 47 49 49 51 55 57 61 64 68 72 73 74 74 75 74 75 77 76 76 76 73 73
21 21 24 20 19 15 13 12 13 20 31 24 25 22 26 29 31 31 31 31 33 37 45 49 49 51 53 57 57 60 63 64 69 72 74 75 75 75 74 76 76 77 75 73
23 23 24 24 17 17 16 13 11 13 24 34 25 24 27 29 31 33 32 32 35 38 41 48 50 51 53 55 59 57 61 60 63 70 70 73 74 75 74 76 76 76 76 74
35 25 28 22 25 18 18 12 12 12 15 24 23 27 29 30 31 31 33 35 34 36 50 48 51 55 56 59 63 62 60 59 61 64 66 71 73 74 74 76 76 76 76 74
24 29 28 25 23 21 14 9 9 12 18 21 22 25 29 32 32 32 32 33 34 34 45 53 54 61 64 64 66 66 63 65 63 66 66 69 74 75 75 75 76 76 76 73
23 28 30 26 22 20 19 18 14 13 12 14 17 20 24 28 34 33 32 34 34 35 36 52 56 59 65 66 68 68 68 67 67 70 69 71 75 75 75 76 77 77 76 74
29 28 30 29 28 27 23 22 21 21 19 17 17 21 24 27 32 33 34 34 36 35 38 45 55 58 63 64 69 68 70 69 71 72 74 74 76 76 77 77 77 76 75 73
29 34 30 28 32 28 29 27 24 23 24 24 24 23 24 33 34 35 32 33 37 40 42 43 51 58 64 63 63 67 68 73 73 75 74 76 76 77 77 77 76 75 73 71
30 32 31 29 28 31 32 35 36 38 36 28 26 29 25 22 22 32 31 35 37 36 40 41 53 57 67 66 69 70 69 72 73 74 75 76 76 76 76 76 75 73 71 70
33 39 35 34 30 30 34 42 42 40 33 32 35 37 28 23 17 26 33 29 33 42 43 45 56 58 64 68 65 69 67 69 71 72 73 75 75 76 75 74 74 73 72 69
28 33 31 32 32 30 43 42 42 37 37 50 49 49 45 36 28 33 41 37 40 47 49 57 60 64 68 67 65 70 69 69 69 69 70 73 74 75 75 75 73 72 71 69
29 32 29 33 31 30 45 42 40 50 53 51 50 50 49 48 33 46 53 53 53 52 55 59 62 64 67 68 69 71 71 72 72 72 72 74 75 72 72 74 72 71 69 67
29 32 31 37 38 52 51 50 51 51 53 52 52 50 49 45 51 54 57 58 59 60 60 60 62 66 67 70 70 71 75 75 74 74 74 74 74 72 73 72 70 68 67 65
47 40 36 46 49 49 49 50 51 53 52 55 55 52 51 54 55 56 57 58 59 61 62 63 64 65 69 72 71 73 73 73 73 74 72 72 71 70 70 69 68 66 66 66
50 52 47 49 50 50 50 50 51 51 52 54 57 56 58 58 59 59 60 60 58 59 60 62 64 66 68 70 70 71 72 72 71 70 69 69 68 68 66 62 63 67 61 62
50 51 52 50 50 51 50 49 48 48 48 49 51 52 55 55 56 57 59 61 61 61 62 63 65 66 69 70 70 71 72 71 70 69 67 66 67 65 63 61 59 45 47 45

GFSCGP_sfc_dewp_018.txt.gz
Dewpoint
26 20 19 19 20 22 21 25 24 31 35 31 47 51 51 49 43 42 45 46 49 51 55 57 59 60 61 66 70 72 73 76 76 75 72 73 73 74 73 75 75 75 77 77
19 19 17 17 20 20 22 23 26 30 39 37 37 48 49 48 44 43 44 44 45 47 52 57 59 59 61 66 69 73 73 77 76 75 75 74 73 72 73 70 76 76 76 77
17 14 12 11 17 20 22 23 25 25 32 34 32 33 39 41 43 44 44 46 45 47 48 56 59 60 62 65 70 73 74 76 75 76 75 76 76 74 73 73 75 73 76 76
19 15 10 8 12 19 21 22 23 23 30 31 34 32 42 40 44 45 44 46 47 48 50 53 57 61 61 65 70 73 75 76 76 76 75 75 71 72 73 74 73 75 75 75
17 15 10 8 8 15 21 23 23 23 27 35 37 34 38 41 42 44 44 45 46 50 49 51 56 60 61 65 68 72 75 76 76 77 76 75 74 72 71 71 76 75 77 74
17 15 12 7 6 9 17 21 22 23 23 26 32 33 35 37 41 39 42 45 48 48 51 52 55 59 62 64 68 70 76 76 76 77 76 76 74 73 71 74 72 73 72 73
20 17 13 10 8 8 10 14 20 21 22 22 28 35 38 40 41 40 45 44 47 50 51 53 54 58 62 64 67 70 74 76 76 76 76 76 77 76 76 77 72 71 68 70
19 16 15 13 11 10 10 11 19 24 22 22 27 26 33 40 41 40 46 41 44 48 49 52 55 57 62 63 67 69 74 75 76 75 77 77 77 75 73 75 73 72 70 70
17 18 17 14 13 9 11 10 12 16 20 21 22 25 26 33 40 38 36 37 36 46 49 52 55 58 62 63 66 69 74 75 76 76 76 77 76 76 74 75 75 72 73 73
19 20 18 16 14 13 9 11 8 13 22 24 23 29 29 35 41 41 40 36 36 37 50 51 53 57 60 63 65 69 72 74 76 76 76 76 76 76 75 75 75 73 74 73
15 21 20 20 19 16 12 11 11 10 16 20 24 26 33 40 43 42 39 37 36 38 47 49 53 54 60 62 64 67 69 73 75 75 76 76 76 76 76 76 75 74 75 73
17 17 22 18 19 17 15 14 12 12 25 18 21 24 28 36 36 39 38 38 38 41 45 49 52 53 56 59 62 65 67 70 73 74 75 75 76 76 76 75 76 76 74 75
22 19 23 20 19 21 16 14 15 11 15 26 21 23 28 40 39 41 39 39 43 47 51 50 51 53 55 57 61 63 66 67 71 73 73 74 74 75 75 76 75 76 75 73
32 19 25 19 25 22 21 17 17 13 12 18 20 26 30 39 40 38 41 41 43 51 57 52 51 55 55 59 62 63 64 65 67 71 71 73 73 74 74 75 76 75 76 74
23 29 26 21 20 21 20 16 16 18 21 20 19 24 32 34 42 40 42 40 44 49 51 56 56 62 61 62 63 63 63 64 64 68 69 71 73 74 74 74 76 76 76 75
21 30 29 26 22 21 21 20 16 15 15 17 18 18 22 32 36 44 37 39 44 46 48 55 58 64 65 63 64 63 63 64 65 66 68 71 73 74 74 75 75 76 76 76
29 25 32 27 25 24 23 24 22 15 15 13 16 24 29 29 34 39 43 41 45 43 46 53 59 60 63 66 66 64 64 65 65 68 69 70 72 73 74 74 75 75 76 76
34 35 30 27 29 25 25 24 22 21 21 19 22 26 28 31 34 35 36 42 46 45 46 52 45 59 64 60 62 66 66 68 69 69 71 71 73 73 74 74 75 76 76 76
27 34 30 29 25 25 24 26 26 25 26 26 29 35 30 30 29 33 33 34 39 43 52 51 43 48 65 63 67 67 69 68 69 71 73 73 75 75 75 75 76 76 76 76
22 40 31 30 28 27 32 28 38 37 33 41 42 41 40 41 38 37 35 33 32 34 38 48 51 55 65 67 66 69 68 70 69 70 73 75 77 77 77 77 77 77 75 73
32 35 30 29 28 26 41 39 39 37 38 49 48 48 46 45 49 54 51 43 54 44 42 47 63 64 67 69 67 70 69 71 72 73 76 76 77 77 78 78 76 73 72 71
32 30 31 35 34 31 43 43 39 48 51 47 49 49 50 51 50 51 52 52 54 56 47 56 68 69 71 70 72 72 73 74 76 76 75 76 77 75 76 76 74 72 71 70
29 32 30 35 34 55 49 50 52 50 52 55 57 53 49 48 49 49 56 57 55 59 62 60 67 71 73 74 75 73 76 75 75 74 75 76 76 76 74 73 72 70 69 67
39 49 40 40 47 49 50 50 52 52 56 57 58 59 59 53 54 56 58 59 62 64 64 67 68 69 72 74 75 75 74 75 75 75 76 74 73 72 72 71 70 68 67 66
50 50 50 47 51 50 51 51 52 53 55 56 57 57 58 59 61 61 63 64 65 67 69 70 70 71 73 75 74 74 75 75 74 73 72 70 69 69 64 58 61 67 62 64
48 51 52 53 54 52 52 51 50 49 51 53 53 54 56 56 56 58 60 63 64 65 67 67 68 69 71 72 73 74 75 73 71 69 68 68 67 66 64 62 58 46 47 45

GFSCGP_sfc_dewp_021.txt.gz
Dewpoint
24 24 22 20 16 20 20 20 21 22 32 45 44 42 43 41 45 45 49 50 52 53 54 58 58 60 63 68 67 68 69 71 70 72 72 72 70 72 70 71 72 73 73 73
21 21 23 22 19 17 18 19 21 23 33 43 47 44 45 42 41 45 46 49 50 52 53 56 57 58 62 66 67 68 69 74 71 72 72 71 71 72 71 72 73 73 73 74
19 23 24 20 19 19 17 18 20 23 33 39 46 45 47 41 44 45 45 47 50 50 51 56 56 58 60 65 68 68 69 73 73 72 73 73 73 72 70 70 72 73 74 74
20 21 20 19 16 16 18 20 21 22 25 32 43 39 45 41 43 45 44 44 47 49 52 55 56 58 59 65 69 69 70 73 72 73 71 70 69 69 70 71 72 73 74 73
18 20 19 15 12 10 16 22 21 22 23 34 33 32 42 45 44 44 43 44 44 46 49 54 57 57 60 65 67 70 71 71 72 73 71 71 70 69 70 69 70 73 72 72
17 18 17 18 15 9 11 17 21 22 22 24 31 32 37 41 43 43 44 45 45 45 47 53 55 58 59 64 67 71 71 71 73 71 72 72 71 70 69 70 72 72 72 70
22 19 15 16 14 10 8 9 15 18 19 21 30 31 39 40 40 44 44 45 46 47 47 48 54 57 59 63 67 70 71 72 73 73 72 72 72 70 69 71 70 70 69 68
17 19 20 17 14 10 7 6 10 16 18 20 25 28 34 38 39 44 44 43 45 46 48 49 54 56 59 61 66 70 71 71 73 73 74 73 74 70 71 72 70 67 67 68
15 18 23 19 17 13 12 6 6 9 16 20 21 23 25 39 37 40 41 40 43 43 49 50 51 55 59 61 66 67 72 72 73 74 74 73 73 74 74 71 72 68 66 69
18 21 20 20 17 15 10 13 6 6 7 13 17 22 26 31 38 42 42 42 42 43 48 51 51 54 59 61 65 67 72 72 73 72 74 74 74 73 74 72 71 70 67 70
16 16 17 20 17 14 14 9 9 8 8 11 17 18 25 34 41 41 40 39 38 42 45 51 52 54 59 61 63 67 71 72 73 73 72 74 75 74 73 73 72 70 70 70
18 16 15 16 19 17 14 13 11 11 14 17 12 13 25 23 39 40 39 38 40 42 48 51 52 54 60 60 61 66 71 72 73 74 74 72 74 74 73 72 73 72 69 70
19 16 15 16 16 17 13 14 13 10 15 15 20 15 15 18 39 40 42 45 42 44 50 51 51 55 58 60 61 64 69 72 73 74 74 74 73 74 74 72 73 74 71 71
40 17 14 14 16 22 23 16 16 11 10 10 9 10 15 33 39 31 39 39 40 45 48 49 51 54 57 60 62 62 66 70 72 73 73 73 73 73 74 74 72 73 74 71
22 22 18 16 18 20 17 21 16 14 10 14 13 12 16 23 41 41 40 42 39 43 53 52 51 53 56 58 61 62 64 66 70 72 72 72 73 73 74 73 74 73 73 72
29 29 28 21 18 15 14 19 21 15 15 16 17 17 23 28 43 42 41 37 33 39 51 53 53 52 54 56 59 61 63 64 66 70 71 71 71 72 72 73 73 74 72 74
30 28 29 22 25 25 17 16 20 23 19 19 16 16 23 25 32 39 43 39 37 40 50 52 54 58 55 57 58 61 63 64 65 67 70 70 70 71 72 72 73 74 74 74
27 28 30 23 28 25 26 27 24 25 28 22 21 25 29 31 33 36 34 30 31 46 47 53 56 58 62 59 59 60 61 63 64 65 67 69 70 70 72 72 73 72 74 73
27 27 27 28 24 26 25 26 27 27 25 33 37 36 39 44 32 30 40 36 34 26 35 42 54 58 60 62 61 60 61 63 63 63 65 68 69 70 71 72 72 73 72 74
25 25 30 29 24 21 27 29 30 38 35 47 47 47 46 44 40 43 52 49 47 42 38 34 39 53 62 61 63 61 61 61 63 62 66 67 68 69 71 72 72 72 73 74
29 36 31 28 24 26 32 25 40 35 38 49 49 49 49 47 49 50 52 51 52 50 43 39 44 53 60 63 65 63 61 61 63 66 68 69 70 71 72 72 73 74 73 71
40 38 35 33 30 28 43 41 36 45 51 53 50 49 48 49 50 49 50 51 50 54 53 48 46 60 65 65 66 66 66 67 67 73 72 76 75 75 76 75 74 72 71 70
39 43 45 39 44 49 53 52 52 57 57 59 60 60 58 59 60 62 63 60 62 61 64 69 70 70 70 69 68 69 73 73 74 73 74 75 74 76 74 72 71 70 69 68
43 50 47 46 46 47 50 50 57 57 57 57 59 60 60 58 59 60 62 64 66 68 67 69 69 71 72 74 74 74 73 73 73 73 74 72 72 71 71 70 70 69 67 67
48 49 48 48 52 53 54 56 56 56 55 56 56 56 57 58 58 59 60 63 66 67 69 71 72 72 72 73 73 73 73 74 72 72 71 70 69 66 60 54 60 66 61 63
49 49 48 49 51 52 51 55 56 54 54 52 52 53 54 54 54 55 57 59 62 66 67 67 69 70 71 73 72 72 72 71 70 68 68 66 65 63 61 59 55 46 46 46

GFSCGP_sfc_dewp_027.txt.gz
Dewpoint
29 28 26 26 23 22 23 22 21 23 29 41 41 42 53 55 54 55 59 60 61 61 62 62 62 63 63 65 66 67 67 68 69 69 70 69 68 69 71 71 71 71 72 73
23 26 29 27 25 23 21 20 19 23 28 39 39 41 45 54 55 55 55 57 59 60 60 59 62 62 62 64 66 67 67 67 68 69 69 70 69 69 70 71 70 70 72 72
24 21 24 26 24 21 19 19 19 19 25 40 41 41 42 53 55 56 56 56 56 57 56 57 59 61 62 62 65 67 67 67 68 69 70 70 71 70 70 70 70 71 70 72
18 18 20 22 23 23 20 19 19 19 20 18 39 37 42 49 53 54 55 56 56 56 56 56 59 61 62 63 65 67 67 67 68 69 69 68 68 67 69 69 70 72 73 72
18 18 17 20 20 23 22 21 20 21 19 20 25 34 36 44 47 48 51 53 55 56 56 56 57 60 62 63 65 67 67 68 68 68 68 68 67 68 69 69 69 70 72 72
20 23 17 20 22 21 24 23 17 21 20 18 18 23 22 41 42 43 44 50 53 53 55 56 56 58 61 63 66 67 67 68 68 68 68 68 68 68 68 68 69 70 71 72
19 18 21 22 20 23 21 15 16 12 14 15 16 24 21 34 42 42 42 44 50 52 53 54 55 56 58 61 65 66 67 68 69 69 69 69 68 68 68 68 68 69 70 70
21 21 20 19 20 19 19 17 15 9 12 13 20 21 23 31 39 43 43 43 45 49 51 53 54 55 57 60 64 65 66 68 69 70 69 69 69 68 68 68 68 69 71 70
21 22 23 23 19 20 18 15 15 9 25 13 19 21 25 31 36 40 43 42 44 46 50 51 53 54 56 58 62 65 66 67 70 70 69 69 69 69 68 69 69 70 70 70
17 16 18 21 23 19 16 13 14 8 10 10 10 15 17 28 28 37 43 43 44 46 48 50 51 53 55 57 60 64 65 65 68 69 69 69 69 69 69 69 69 69 70 69
18 15 17 18 18 21 21 14 11 10 9 8 8 9 14 24 30 34 40 44 45 46 46 48 50 51 54 56 59 63 65 65 66 68 69 69 69 70 70 69 70 69 69 68
29 15 15 17 18 17 20 19 15 12 9 9 8 9 18 21 24 30 33 42 44 47 47 46 47 49 53 56 58 62 65 65 66 68 68 68 69 70 71 70 71 70 68 67
36 28 13 11 11 15 16 18 17 16 13 13 8 11 17 19 25 34 33 41 44 46 47 47 46 47 52 55 58 62 64 66 66 67 68 68 69 69 69 70 71 71 69 67
34 28 23 16 15 16 14 16 18 14 14 14 12 11 15 17 19 23 32 38 42 46 46 48 49 48 51 55 58 62 65 66 66 68 68 69 69 70 70 69 70 71 71 68
32 29 27 26 27 26 21 15 13 15 16 14 14 11 12 17 19 20 21 25 37 40 43 45 48 50 51 54 58 62 65 67 67 68 69 69 70 70 71 70 70 70 71 70
32 30 29 27 25 24 22 19 18 15 15 15 15 13 15 15 18 18 16 20 31 42 44 44 48 51 51 53 57 60 64 68 68 68 69 69 70 71 71 71 71 70 70 70
30 31 29 26 26 26 22 19 17 17 16 16 14 15 17 15 17 18 20 24 31 33 42 46 48 50 51 54 57 59 63 66 69 69 69 69 70 70 71 72 72 71 70 71
30 30 29 26 27 21 21 20 19 17 18 20 17 19 22 21 20 23 26 30 37 38 39 46 48 50 52 54 57 58 62 66 69 69 69 70 70 70 71 71 72 72 71 71
31 29 29 26 26 27 23 25 19 19 19 25 21 22 22 25 32 32 38 37 39 39 41 46 50 50 53 55 58 59 61 65 68 69 69 70 71 71 71 71 71 72 72 71
29 29 29 28 25 23 27 43 46 38 18 27 28 26 26 29 24 25 45 41 38 36 36 42 53 54 55 56 59 59 60 64 67 69 69 70 71 71 71 71 71 72 72 72
31 30 30 30 28 30 42 50 51 30 22 46 38 32 38 30 28 37 48 49 46 43 46 43 53 57 54 56 58 60 61 62 64 68 69 69 71 71 71 71 72 72 73 73
34 36 34 31 31 29 50 49 48 51 56 49 47 47 46 51 58 57 56 59 60 59 62 60 41 48 56 58 57 58 60 62 63 65 66 68 70 71 71 71 71 72 72 72
33 39 38 36 38 47 50 52 52 53 56 57 53 58 61 62 62 63 64 65 66 67 67 68 67 65 61 53 60 56 58 60 62 63 64 66 68 70 70 71 71 71 72 72
39 44 42 44 47 50 53 53 53 55 53 54 57 59 61 62 62 62 63 64 66 67 67 68 69 69 68 70 68 62 62 60 61 62 63 64 66 68 69 70 71 72 72 72
40 43 40 44 49 50 53 51 54 54 53 54 55 55 56 58 57 58 59 60 62 64 64 64 65 65 64 64 63 62 64 67 61 61 62 63 65 66 66 59 68 72 70 70
44 42 41 42 50 49 51 52 53 53 53 53 53 53 54 54 54 56 57 58 60 62 64 64 64 64 61 56 55 57 57 57 61 68 67 69 67 63 61 62 59 50 56 56

GFSCGP_sfc_dewp_030.txt.gz
Dewpoint
32 31 27 27 23 23 24 23 23 23 27 40 40 43 54 56 57 58 59 60 61 61 62 63 63 65 66 67 68 68 69 70 70 69 69 69 69 70 71 71 72 72 73 73
26 27 30 29 25 24 23 22 22 22 23 36 36 38 52 56 56 57 59 60 61 61 62 63 63 63 65 65 67 68 69 69 70 70 69 70 70 70 71 72 72 72 73 73
24 25 30 29 26 24 23 22 22 22 23 34 39 38 45 54 56 56 59 60 60 61 61 62 63 63 63 65 66 67 68 69 69 70 70 71 71 71 70 71 71 71 72 73
22 24 27 27 27 24 22 22 21 19 19 18 35 29 41 47 54 54 54 58 59 60 61 62 62 63 62 64 66 67 68 68 69 70 69 69 68 68 69 70 70 71 72 72
21 20 21 24 24 24 24 21 20 19 17 18 24 29 34 43 51 53 55 55 56 57 59 60 59 61 63 63 64 66 68 68 69 69 69 69 68 69 69 70 71 71 73 73
20 22 21 20 21 24 24 21 18 22 20 18 19 25 23 43 45 52 54 56 56 56 57 58 59 59 61 63 64 66 67 68 68 69 69 69 69 68 68 69 69 70 71 72
20 19 21 19 19 22 22 20 19 16 16 17 19 21 20 34 45 48 51 53 55 56 57 57 58 58 61 63 64 65 67 67 68 68 69 69 69 69 69 69 69 70 70 71
18 18 20 21 18 18 20 19 19 15 14 16 20 18 21 25 41 45 47 49 50 53 55 56 57 58 59 62 64 66 67 67 68 68 68 69 70 68 69 69 69 69 70 70
19 19 23 19 21 18 20 19 18 13 23 12 17 20 23 29 30 42 43 44 45 47 52 54 56 57 58 60 63 66 67 67 68 68 69 69 69 70 69 69 69 69 71 71
20 20 22 20 20 21 17 18 17 14 15 13 15 16 20 30 29 33 43 43 44 45 47 51 54 56 57 58 61 64 66 67 67 68 69 69 69 70 70 70 69 69 70 71
27 17 16 23 21 19 18 15 15 16 16 14 12 14 20 25 31 28 33 43 44 45 46 47 52 54 56 57 60 62 65 66 67 69 69 69 69 70 70 69 70 70 70 71
37 19 18 17 18 23 20 18 13 14 13 11 14 13 21 19 27 32 33 38 46 47 48 48 50 52 54 56 58 61 64 65 66 69 70 69 70 70 70 70 70 70 70 70
34 26 15 12 15 18 18 21 15 14 16 14 12 14 16 26 24 26 30 34 40 48 50 50 49 51 53 55 57 59 62 64 65 67 69 69 69 69 70 70 70 70 70 70
34 29 23 20 22 25 20 18 19 18 16 16 14 15 21 21 24 25 32 37 41 47 48 50 50 50 52 55 57 59 61 63 64 65 67 68 69 69 70 70 70 71 71 69
31 27 29 28 29 28 26 24 23 18 19 18 18 18 21 22 24 25 25 38 36 42 47 50 51 51 53 56 58 60 62 64 65 66 66 67 68 69 70 70 71 71 71 70
30 27 30 28 27 27 25 25 23 22 19 20 19 18 20 22 25 25 26 29 31 33 38 46 52 53 52 55 58 60 63 64 66 66 66 68 69 69 70 70 70 71 71 71
28 30 28 25 28 27 22 21 22 21 20 18 17 21 21 21 23 23 23 25 27 29 39 45 49 52 52 53 57 59 63 65 66 67 67 68 69 70 70 71 71 70 70 71
28 29 29 27 27 21 23 27 25 20 19 21 21 23 24 24 25 24 24 23 27 31 36 44 45 49 53 53 54 58 62 65 67 67 68 69 70 70 70 71 71 71 70 70
30 29 26 25 25 23 24 38 43 43 36 27 22 24 25 25 27 28 31 31 30 33 40 43 47 51 56 56 58 60 62 65 67 68 68 69 70 70 70 71 71 71 71 70
29 28 25 27 25 22 30 46 49 49 40 43 41 25 24 28 23 26 32 42 37 39 42 46 50 53 54 58 59 60 61 64 66 68 69 70 70 70 70 70 71 72 72 71
27 28 26 25 27 29 35 48 52 34 34 52 53 54 33 27 26 29 43 49 45 45 49 52 53 57 58 60 61 60 61 63 66 68 69 70 71 71 70 71 71 71 72 72
28 29 29 28 29 23 45 46 45 47 52 54 54 56 55 35 40 49 52 56 58 63 66 63 60 60 52 60 62 63 63 65 67 69 70 70 71 71 71 72 72 72 72 72
29 34 34 29 28 39 49 50 52 53 53 54 54 56 57 49 58 62 64 65 67 67 68 68 68 69 70 64 62 61 63 65 66 67 69 70 71 72 72 72 72 72 72 71
35 37 36 38 39 44 49 52 52 54 53 54 55 57 61 61 63 63 64 65 65 65 67 68 67 66 66 66 66 66 68 69 65 65 67 68 70 70 72 71 72 71 71 71
35 36 35 37 40 49 51 51 52 54 54 54 54 54 56 59 58 60 61 62 63 63 63 63 62 59 58 58 58 58 60 66 67 65 65 66 67 68 70 67 69 72 72 70
36 34 34 34 41 47 49 52 53 54 54 56 55 55 56 57 57 59 59 60 61 60 60 62 64 64 63 60 58 58 61 60 64 68 68 67 68 66 63 63 61 50 55 53

GFSCGP_sfc_dewp_033.txt.gz
Dewpoint
32 26 25 25 25 21 19 18 23 25 26 37 37 38 44 55 56 57 59 59 59 60 61 63 64 65 66 68 69 71 71 73 71 70 69 68 66 68 69 71 73 74 74 75
31 24 24 25 27 24 20 18 21 25 24 27 30 37 42 53 56 57 58 59 59 59 60 62 64 65 66 68 69 71 72 74 73 71 71 69 69 68 70 72 73 74 74 75
21 21 24 27 27 25 23 17 18 21 23 27 32 29 39 50 54 56 58 59 60 59 60 62 63 64 65 68 70 72 73 74 73 73 71 71 71 71 71 71 72 73 74 75
19 22 24 25 24 26 20 21 19 21 22 21 30 24 38 41 52 55 56 58 59 60 61 62 63 64 64 68 69 72 73 74 73 75 72 73 68 67 68 70 71 72 74 74
22 23 26 26 23 27 21 23 21 19 22 23 23 25 30 44 48 52 54 57 58 59 60 62 63 65 65 66 67 69 73 74 74 75 74 72 72 69 69 70 74 75 75 74
19 23 24 27 27 28 26 25 24 24 21 20 24 23 26 31 40 46 53 55 58 59 60 62 63 65 65 66 66 68 72 73 74 74 74 74 73 73 69 71 70 70 70 71
22 21 23 24 25 27 26 22 19 18 18 17 24 24 27 30 36 36 47 53 56 58 60 60 62 64 66 67 68 68 71 72 73 73 73 74 74 74 74 73 70 71 69 70
19 18 20 22 23 22 25 20 14 16 11 12 25 22 24 29 30 39 41 47 54 56 57 58 61 64 65 66 68 68 70 71 72 72 73 74 74 71 71 72 69 69 69 70
19 18 21 21 20 23 23 22 19 14 18 15 15 21 25 29 29 35 40 43 49 54 56 58 60 62 63 65 67 69 70 71 72 71 73 73 74 74 72 74 74 70 73 70
25 22 21 20 20 21 22 22 18 18 16 15 15 21 19 32 29 33 37 40 45 49 53 56 59 61 62 63 66 68 69 70 71 71 72 71 72 73 73 74 74 73 73 73
29 23 21 23 21 19 19 21 20 18 17 11 9 11 27 32 39 36 34 38 41 46 49 51 56 59 62 62 64 66 68 69 70 71 72 72 72 72 73 73 74 74 74 74
34 23 23 22 22 21 21 21 21 17 24 19 15 11 23 28 29 36 34 37 41 46 50 50 51 55 58 62 62 64 66 67 69 70 71 72 72 73 72 73 73 74 74 74
33 28 24 23 21 21 21 22 22 21 21 25 15 14 22 26 27 32 34 38 42 45 49 51 50 53 58 60 62 62 64 65 66 70 70 71 71 72 72 73 73 74 74 75
35 29 28 21 25 27 26 23 23 21 20 22 20 19 23 26 29 32 35 38 39 45 50 52 54 57 58 60 63 63 63 64 65 67 69 71 72 72 72 73 74 74 74 74
32 27 28 27 25 25 26 24 24 24 24 24 22 23 25 28 30 32 33 38 42 42 46 52 55 60 62 63 64 64 64 66 66 68 68 70 72 73 73 73 74 74 74 74
29 24 27 23 22 22 25 25 25 24 24 24 24 24 27 30 33 35 35 38 41 39 43 48 55 58 60 62 64 64 65 65 68 69 68 71 72 73 73 73 74 74 74 74
28 24 22 18 24 23 22 23 24 24 25 23 23 26 27 28 30 34 35 38 42 41 43 46 48 54 59 60 63 63 65 66 68 69 70 71 72 73 73 73 74 74 74 74
27 31 26 15 21 17 21 27 27 28 24 24 25 26 28 32 36 38 39 38 40 41 42 46 41 49 59 56 54 62 64 68 68 69 70 71 71 72 73 73 73 74 74 74
29 26 22 15 16 19 19 22 33 38 31 42 35 28 26 28 31 38 37 38 42 43 45 46 42 47 59 59 62 64 65 67 68 69 70 71 71 71 72 72 73 73 73 73
28 29 23 21 13 14 25 28 38 48 33 49 51 49 40 29 27 27 39 38 37 38 41 46 46 51 54 60 59 63 63 67 68 69 70 71 72 72 72 73 73 74 73 73
26 26 23 20 19 18 25 35 49 38 35 52 53 54 54 52 40 43 43 43 45 47 49 50 51 57 60 62 61 64 65 66 68 68 69 72 73 73 73 74 74 74 73 73
23 27 26 23 20 15 27 27 30 46 51 51 53 55 56 57 57 57 52 47 53 59 58 52 57 59 62 64 65 67 69 68 69 70 71 73 74 71 71 74 73 74 74 74
26 27 28 26 20 32 35 39 40 49 50 51 55 56 57 57 57 59 51 61 64 66 67 68 68 67 66 66 67 68 69 69 70 71 72 73 73 73 74 74 73 72 74 72
31 36 34 33 30 34 33 38 41 52 53 55 56 57 57 58 60 57 62 67 68 68 68 69 68 68 68 69 70 70 70 70 70 71 72 73 73 73 74 73 72 72 71 71
31 34 33 33 35 38 39 39 43 47 52 55 56 56 57 61 62 64 66 66 65 64 62 62 61 60 61 63 64 66 70 72 69 69 69 70 70 71 73 73 73 71 73 71
35 33 33 29 36 38 41 42 46 53 51 56 56 58 59 62 62 64 64 64 64 65 66 66 65 65 64 63 63 64 65 67 71 71 68 65 65 67 69 72 69 53 51 55

GFSCGP_sfc_dewp_036.txt.gz
Dewpoint
30 27 26 26 28 27 26 25 26 29 29 28 31 33 34 45 50 52 56 57 58 58 60 61 62 63 64 66 68 70 71 73 71 70 69 67 65 65 64 66 70 73 73 75
24 23 21 23 22 23 23 22 24 28 27 28 31 32 34 43 50 52 54 55 57 58 59 61 62 63 63 66 68 71 72 73 73 70 71 67 66 63 64 67 71 74 74 75
19 18 20 19 21 23 22 22 23 25 27 26 27 29 32 37 46 50 52 55 56 58 58 60 61 62 63 65 68 71 73 74 74 74 70 70 67 66 65 67 70 73 74 75
20 18 19 19 20 21 20 21 21 20 23 23 28 26 33 33 39 44 47 53 54 58 59 59 60 61 62 65 67 71 73 75 74 75 72 74 66 64 64 68 69 70 74 74
19 18 18 19 18 20 18 16 21 21 19 23 24 25 30 32 33 39 43 49 54 57 58 59 60 61 62 64 66 69 73 76 77 76 75 71 72 65 65 66 74 76 75 75
18 18 16 19 19 19 17 19 18 21 17 18 24 24 26 28 35 36 41 47 52 55 57 59 61 61 61 63 66 68 74 76 76 75 75 77 75 73 67 70 68 69 69 70
19 18 20 19 20 23 20 20 16 14 13 14 22 23 28 29 31 35 36 42 50 56 56 58 61 62 62 63 65 68 73 75 75 74 75 75 76 76 75 74 70 72 67 67
20 16 18 20 21 22 22 19 12 17 9 11 21 21 24 29 31 32 35 34 45 53 55 56 60 62 64 64 67 68 72 75 75 74 77 77 78 71 71 74 70 69 67 68
21 20 17 20 21 21 24 20 15 9 14 11 11 19 22 27 29 31 31 33 36 50 54 57 58 61 64 66 68 70 73 74 74 73 76 77 77 76 72 75 75 70 74 69
25 23 19 18 21 20 21 22 15 13 18 17 11 18 19 27 29 31 32 33 36 44 52 53 57 59 62 64 66 69 72 73 74 73 74 74 75 77 76 76 76 75 74 75
27 25 23 21 20 19 19 19 19 14 14 13 12 11 22 27 31 31 32 35 35 41 48 51 53 56 59 61 64 66 69 72 72 73 74 74 73 74 75 75 76 77 75 76
30 26 25 21 20 18 19 20 21 15 23 17 15 11 16 21 24 30 30 33 35 39 43 46 49 53 57 60 61 63 65 67 69 72 75 74 74 74 73 75 76 77 77 76
33 26 25 23 21 22 19 19 20 19 19 26 16 14 23 27 28 31 32 34 37 39 44 46 47 49 53 57 61 61 63 64 65 70 70 71 72 73 74 76 76 77 77 77
35 30 28 22 25 23 23 20 20 19 19 20 20 20 22 21 27 26 27 30 33 41 43 44 47 49 50 56 62 65 62 62 64 65 68 71 73 73 74 75 76 76 77 77
29 31 31 29 28 26 24 20 21 22 23 22 21 23 25 27 28 29 30 32 32 35 39 43 48 52 58 59 62 66 63 64 64 68 67 71 74 75 75 75 76 77 77 77
26 30 30 29 25 24 23 25 24 23 22 24 24 24 26 28 31 31 33 35 35 37 35 35 42 54 58 60 62 63 66 65 66 70 70 72 75 75 75 76 77 77 77 77
26 25 27 26 25 24 25 26 26 26 26 26 26 29 31 31 31 33 33 33 34 36 38 40 41 47 52 56 61 62 66 66 69 70 72 73 75 75 76 76 77 77 77 77
27 28 25 22 26 23 25 26 26 26 27 27 28 30 31 32 33 34 33 33 34 34 35 39 36 39 46 49 46 56 61 70 70 72 72 73 75 75 76 77 76 77 77 77
25 26 22 22 21 23 22 23 24 27 28 28 29 30 29 29 30 33 32 33 37 38 39 39 37 38 49 48 51 53 59 65 68 71 72 73 74 73 74 76 76 76 75 76
20 28 22 21 21 21 25 23 27 30 32 34 40 40 43 43 28 28 33 32 35 36 39 40 41 40 42 52 53 57 58 62 68 70 71 73 74 74 74 76 77 76 75 74
19 23 21 18 19 21 23 33 41 32 42 46 46 48 49 49 50 54 55 54 52 50 48 48 50 49 52 55 57 59 60 62 66 68 69 72 74 75 76 77 77 76 75 74
21 21 17 20 18 17 21 21 26 36 39 44 46 46 48 49 51 52 55 58 58 56 48 50 55 53 56 63 63 64 69 67 69 70 70 73 75 71 71 77 77 77 76 76
23 22 18 19 18 28 30 30 36 36 39 40 45 44 48 50 51 53 55 59 60 55 54 58 55 59 63 67 66 67 71 71 71 71 73 73 73 73 75 75 75 73 75 71
26 29 27 28 28 28 29 31 33 33 36 41 42 42 44 49 50 53 59 61 58 60 64 64 65 64 67 69 69 70 72 71 71 72 73 73 73 73 74 71 72 71 70 70
27 30 30 30 32 33 32 31 34 37 35 35 38 44 45 47 53 56 62 63 63 66 68 68 68 67 69 70 71 71 71 71 71 72 71 72 71 73 73 73 71 70 72 68
30 30 28 28 33 34 36 35 36 34 31 42 43 49 48 49 58 62 64 65 66 66 65 65 65 65 65 65 66 68 71 72 70 69 67 65 65 68 69 69 71 56 55 51

GFSCGP_sfc_dewp_039.txt.gz
Dewpoint
38 36 37 33 39 35 27 30 29 33 32 31 32 33 34 37 44 48 53 55 56 56 57 58 60 60 61 63 66 70 71 75 72 69 68 67 65 66 65 64 69 71 72 73
36 35 33 29 29 34 33 29 30 30 30 31 31 32 32 36 44 48 51 53 55 56 57 58 59 59 60 63 68 72 73 76 74 70 72 68 68 63 64 64 71 71 73 74
25 27 28 20 25 31 29 28 27 28 29 30 30 31 33 34 42 48 49 52 54 56 56 58 59 60 60 63 69 71 75 76 75 75 72 72 70 68 63 64 66 70 73 74
22 19 19 18 18 20 20 24 25 24 27 27 29 25 33 32 38 43 48 50 51 54 57 59 58 59 60 63 66 72 75 76 76 77 72 74 66 63 61 64 64 69 74 73
24 16 16 18 16 16 18 17 23 23 24 26 27 26 29 32 31 38 41 47 49 52 55 57 59 59 59 62 64 69 76 77 77 77 76 71 71 63 63 62 72 75 78 74
23 17 16 17 16 16 16 16 17 20 20 22 25 24 27 26 32 34 37 39 46 50 54 57 59 60 59 60 62 68 75 77 78 78 77 77 74 72 65 66 65 67 68 72
21 20 18 17 17 17 16 15 13 13 15 18 24 23 28 29 29 32 34 38 42 49 53 56 58 59 60 62 65 67 74 77 78 77 77 77 76 76 77 74 67 69 65 65
18 16 18 18 16 18 17 14 11 18 11 12 21 22 24 27 29 29 33 36 40 44 51 54 58 59 62 63 66 67 72 76 77 77 78 78 78 72 71 73 68 67 65 65
19 20 18 18 17 18 20 17 12 11 11 8 10 18 19 24 27 30 32 35 36 42 50 53 56 59 62 63 67 69 72 75 77 76 77 78 78 77 72 75 75 71 73 67
25 25 20 18 19 18 19 20 13 14 19 17 11 18 16 26 28 30 32 33 34 39 48 53 54 57 61 62 64 68 71 74 76 76 77 77 78 78 77 76 76 75 74 76
25 26 25 23 19 19 18 19 18 13 13 13 15 14 21 27 30 29 31 33 33 35 45 51 54 56 60 61 63 66 69 73 75 76 76 76 76 77 78 76 77 77 77 78
26 25 26 22 19 20 19 20 22 16 25 15 14 15 18 18 22 28 30 33 33 37 43 50 51 54 56 60 62 64 66 67 72 73 76 76 76 76 76 77 77 78 78 77
32 28 27 26 20 21 20 19 19 20 18 25 14 15 23 24 24 29 31 33 37 39 41 44 48 52 53 55 61 61 65 65 67 71 72 74 75 76 76 77 77 78 78 78
38 31 30 24 26 22 22 20 19 19 19 20 19 20 25 27 30 31 32 33 35 39 39 43 45 48 50 55 62 64 62 63 65 67 69 73 75 75 75 76 78 77 78 78
31 34 32 28 26 23 21 19 18 20 22 21 20 22 25 28 30 30 31 34 36 39 40 42 43 49 56 59 64 67 62 65 64 68 69 72 75 76 76 76 77 78 78 78
29 30 34 31 27 28 25 24 21 19 20 21 20 21 25 29 29 29 31 32 34 34 34 38 43 48 51 55 59 63 67 65 66 70 69 72 75 76 77 77 77 78 78 78
30 28 32 31 30 29 27 26 25 22 22 21 22 26 27 28 31 32 32 33 35 34 35 37 39 39 47 53 58 60 66 67 68 70 72 72 75 76 77 78 78 78 78 78
27 32 30 27 31 28 28 28 26 26 26 25 26 29 30 33 34 34 35 36 36 36 37 38 33 38 47 43 42 58 60 71 71 72 72 74 74 76 77 78 78 78 78 78
23 27 26 25 26 27 26 26 27 28 28 29 29 30 30 31 32 35 34 35 36 37 37 38 37 36 49 41 45 49 55 65 71 71 73 73 75 75 77 77 77 78 78 78
19 26 24 26 25 26 27 28 26 31 28 31 30 31 30 32 29 30 39 46 50 50 49 51 43 40 40 46 42 46 47 55 69 71 73 74 75 76 76 77 78 78 78 77
18 21 21 21 24 25 28 32 30 29 41 37 36 38 41 43 47 52 52 52 53 55 56 56 56 52 55 55 49 58 59 58 63 69 72 75 76 77 77 78 79 78 78 76
24 20 18 22 22 23 26 24 31 40 42 42 45 46 46 47 49 50 51 53 55 56 57 57 56 56 56 58 59 65 68 68 71 71 72 74 76 74 73 78 78 79 78 77
18 22 20 21 21 31 30 31 31 32 37 37 39 40 43 43 45 47 51 53 54 58 60 59 53 57 59 62 64 69 73 75 74 74 75 76 77 76 76 77 78 75 77 73
23 25 22 26 28 28 28 28 30 31 33 34 34 38 38 38 41 45 46 52 55 60 61 60 61 61 64 67 68 70 72 73 75 75 76 76 76 76 76 72 73 72 71 71
26 29 27 26 27 30 31 32 32 32 32 32 34 37 35 36 40 47 48 54 57 61 64 66 67 67 67 70 71 70 71 72 71 72 72 73 72 74 74 74 71 71 73 67
30 30 28 25 32 34 34 33 34 34 34 35 36 35 35 44 47 49 51 58 61 64 66 67 67 68 68 69 70 72 74 72 72 71 70 69 68 70 71 71 72 56 58 50

GFSCGP_sfc_dewp_042.txt.gz
Dewpoint
36 31 30 31 36 38 36 33 30 35 37 33 33 33 37 39 42 51 53 55 55 55 57 59 59 59 61 65 69 70 71 74 73 72 71 71 69 71 72 73 74 77 76 77
34 32 32 32 34 36 36 31 26 31 32 35 32 32 32 39 41 50 53 54 55 55 56 59 60 59 60 64 68 71 72 74 74 72 72 72 73 70 70 72 75 75 76 77
33 31 32 31 32 31 34 32 28 27 33 36 33 32 33 36 39 45 51 52 54 55 55 58 60 59 60 65 68 71 72 75 74 74 74 75 74 74 71 70 70 73 76 77
33 32 30 30 31 28 30 34 31 29 28 29 30 28 36 32 37 44 46 50 53 55 57 58 59 60 61 64 68 71 73 73 75 75 73 74 69 68 68 70 70 72 74 75
33 30 27 30 29 26 23 24 30 29 26 27 27 27 31 33 33 41 44 49 50 54 56 58 58 61 61 63 67 70 73 74 75 74 76 72 72 69 69 70 72 75 76 76
33 29 23 19 23 20 19 22 23 24 23 24 25 26 30 29 35 34 41 47 49 52 55 59 60 61 61 63 67 69 73 74 75 75 74 76 72 72 68 68 70 71 74 74
32 31 22 18 16 18 15 15 16 16 18 20 24 23 30 30 34 34 40 42 48 51 54 58 61 60 61 63 66 69 73 74 75 75 75 74 76 73 74 75 68 70 70 72
23 23 26 17 15 17 16 12 13 20 16 16 23 22 25 30 30 30 37 39 42 47 51 55 61 61 62 63 65 68 72 74 75 75 76 75 75 74 71 73 70 69 70 70
21 22 24 21 16 18 16 15 12 12 13 12 14 20 21 28 29 29 28 36 40 45 48 54 60 61 62 62 65 67 71 74 75 74 75 76 74 75 73 72 74 73 73 72
24 22 21 21 19 16 17 17 12 13 19 19 13 22 21 28 31 32 33 32 39 43 48 54 58 60 62 62 64 66 70 72 74 75 75 75 76 75 75 74 75 73 75 74
21 24 21 21 21 18 16 16 16 13 14 15 16 15 25 33 32 33 33 35 36 43 47 51 57 59 62 62 63 65 67 72 74 75 75 75 76 75 75 74 75 76 75 78
27 21 22 22 20 19 18 18 20 19 26 18 20 15 20 27 30 31 32 36 37 42 49 51 55 57 61 62 63 64 66 68 72 75 76 75 76 76 76 75 74 75 77 75
32 28 24 24 25 21 19 19 18 20 18 28 19 16 26 28 32 34 34 36 41 45 50 51 53 56 59 62 63 63 65 66 70 74 75 75 75 75 76 76 75 75 75 76
37 32 31 24 28 25 24 19 19 18 21 22 19 23 26 26 26 35 37 41 41 48 50 51 52 56 58 62 65 65 65 65 66 70 73 74 75 75 75 76 77 75 76 75
31 33 32 28 26 25 20 18 19 21 24 23 21 21 29 33 34 35 36 41 43 48 48 53 52 60 61 63 65 66 65 67 67 68 71 72 74 76 76 76 76 77 76 76
30 32 34 32 29 28 27 20 20 19 18 21 21 21 29 34 37 37 41 42 44 46 46 49 50 58 62 66 66 66 66 67 68 70 69 72 74 75 76 76 76 76 77 77
30 31 32 31 32 30 28 27 22 21 21 20 23 28 32 34 36 38 38 39 39 36 42 47 50 56 61 60 68 67 67 67 70 70 72 72 74 75 75 76 76 76 76 77
26 30 32 30 33 29 31 31 28 26 23 22 25 29 33 38 39 38 37 38 43 40 42 51 40 49 57 47 47 62 67 71 70 73 72 74 75 74 75 76 76 76 76 77
24 26 27 28 28 32 30 30 29 28 28 25 27 28 27 33 35 39 37 37 37 43 48 47 46 48 63 59 62 63 64 70 71 70 73 72 75 74 75 76 76 76 76 76
21 27 25 29 27 26 33 29 28 28 27 35 30 30 30 31 29 45 54 52 52 54 57 59 58 58 59 64 59 65 63 67 70 70 71 74 73 75 75 75 76 77 77 76
20 24 22 25 26 28 35 31 31 29 41 45 46 41 35 38 49 53 52 53 54 57 59 60 62 62 64 64 64 68 68 62 68 71 72 73 75 74 75 76 77 77 77 76
21 21 22 24 25 26 32 30 35 44 42 41 42 43 46 48 48 48 48 52 54 56 58 61 62 64 65 65 66 70 71 75 75 72 73 74 76 74 73 77 77 77 77 77
19 27 25 25 25 39 37 34 35 33 37 38 39 37 41 43 43 42 47 52 52 57 59 62 64 64 66 67 71 72 74 77 77 77 77 76 77 76 75 77 77 76 77 76
28 30 26 26 28 30 29 29 30 31 32 33 33 34 34 38 39 39 44 50 53 56 60 62 66 68 71 75 71 75 76 77 78 77 79 77 77 76 76 75 75 75 75 75
27 30 29 29 30 31 30 30 31 32 33 33 34 34 35 37 38 39 47 53 54 59 61 64 68 72 73 74 75 75 76 76 76 77 76 77 75 76 76 75 74 74 75 72
30 31 31 32 37 39 40 39 38 36 33 34 35 37 37 39 43 46 48 52 57 61 63 66 70 70 72 71 73 75 76 77 77 75 73 72 72 73 74 74 73 51 53 51

GFSCGP_sfc_dewp_045.txt.gz
Dewpoint
32 30 27 22 27 30 38 38 36 36 40 39 38 35 50 50 54 59 61 55 56 56 57 61 61 59 59 63 65 64 68 69 68 71 70 70 68 69 69 68 73 73 73 73
33 30 29 28 28 28 35 37 36 35 35 36 34 34 37 49 56 58 59 60 56 56 56 57 57 58 60 64 64 66 68 70 68 70 68 69 69 69 68 68 72 73 73 74
31 33 33 30 27 27 31 34 36 34 30 29 34 34 34 47 54 55 60 62 55 56 56 57 56 57 61 64 65 67 68 71 70 70 70 70 70 70 69 68 67 72 72 73
30 34 33 33 29 29 30 34 35 35 31 33 36 32 35 37 49 55 59 60 55 55 56 57 56 57 59 64 66 66 69 72 70 71 70 68 67 66 68 67 68 71 73 74
28 33 33 31 30 30 31 32 33 34 33 31 34 32 33 34 36 51 57 58 56 55 56 57 57 58 58 63 67 68 68 71 71 71 69 70 68 68 67 68 67 70 71 72
28 35 33 32 30 30 32 29 27 32 32 28 28 32 32 33 35 51 54 55 56 56 57 56 58 58 59 64 66 69 69 70 71 71 72 69 69 67 67 65 66 70 72 73
27 28 34 32 30 30 29 26 22 20 23 25 26 26 27 31 34 38 47 53 54 56 56 56 57 58 59 63 65 69 69 69 71 71 69 72 69 70 67 66 65 68 72 72
26 25 30 32 28 26 28 25 18 19 21 22 22 20 24 27 31 33 44 50 54 56 57 56 57 58 59 61 65 68 69 69 70 72 70 68 73 70 68 70 69 67 70 71
20 22 33 33 25 21 21 19 16 13 20 16 19 19 22 23 26 27 32 47 51 54 56 56 57 58 59 61 65 66 69 69 70 71 72 71 70 73 69 66 71 67 69 70
21 16 28 30 32 22 16 17 13 12 12 13 15 17 19 19 20 26 28 38 45 50 54 57 57 58 59 60 64 66 69 70 71 71 72 72 71 70 73 69 69 72 69 69
33 22 16 23 27 26 14 16 14 14 15 16 19 18 20 22 24 23 30 33 39 48 53 57 59 59 59 59 62 65 67 71 71 72 72 73 73 72 71 72 69 71 71 73
33 31 18 17 23 25 22 16 16 13 15 15 16 14 28 28 25 25 27 30 39 46 52 57 59 59 59 59 61 63 66 70 71 72 73 72 73 73 71 71 73 68 73 71
35 31 26 19 20 21 21 16 15 18 22 19 13 14 25 30 27 26 33 30 39 45 51 55 58 59 60 59 59 62 63 68 70 72 72 73 73 73 73 72 71 73 70 73
42 32 28 25 21 24 23 19 15 15 16 17 19 19 26 30 31 35 36 40 39 48 50 53 57 58 60 60 60 60 62 64 69 71 72 73 73 73 73 73 73 70 73 72
34 27 30 32 30 29 26 19 18 16 16 21 19 25 27 34 37 39 40 41 44 45 49 52 55 57 59 60 60 61 62 63 65 70 72 72 73 73 73 73 74 74 72 73
32 28 32 34 32 30 28 25 19 18 17 18 23 19 33 35 41 40 41 41 44 47 50 50 54 56 58 60 61 61 62 63 64 66 70 72 73 73 73 74 74 74 74 72
27 25 30 30 33 32 31 30 21 19 21 18 18 24 34 36 39 37 37 39 37 36 39 46 48 53 61 61 62 63 63 64 64 65 67 70 72 73 73 74 74 74 74 75
26 24 29 31 32 29 33 34 33 23 23 21 21 34 35 37 43 43 42 37 39 45 47 45 51 50 50 58 63 63 64 66 66 65 67 67 71 72 73 73 73 73 74 74
25 23 26 30 30 32 33 31 30 30 41 43 44 36 36 43 49 51 53 53 55 56 57 58 59 59 60 58 56 64 65 66 68 67 69 69 71 71 72 72 73 73 73 73
23 25 28 29 31 30 33 32 32 33 39 40 45 48 36 46 48 51 53 54 54 56 58 60 59 60 59 60 60 62 65 66 65 67 70 72 71 72 72 72 73 73 73 73
24 25 25 25 28 37 36 33 39 35 39 38 38 43 44 43 46 48 51 53 56 57 57 59 61 63 61 62 61 62 59 62 68 69 70 72 72 72 73 73 73 73 73 73
28 28 26 26 28 32 36 31 30 39 39 38 37 37 41 40 40 41 46 51 53 56 57 58 59 61 64 63 61 58 63 62 68 69 70 71 73 71 73 74 74 74 74 74
30 32 33 30 30 34 34 33 32 33 34 36 36 35 37 39 41 41 42 50 53 54 59 59 59 62 64 67 64 61 64 70 69 70 71 72 72 73 71 75 74 75 74 74
29 31 29 30 32 32 35 38 38 38 38 35 34 36 37 38 39 40 42 50 52 56 57 59 61 63 68 72 71 71 72 71 70 72 71 74 74 74 73 75 75 75 75 75
30 31 32 30 32 34 37 36 38 39 39 40 40 37 37 39 41 44 45 49 49 48 57 57 61 62 68 69 73 72 73 73 73 73 75 75 74 74 74 70 65 73 74 72
32 33 34 33 36 36 36 37 39 39 39 39 40 41 43 41 40 46 46 47 47 46 44 56 59 62 68 68 69 70 71 72 72 74 74 74 73 74 74 69 61 50 50 49

GFSCGP_sfc_dewp_048.txt.gz
Dewpoint
28 22 23 22 25 24 32 35 37 39 42 48 45 47 50 58 58 60 60 60 60 60 61 62 62 61 62 64 64 63 64 67 68 69 68 67 65 66 68 68 70 71 72 73
30 24 24 29 25 23 26 28 34 39 39 41 43 46 49 56 57 58 59 59 60 60 60 62 62 61 61 64 64 64 64 66 68 68 68 68 67 67 68 68 72 72 72 73
27 31 30 29 28 24 25 26 28 37 38 35 40 41 48 51 56 57 58 59 58 57 59 60 62 61 62 63 64 65 65 66 67 69 68 69 69 68 68 67 69 72 73 73
29 30 31 30 28 26 24 26 27 32 36 33 37 35 40 48 53 55 56 57 57 56 59 60 61 61 60 61 64 66 67 67 67 69 68 67 67 67 67 66 67 71 72 73
23 28 29 29 30 30 26 27 28 31 34 34 33 35 36 48 52 53 53 54 54 57 56 57 60 60 60 62 64 65 69 68 68 69 68 67 66 67 67 67 66 69 72 71
23 27 29 30 32 32 30 31 32 32 31 30 32 32 34 46 52 53 52 55 55 57 57 56 57 57 60 62 63 65 68 68 69 69 69 67 67 67 66 66 66 67 70 71
23 22 27 33 32 33 31 30 28 27 26 26 32 29 31 46 52 53 52 56 56 56 56 56 57 56 60 63 64 65 67 69 69 69 69 69 68 68 67 66 65 66 70 70
18 17 23 28 32 32 30 29 28 25 23 23 26 27 28 31 37 53 54 56 57 54 54 56 57 57 58 63 65 65 66 67 69 69 69 69 69 69 67 66 66 65 68 71
32 19 28 28 29 32 30 28 26 20 23 20 22 22 24 25 27 50 54 55 56 55 54 56 57 57 58 62 65 66 66 66 69 69 69 70 70 68 68 68 68 65 68 71
34 30 26 27 29 30 27 27 22 18 19 14 16 17 22 21 21 26 51 55 56 54 55 54 56 58 58 60 64 66 67 66 67 69 69 68 69 72 70 68 68 71 67 70
34 32 28 23 21 28 26 23 26 22 16 15 14 15 20 22 24 23 38 53 53 53 55 55 56 57 58 59 63 66 67 67 67 68 70 69 69 68 73 70 67 67 69 68
35 35 32 26 22 21 32 19 18 15 14 16 18 15 19 21 23 23 22 49 52 53 54 55 57 57 58 59 62 64 67 67 68 69 69 71 71 70 68 72 70 68 68 70
39 37 31 26 20 20 19 27 16 15 15 15 12 13 18 22 27 32 26 29 50 53 54 55 57 57 58 58 61 64 65 68 68 69 70 70 71 71 71 69 71 71 69 69
42 37 34 30 27 28 22 20 21 14 14 14 14 14 17 18 24 33 29 32 39 50 52 54 57 57 58 58 60 63 64 68 69 70 70 70 71 72 72 72 69 71 71 68
38 33 30 29 28 29 29 26 22 16 15 14 14 18 19 22 27 35 36 37 43 50 53 56 57 58 59 59 59 62 64 66 69 70 71 71 71 72 73 73 72 71 70 72
37 31 29 25 30 31 30 31 29 18 16 20 17 20 22 30 38 42 45 43 45 50 54 57 58 58 59 59 59 60 62 65 68 70 70 71 72 72 72 73 73 72 72 70
35 29 27 26 32 31 30 29 32 24 18 18 18 20 34 38 47 50 36 38 45 48 53 57 57 58 59 59 60 60 61 63 66 69 69 71 71 72 73 73 73 73 73 72
31 30 27 26 30 28 32 34 31 36 36 38 43 41 42 51 52 53 55 54 54 54 54 54 54 56 61 60 60 60 61 62 64 65 69 70 72 72 73 73 73 73 73 73
33 31 24 26 30 32 34 35 32 31 34 34 39 45 50 50 50 50 53 55 57 58 60 59 58 57 57 59 64 61 62 62 63 64 65 69 71 72 73 73 73 73 73 73
34 35 24 25 32 31 34 37 33 36 32 34 35 38 42 44 45 48 51 54 55 57 59 60 62 63 60 59 61 63 63 64 64 64 65 66 68 71 72 72 72 73 73 73
32 31 25 25 34 38 37 40 35 33 34 35 35 36 38 36 41 42 50 51 56 57 58 60 62 63 64 64 56 59 63 66 65 66 66 68 67 69 71 71 72 72 73 73
34 33 31 32 33 33 39 40 35 36 37 37 37 35 36 38 40 41 48 49 53 55 57 60 62 64 66 67 60 58 58 59 65 69 69 71 71 69 70 71 71 72 72 72
31 34 34 33 35 39 40 43 41 38 37 38 39 39 37 37 40 42 46 46 45 52 53 58 60 64 68 71 66 69 70 69 70 65 68 69 71 71 72 72 71 72 73 72
31 32 32 31 31 35 35 35 37 37 37 38 38 39 40 38 41 43 44 43 43 44 44 54 58 60 64 70 71 71 71 72 72 69 68 70 70 71 71 73 73 73 73 73
34 33 35 32 33 37 36 38 39 40 40 40 39 38 41 41 39 43 42 43 43 44 45 50 57 59 62 68 68 69 69 71 71 71 72 71 72 70 71 63 63 71 71 70
38 37 34 33 36 37 37 39 41 41 41 41 41 39 38 42 42 43 41 42 43 44 46 48 55 60 62 63 68 68 68 70 69 69 70 72 73 72 69 62 58 49 48 46

GFSCGP_sfc_dewp_051.txt.gz
Dewpoint
27 22 20 18 25 26 31 36 37 39 41 49 49 48 59 60 60 60 60 59 60 61 61 61 62 62 62 62 60 63 64 65 67 68 67 66 66 66 68 69 70 71 72 71
26 21 21 23 26 25 24 23 29 35 38 48 48 48 57 60 59 60 60 59 60 61 61 61 62 62 62 62 61 63 63 65 68 66 67 66 66 66 67 68 70 71 71 73
26 28 24 26 25 24 23 22 23 30 39 42 41 45 48 59 60 60 60 60 60 61 60 60 61 62 61 63 62 63 63 64 67 67 68 68 67 66 66 67 69 71 71 73
28 26 26 23 26 26 23 24 24 27 33 33 37 36 46 54 57 58 59 60 60 60 60 60 61 61 61 62 64 64 63 64 66 67 67 66 64 63 64 66 67 71 72 72
25 28 26 26 26 28 26 26 26 27 28 37 31 34 42 52 55 57 58 59 60 60 60 60 61 61 61 62 64 64 64 64 65 68 66 66 64 64 67 66 66 69 71 72
25 23 28 27 30 29 30 28 29 31 30 28 29 33 34 47 50 55 57 57 59 59 60 60 61 61 62 61 64 64 65 64 65 67 66 66 65 66 66 67 66 66 70 71
32 26 26 28 28 31 30 28 26 26 27 26 30 32 32 44 47 50 54 56 57 57 58 59 60 61 62 61 62 64 65 65 66 67 67 66 66 66 66 66 66 66 68 69
32 25 24 25 28 28 30 29 28 25 26 28 28 29 32 43 47 49 52 55 55 55 54 57 58 61 61 61 62 63 65 65 66 67 67 67 67 66 66 66 66 66 67 68
32 31 33 31 25 31 30 30 30 26 21 23 27 26 30 40 45 48 50 53 53 54 55 57 57 59 59 61 62 63 65 66 67 67 67 68 67 67 67 67 67 65 66 69
34 30 33 33 30 28 32 30 27 25 22 18 19 22 28 28 32 47 50 52 53 53 54 56 57 57 58 60 62 62 64 65 67 67 68 68 68 68 68 68 66 66 66 68
36 32 31 34 26 22 28 29 30 28 26 25 18 20 23 28 28 40 45 49 53 54 55 55 56 57 57 59 62 62 63 64 66 67 68 68 68 68 68 68 68 68 68 67
38 37 33 33 34 35 33 28 24 27 25 19 25 25 21 23 26 36 47 51 54 54 56 56 54 56 57 57 62 63 63 63 64 67 67 68 68 69 70 69 68 68 69 69
39 36 28 28 27 28 25 24 26 22 22 20 24 24 18 19 22 25 27 38 50 55 56 56 55 56 57 57 61 63 64 64 64 65 67 68 68 68 68 71 71 68 67 68
39 36 32 28 28 30 29 29 28 23 21 18 18 23 18 19 20 22 28 31 44 53 55 56 55 56 57 58 60 62 65 65 65 66 66 68 69 69 68 68 69 71 70 68
38 32 33 32 31 29 29 28 27 27 19 18 17 15 17 19 21 28 39 36 32 37 52 54 55 56 57 58 59 62 64 66 66 66 67 67 69 70 70 70 69 69 71 71
37 31 32 29 28 27 26 27 27 28 29 16 16 16 19 42 51 53 51 40 32 40 51 53 55 56 57 58 58 61 64 65 67 67 67 68 69 70 71 71 71 70 69 71
35 32 30 26 26 27 27 32 33 31 33 34 19 30 43 51 52 52 54 52 40 46 51 53 54 55 57 58 58 60 63 64 67 68 68 69 70 70 71 72 72 72 71 70
34 34 33 26 26 29 33 37 34 31 31 34 38 43 51 51 51 51 53 56 58 57 53 52 54 56 57 58 59 59 62 64 66 68 69 70 70 71 71 71 72 72 72 71
35 35 32 23 26 34 34 36 37 33 30 35 34 37 45 50 50 50 50 55 57 59 61 61 57 58 59 59 60 60 61 63 65 67 69 70 71 71 71 72 71 72 72 73
36 36 33 31 31 35 36 37 39 38 31 37 37 36 38 47 46 46 48 53 55 59 61 62 64 59 60 61 60 60 61 62 63 65 68 69 70 71 71 72 72 72 72 72
33 34 30 32 31 37 39 37 39 31 33 37 38 38 37 39 39 41 46 44 50 54 59 63 68 66 64 58 61 60 61 61 62 63 65 67 70 71 71 72 72 73 72 73
33 32 33 34 35 34 38 41 35 36 37 37 37 36 38 39 42 44 43 43 43 44 55 59 66 69 68 60 60 60 62 61 66 66 65 66 66 69 70 71 72 72 72 72
32 34 33 34 35 40 39 43 37 37 37 38 38 37 37 40 40 43 42 42 42 44 47 56 59 65 68 70 70 70 70 70 67 67 68 69 69 68 67 70 70 71 71 71
34 36 35 33 32 34 35 38 42 41 39 41 40 40 38 38 41 42 41 41 41 43 47 53 57 58 62 68 69 69 70 70 71 71 69 69 69 70 71 71 70 70 71 71
37 37 34 33 33 37 37 38 40 41 43 43 44 42 41 39 41 42 41 40 43 43 50 52 57 57 58 64 67 68 68 68 68 69 70 70 71 68 69 65 64 70 71 68
38 35 34 34 40 41 39 40 41 41 44 44 44 43 43 42 41 42 42 42 43 42 51 55 57 57 57 58 65 67 67 67 66 66 67 67 68 70 69 62 58 49 47 46

GFSCGP_sfc_dewp_054.txt.gz
Dewpoint
27 23 19 21 27 29 30 34 35 37 40 49 49 52 60 60 59 58 57 55 54 54 59 63 64 64 65 65 65 65 66 67 68 68 67 68 68 69 70 70 72 72 73 73
25 22 22 20 21 27 27 25 30 34 39 48 48 49 59 60 59 59 59 59 59 59 59 62 63 63 64 64 63 65 66 67 68 68 68 68 68 68 69 70 71 72 73 73
24 24 23 22 23 22 25 25 23 32 34 42 47 46 55 60 60 60 60 60 61 61 61 61 62 62 63 64 62 64 65 66 68 68 68 68 68 68 68 69 70 71 72 73
27 28 23 21 21 24 20 26 27 25 30 30 42 36 45 57 59 59 59 60 60 60 61 61 61 62 62 63 64 64 65 65 67 68 68 68 66 65 66 68 69 71 72 73
30 28 26 21 19 24 19 25 25 25 29 29 30 33 35 52 57 58 59 60 60 60 61 61 61 61 63 63 63 64 65 65 67 68 68 67 67 66 67 67 68 70 72 73
23 26 28 26 26 24 28 28 26 29 27 26 26 29 34 49 53 57 59 60 60 60 61 61 61 62 62 63 64 64 65 65 66 68 68 68 67 66 67 67 66 68 71 72
33 26 25 27 25 28 28 25 24 24 27 24 28 28 31 38 50 54 57 59 60 60 60 61 61 61 62 63 63 65 65 65 66 67 68 67 67 67 67 67 66 66 68 71
32 25 27 29 26 26 28 26 24 22 23 25 30 29 32 34 45 53 54 57 59 59 60 60 61 61 62 63 63 64 65 65 66 66 68 68 68 67 67 67 68 67 67 69
31 30 33 33 32 30 28 27 28 27 28 25 28 30 32 37 39 46 49 52 56 58 59 60 61 61 62 63 63 64 65 65 66 66 66 68 68 67 67 68 68 68 68 69
33 30 32 33 33 31 29 30 28 27 25 21 25 25 31 34 38 45 48 50 54 57 58 58 59 61 62 62 63 63 64 65 66 66 66 67 67 68 68 68 68 68 68 70
33 32 30 33 30 25 25 26 30 28 27 24 22 24 29 35 37 36 47 50 53 55 57 56 56 59 61 62 63 62 63 64 65 66 67 67 68 68 68 68 68 68 68 68
36 34 31 32 33 35 34 32 30 29 27 26 26 25 26 33 34 34 35 49 53 55 55 56 56 57 59 61 62 62 63 64 65 67 67 67 68 68 68 68 69 69 68 68
35 35 26 26 29 31 30 30 29 28 26 27 26 28 28 26 28 30 34 42 49 53 55 55 55 57 58 59 61 62 63 64 65 67 67 67 68 68 68 69 69 69 70 69
38 31 30 26 27 30 27 28 29 28 24 27 27 28 25 30 25 27 30 33 39 55 56 56 56 56 58 59 61 63 63 63 64 65 67 67 68 68 69 70 70 69 69 69
34 28 30 31 32 32 29 28 28 27 27 26 27 26 28 27 28 28 35 41 40 39 55 57 57 57 58 60 61 63 64 64 64 65 66 67 68 69 69 70 71 71 70 69
34 28 31 29 30 30 28 27 27 27 28 28 28 25 37 52 53 53 55 56 56 46 40 55 58 58 57 59 60 63 64 65 65 65 66 68 69 69 69 69 69 70 72 71
32 30 30 25 27 26 26 27 30 33 35 34 25 32 42 52 51 52 53 55 57 58 51 39 54 57 57 58 60 62 65 66 66 66 67 68 69 70 70 70 71 70 70 71
31 31 33 27 26 24 34 36 34 32 35 37 37 39 51 51 51 50 49 51 55 59 60 50 48 56 58 58 59 63 64 66 67 67 68 69 69 69 70 71 71 71 71 70
33 33 31 26 28 33 35 36 36 36 32 36 36 38 39 46 50 50 44 45 49 54 61 62 57 57 60 59 61 63 64 66 67 68 68 69 70 70 70 71 71 72 72 72
35 35 32 32 28 34 39 37 38 39 31 35 36 35 39 47 39 40 43 43 46 51 60 66 61 61 60 62 61 63 64 65 67 68 69 70 70 71 71 71 71 72 73 73
32 33 28 29 31 35 37 39 39 32 32 37 37 36 36 39 41 43 42 42 47 51 57 66 66 63 62 62 61 63 64 64 66 68 70 71 71 71 72 72 73 72 73 73
32 30 32 33 32 33 38 38 35 36 38 38 39 39 38 39 42 42 41 43 50 52 55 59 67 68 67 64 63 63 64 66 67 68 69 70 71 71 71 72 73 73 73 73
32 35 31 33 34 39 40 40 41 40 39 40 41 41 40 37 41 43 41 42 50 54 55 56 58 66 68 70 69 68 70 68 68 67 67 68 71 71 72 72 73 72 73 73
37 38 35 35 37 39 40 41 40 41 41 42 44 43 41 39 40 42 43 42 44 50 54 56 55 55 59 66 68 69 71 72 70 69 70 70 69 69 70 71 72 72 72 72
37 38 34 35 38 40 43 44 42 43 43 45 45 44 43 43 41 43 43 44 44 50 53 55 55 53 55 58 66 68 68 68 69 70 71 72 71 70 72 70 69 71 72 69
40 36 34 34 40 42 43 46 46 44 44 45 46 45 45 44 44 43 43 44 46 48 53 54 53 53 53 55 58 63 68 67 67 67 67 67 69 72 70 65 61 49 49 47

GFSCGP_sfc_dewp_057.txt.gz
Dewpoint
28 22 26 21 25 25 30 31 27 41 46 46 46 47 58 59 57 58 58 59 59 59 60 62 64 65 66 68 69 69 70 71 70 68 67 68 67 68 69 70 73 73 73 74
25 19 20 21 21 25 26 30 32 34 39 46 47 46 53 59 58 58 58 58 58 58 59 62 64 64 65 67 69 70 70 71 71 69 70 69 70 69 71 71 73 74 73 75
22 22 23 21 19 21 23 24 29 32 36 39 45 44 48 57 59 59 57 57 57 57 57 61 63 64 65 66 68 69 71 71 71 72 70 71 71 70 69 70 71 73 74 74
30 27 23 21 19 19 17 21 28 29 29 34 41 39 46 52 58 59 59 58 56 57 57 58 62 63 64 66 67 70 71 71 71 73 71 72 67 67 68 69 70 73 74 74
30 29 26 23 22 20 17 17 17 24 30 30 31 38 41 49 55 57 58 59 59 59 58 58 59 62 63 65 66 67 70 72 72 73 73 70 70 68 69 68 72 74 75 74
27 30 30 27 24 22 20 23 21 17 20 27 32 32 36 42 51 55 58 59 60 60 61 62 62 62 63 64 66 67 70 71 72 72 72 73 73 71 68 69 68 68 70 72
31 26 26 29 27 25 23 19 20 20 14 21 31 31 34 39 45 50 56 59 60 61 61 62 63 63 64 65 66 67 70 70 71 71 72 72 73 73 72 71 68 69 68 69
27 16 26 26 26 26 25 23 17 20 13 9 26 29 32 36 37 46 52 55 59 60 60 61 62 64 65 66 67 67 69 70 70 71 72 73 73 68 68 71 67 67 66 68
30 28 33 32 33 27 27 24 22 19 26 19 12 27 33 36 37 38 41 53 57 60 60 61 62 63 64 65 67 68 69 70 70 69 71 72 73 72 70 72 71 68 71 67
30 20 30 32 33 31 28 27 24 24 19 19 18 21 25 36 37 39 40 49 55 58 60 61 62 62 64 64 66 67 68 69 70 70 70 70 71 72 72 72 72 72 70 71
33 26 18 29 30 27 28 27 27 26 24 19 16 19 30 34 40 41 42 44 49 55 59 60 61 62 64 63 65 66 67 69 69 70 70 70 70 70 71 71 71 73 71 72
34 28 22 22 30 34 33 30 27 26 28 28 24 19 30 35 36 38 38 44 47 53 58 60 61 62 62 64 64 65 66 66 67 69 70 70 70 71 70 71 71 73 73 72
36 31 22 9 17 30 29 31 31 28 30 31 25 23 29 34 35 39 41 42 51 55 58 59 60 61 62 64 65 64 65 64 65 68 68 69 69 70 71 71 71 72 72 72
39 32 26 15 19 26 29 29 29 29 26 29 30 30 30 31 35 35 37 39 42 51 57 59 59 61 63 65 66 66 65 64 65 65 66 69 70 70 70 72 73 72 73 72
35 25 24 21 22 24 26 26 28 26 29 28 29 32 34 36 37 37 40 43 46 44 48 58 59 62 64 65 67 67 66 67 66 68 68 69 71 71 72 72 73 72 73 73
37 25 27 22 19 25 25 25 26 26 28 29 30 31 34 43 50 49 53 55 55 56 55 52 59 61 63 65 65 66 67 67 68 69 69 71 72 72 72 73 73 74 73 73
33 30 24 15 26 27 24 26 25 27 34 30 30 34 44 46 51 51 51 52 54 57 58 60 56 60 63 63 65 66 67 68 68 70 70 71 72 72 73 73 74 74 74 73
32 32 29 20 21 21 24 34 30 34 37 37 39 42 46 52 52 50 49 49 51 54 56 59 61 59 64 61 61 65 66 69 69 70 70 71 72 72 73 73 73 73 73 74
31 33 25 21 26 32 34 36 35 35 35 36 38 39 41 45 52 51 45 46 50 54 58 61 63 63 58 63 65 67 67 69 69 69 70 71 72 72 73 73 73 73 73 73
33 35 32 25 28 28 37 38 39 39 35 36 38 39 40 47 47 44 44 45 52 57 61 64 67 63 56 64 64 66 66 68 69 70 70 72 72 72 73 73 74 74 74 72
31 32 28 26 28 32 37 38 39 36 34 37 39 40 40 40 41 43 44 48 56 59 61 67 64 62 66 66 65 67 67 68 69 69 70 72 73 73 74 74 75 74 74 73
29 29 28 30 28 27 39 38 37 38 39 40 41 41 41 41 43 44 44 47 51 53 57 64 67 65 65 67 67 68 69 70 72 72 71 73 74 71 71 75 74 75 75 75
33 36 35 36 35 39 41 41 42 41 41 41 43 43 42 40 41 44 45 46 49 49 48 54 64 66 69 68 67 68 70 71 72 73 73 73 74 73 75 75 74 73 74 72
36 38 35 34 38 40 42 44 43 44 42 42 44 44 43 43 42 43 45 47 48 50 50 48 49 54 62 68 70 71 72 71 71 72 73 73 73 73 74 72 72 71 71 72
37 38 35 36 39 40 41 45 46 46 45 44 46 46 45 45 45 45 45 47 50 51 52 51 49 50 52 58 65 68 70 73 71 71 70 71 70 72 72 73 71 72 74 69
39 38 35 35 42 43 42 44 45 46 46 47 47 47 48 48 47 47 47 49 51 52 52 54 52 51 52 54 57 62 66 70 70 69 70 69 72 71 70 70 67 49 50 49

GFSCGP_sfc_dewp_060.txt.gz
Dewpoint
24 25 21 19 20 18 23 20 22 37 46 47 47 47 54 56 56 58 59 59 59 59 61 61 61 61 61 64 67 68 68 70 68 66 65 65 65 67 68 68 72 73 73 74
22 19 21 21 18 20 19 26 28 27 41 48 46 45 47 56 55 57 59 59 59 59 59 61 62 61 61 64 66 69 69 70 70 66 67 65 67 66 67 69 73 73 73 74
21 19 18 17 21 19 19 18 25 27 32 42 45 45 46 51 55 56 57 59 59 58 59 60 62 61 61 63 66 68 70 71 71 70 67 70 70 70 70 70 69 72 73 74
25 23 21 18 19 18 16 15 15 26 30 32 41 39 45 46 53 55 56 57 57 58 59 60 61 62 61 63 66 69 71 71 71 71 70 73 68 65 65 67 67 69 74 73
28 26 25 23 21 18 18 15 16 17 27 30 34 38 40 44 48 54 55 56 56 58 58 58 60 62 62 63 65 68 71 73 73 73 73 69 71 64 65 66 72 74 75 74
28 31 28 26 25 23 20 18 18 17 12 20 29 33 36 41 44 47 54 55 57 57 57 59 60 62 63 63 64 67 72 74 74 73 71 74 73 71 66 69 68 67 68 70
23 23 28 29 26 26 22 18 18 15 9 4 20 28 34 37 43 44 48 54 56 58 58 58 59 60 63 64 65 66 71 74 74 72 71 71 72 73 72 71 68 70 65 66
17 14 19 26 28 25 24 20 16 19 11 7 11 19 28 36 39 43 47 52 56 57 58 59 60 60 62 64 65 66 70 73 73 72 74 75 75 68 69 71 67 66 65 65
19 17 26 29 26 28 26 23 21 16 16 12 8 11 22 32 35 39 43 47 50 54 57 59 61 62 63 63 66 68 70 71 72 70 74 75 74 73 69 74 71 67 72 66
21 17 19 27 32 31 29 27 21 21 21 20 17 17 11 32 35 38 40 41 47 51 56 58 60 62 64 63 64 66 68 71 71 70 71 71 71 73 73 72 73 72 70 71
21 18 12 17 26 23 26 26 27 22 21 19 17 16 20 25 30 37 38 41 42 51 56 57 59 61 63 64 63 65 66 68 69 70 71 71 70 70 72 71 72 72 72 72
24 19 17 14 16 30 29 29 27 24 27 23 22 17 21 24 25 32 37 39 41 45 52 56 57 60 62 63 63 63 65 66 67 70 73 71 71 71 70 71 72 73 73 73
27 17 16 14 11 17 21 28 30 26 27 29 23 22 26 30 35 32 34 37 43 45 47 53 55 59 61 62 64 62 63 64 65 68 68 69 69 70 71 72 72 73 73 73
31 17 19 10 16 19 27 30 30 29 27 27 26 28 29 30 32 36 40 40 39 45 51 53 56 58 61 64 67 66 63 63 63 65 66 69 70 70 70 73 74 72 74 74
30 23 21 18 16 15 17 20 24 27 30 28 28 29 33 33 32 34 36 41 43 41 45 52 56 60 64 65 68 68 65 65 64 68 66 69 72 72 72 73 74 74 74 73
32 26 23 20 15 11 9 13 19 21 28 29 30 30 31 36 40 46 44 50 50 49 50 48 55 58 61 64 67 69 69 67 68 70 69 71 74 74 74 75 75 76 75 75
32 27 22 16 13 14 17 19 22 23 27 28 28 32 35 36 41 48 49 49 50 51 54 56 57 56 59 61 64 67 70 69 70 71 71 73 74 75 75 75 76 76 76 75
32 33 26 16 18 10 8 11 19 22 27 29 32 33 36 43 49 52 52 52 53 55 56 57 57 59 59 58 58 65 66 71 71 72 73 73 74 75 75 76 76 77 75 75
29 34 25 19 15 12 21 38 38 38 27 35 37 38 40 43 52 53 53 54 55 58 60 61 61 61 63 62 61 64 65 68 70 72 73 74 74 74 75 75 76 75 74 75
28 33 33 25 24 22 36 38 39 39 36 39 40 41 42 44 43 46 50 52 56 60 62 63 64 65 65 65 61 61 64 67 70 71 72 74 75 75 75 75 76 76 74 73
33 33 30 27 27 27 35 38 41 37 37 41 41 43 44 46 46 48 46 49 52 54 60 64 67 67 66 66 61 65 66 67 69 70 70 73 74 75 75 77 76 75 75 74
30 32 30 30 28 27 40 38 37 41 43 41 43 43 42 44 44 45 46 48 50 51 53 62 68 66 64 62 62 69 70 70 71 71 71 74 75 71 71 77 76 75 76 76
30 33 34 32 32 42 41 42 42 43 44 43 42 44 43 42 43 43 45 48 48 50 50 50 63 69 68 66 66 68 73 73 73 73 74 74 74 73 75 75 75 73 75 72
35 38 37 36 38 39 41 43 46 47 46 45 44 45 44 45 45 45 45 45 46 48 52 51 52 57 66 71 71 70 71 72 73 73 74 73 73 73 73 72 72 71 70 71
34 36 34 35 38 40 41 44 46 47 49 46 47 47 48 48 47 46 46 47 49 50 51 56 54 54 57 64 67 71 72 72 71 72 72 73 72 73 73 73 70 71 73 67
39 38 35 34 40 40 41 43 45 44 44 45 45 45 46 46 48 49 49 51 52 52 54 57 56 56 57 57 59 63 68 73 71 70 69 69 69 71 71 71 71 50 53 51

GFSCGP_sfc_dewp_063.txt.gz
Dewpoint
33 29 22 24 26 22 14 14 20 27 48 45 46 50 61 53 52 57 58 57 58 58 59 59 59 59 59 61 64 66 68 73 69 67 66 65 65 66 71 70 71 72 72 73
22 20 22 20 19 18 16 17 19 24 35 46 46 47 50 52 53 56 57 57 57 57 59 59 59 59 58 62 65 69 70 74 71 68 69 67 68 65 66 66 71 72 71 73
25 20 20 20 19 18 17 17 19 25 26 41 44 47 48 58 52 55 56 58 56 57 58 59 60 59 59 62 65 69 72 74 73 72 69 69 69 68 65 69 68 71 72 73
23 22 20 19 17 19 19 17 15 18 26 28 39 40 52 51 51 53 55 56 57 56 59 60 60 60 59 60 64 70 72 74 73 74 69 73 67 64 64 67 66 69 72 72
24 22 21 21 19 18 20 18 15 13 15 27 30 34 46 50 52 50 53 55 56 57 57 59 60 61 60 60 62 66 73 75 74 74 73 69 71 65 64 64 75 77 76 73
24 26 23 21 22 21 21 19 18 16 12 13 26 30 37 42 45 48 51 53 55 56 57 58 60 61 61 61 62 66 73 75 76 75 74 75 73 72 63 66 68 66 68 70
14 18 23 28 23 23 23 20 17 15 13 10 13 24 33 39 46 46 49 52 54 56 57 58 59 59 62 63 64 66 72 75 75 75 73 73 75 75 75 73 66 68 63 63
11 10 15 19 25 24 23 21 18 21 14 12 14 11 23 33 40 46 49 50 52 54 55 57 59 60 63 64 66 67 71 75 75 74 75 74 75 67 67 71 66 64 62 64
8 9 18 19 19 23 25 22 20 17 17 15 12 11 10 26 33 44 52 48 51 53 54 56 58 59 62 64 67 68 71 74 75 72 75 76 74 72 67 73 74 68 72 65
16 17 19 17 23 26 25 24 20 19 22 21 16 19 11 18 26 33 40 42 47 52 54 56 57 59 60 62 64 67 69 73 73 73 74 74 74 74 73 74 76 73 73 74
17 17 17 11 20 23 21 24 26 23 19 19 19 17 22 22 23 31 35 41 44 50 52 54 56 59 60 60 62 64 67 70 71 73 73 73 73 72 74 74 75 75 74 75
21 17 15 14 11 12 15 18 17 23 28 21 20 18 21 22 19 29 34 38 40 44 49 52 54 58 60 62 62 62 64 65 69 71 73 73 74 72 71 73 74 76 76 75
23 20 18 15 13 15 14 20 24 23 21 28 20 20 24 26 26 25 28 33 41 43 48 52 53 56 59 62 64 62 63 63 65 70 69 71 72 72 72 74 74 75 76 76
29 23 23 14 16 18 18 15 21 22 22 23 24 25 26 28 30 32 32 34 38 45 48 47 51 55 59 62 67 67 63 63 63 65 66 70 71 72 71 73 75 75 76 76
26 23 21 17 16 16 16 17 19 21 28 29 26 27 30 30 31 33 36 39 39 42 44 46 47 55 65 66 68 68 65 66 64 67 66 69 72 73 73 73 75 75 76 76
24 22 25 26 22 16 15 14 16 23 26 29 30 32 33 34 39 33 37 41 47 48 44 46 51 55 58 63 68 69 69 67 67 69 67 70 73 74 74 74 75 76 76 77
30 35 27 23 20 18 15 14 12 14 20 23 25 32 35 35 38 43 42 47 48 49 51 53 53 54 56 60 65 67 70 68 69 71 70 71 73 74 74 74 75 76 77 77
33 35 33 30 23 19 17 10 15 18 17 20 24 28 33 35 38 44 51 52 53 53 54 55 54 55 57 56 58 64 66 71 71 71 73 72 74 74 75 76 75 77 77 77
23 26 33 27 21 18 16 32 36 35 32 20 24 28 30 32 33 41 52 54 55 57 59 60 59 59 60 59 59 63 65 71 71 72 72 73 74 75 75 76 76 77 77 77
23 28 32 24 24 20 23 36 36 39 32 43 29 32 35 37 36 38 51 52 54 56 58 60 63 63 63 64 62 60 62 67 71 72 73 74 75 76 76 77 77 77 77 76
35 36 30 26 27 24 24 33 34 35 36 44 43 44 43 42 47 49 50 52 54 56 57 57 63 68 68 67 64 65 64 66 70 72 73 75 76 77 77 78 78 78 77 75
33 33 32 31 27 25 40 35 31 42 44 43 44 44 44 45 45 46 49 50 50 54 55 56 59 66 71 68 67 70 69 70 73 73 73 75 77 74 74 78 78 78 78 77
30 36 36 33 30 39 41 41 43 43 42 42 45 43 45 45 45 46 46 47 48 50 54 55 56 60 63 70 68 71 72 75 74 75 75 75 76 76 76 77 77 75 77 72
39 39 37 37 32 39 40 43 43 46 47 44 45 44 46 46 47 46 47 47 48 50 53 54 56 57 58 61 66 70 73 75 76 75 76 76 75 75 76 73 74 72 71 71
36 35 35 37 37 38 40 42 43 45 47 47 47 47 47 47 48 49 49 50 51 53 53 54 55 56 57 58 60 62 67 72 72 74 73 74 72 73 74 73 72 71 72 67
39 36 34 34 39 39 40 42 43 43 44 45 45 44 45 46 47 49 51 53 54 54 54 56 56 56 57 57 58 59 61 64 73 72 71 69 70 71 71 71 71 53 57 52

GFSCGP_sfc_dewp_066.txt.gz
Dewpoint
35 33 32 31 26 26 21 16 17 22 26 38 40 53 56 57 57 56 56 58 59 58 60 59 59 57 60 63 65 68 70 73 72 72 71 70 69 73 70 71 73 76 75 76
31 31 32 22 25 25 24 21 15 15 21 40 49 53 55 55 53 58 55 55 58 57 58 59 59 57 59 63 66 70 71 73 72 72 73 72 71 71 70 72 74 75 75 76
24 22 26 23 19 20 19 18 16 16 20 36 39 52 54 53 57 62 57 54 56 58 58 59 60 59 59 63 66 69 71 73 72 74 72 75 76 74 71 73 73 75 75 76
28 26 21 19 19 19 18 17 15 15 16 22 27 39 53 54 59 58 58 53 54 57 59 59 59 60 59 63 67 70 72 74 72 75 71 74 71 70 71 73 73 74 76 76
23 24 23 21 18 19 19 19 18 16 16 17 23 25 44 54 52 57 57 54 52 55 57 59 59 60 60 64 66 69 71 74 72 73 74 72 72 70 73 71 75 75 78 77
19 22 21 20 20 19 19 17 20 19 14 13 15 20 28 48 50 53 58 57 53 53 56 60 60 61 61 63 65 68 71 73 73 73 73 74 71 74 72 72 71 73 73 75
7 14 21 25 21 20 21 18 17 17 14 13 13 11 25 36 49 51 53 57 54 56 56 59 61 62 62 62 64 67 71 72 72 72 71 74 72 73 75 76 71 70 71 70
13 9 8 18 25 22 21 20 18 20 14 13 18 15 15 21 47 54 56 59 59 55 56 57 61 62 63 63 64 66 70 71 72 73 71 72 74 70 71 74 71 74 70 71
14 7 9 12 14 21 24 22 19 17 17 15 15 16 17 17 22 48 50 55 58 58 56 58 60 61 64 64 64 66 70 72 73 72 73 71 74 73 70 74 76 72 75 72
19 16 13 13 17 18 18 21 20 19 22 22 18 21 17 24 22 29 49 56 58 60 60 61 59 61 63 64 65 66 69 71 73 72 73 72 70 73 73 71 75 74 75 74
21 19 15 14 16 17 19 21 23 22 22 20 19 19 26 32 27 27 48 53 56 59 60 64 61 60 62 63 65 66 67 71 73 73 73 73 72 71 71 72 71 73 73 78
22 20 17 13 14 13 11 21 21 23 28 26 22 18 22 25 25 24 26 51 52 57 60 62 61 61 61 62 64 65 66 68 72 73 73 73 73 72 71 70 73 75 76 75
25 21 18 17 16 16 14 12 14 16 18 29 25 21 24 28 29 30 26 32 49 59 59 62 65 62 59 61 63 64 66 66 69 73 72 72 72 73 72 70 71 74 74 75
26 21 22 20 21 21 19 14 13 12 15 17 17 24 31 29 29 33 34 37 39 50 55 56 59 61 61 62 64 65 65 65 66 70 71 72 72 72 71 72 71 73 75 74
23 21 21 19 19 17 17 16 16 17 17 22 21 21 28 39 40 39 48 45 41 42 46 53 58 64 70 65 66 66 65 65 66 68 69 71 73 73 73 72 73 73 73 74
29 22 21 19 18 21 21 20 16 16 18 18 18 22 29 36 44 44 48 54 50 52 51 56 58 62 64 66 67 68 67 66 66 68 69 71 72 73 73 73 73 74 74 74
28 32 32 26 20 17 19 20 18 17 18 20 23 25 32 34 42 43 47 52 55 52 55 56 57 58 64 67 69 68 68 68 68 69 70 70 72 72 73 74 73 74 74 74
25 25 34 26 25 22 20 22 19 17 18 17 20 24 28 32 39 40 44 50 57 57 58 60 57 59 61 68 70 68 69 70 71 69 71 71 72 72 73 73 73 73 74 74
24 24 34 29 21 22 21 22 29 34 30 19 35 36 28 23 27 41 53 58 58 56 57 58 60 62 66 66 65 67 69 70 70 71 70 72 71 72 73 73 73 73 73 74
27 26 34 31 23 20 21 35 33 32 27 42 43 43 43 44 23 45 51 52 53 55 56 58 58 59 64 67 65 64 66 70 69 69 71 72 71 72 73 73 74 74 74 73
34 35 31 31 28 21 30 36 37 29 32 42 42 44 44 45 50 52 49 51 51 52 55 57 59 61 65 67 69 68 67 66 71 71 71 73 75 73 74 75 75 75 75 74
32 32 33 32 32 23 39 34 33 42 43 40 42 43 44 45 46 46 48 49 49 50 53 56 57 59 62 65 67 69 70 70 72 73 72 74 74 74 73 76 76 76 76 75
34 37 36 35 31 42 41 40 41 42 42 43 45 42 44 44 46 48 47 48 48 50 53 54 56 57 59 62 63 65 71 74 73 74 74 74 76 75 75 76 76 75 76 74
36 37 36 36 32 38 39 38 42 42 43 44 47 45 46 46 47 48 47 48 49 51 52 52 54 55 56 59 61 62 66 69 74 73 75 74 76 75 75 74 75 75 74 74
37 37 35 36 37 39 40 41 40 41 43 44 46 46 46 47 47 48 49 50 51 52 52 53 54 55 56 57 58 59 62 66 71 75 75 74 74 74 75 74 75 74 75 73
39 36 34 34 37 38 38 41 41 41 42 44 45 45 45 46 47 48 49 51 53 53 53 54 55 55 55 56 56 59 62 64 68 74 73 72 72 73 73 73 72 53 56 53

GFSCGP_sfc_dewp_069.txt.gz
Dewpoint
35 32 34 34 31 28 27 26 23 21 25 30 48 56 55 56 59 63 63 59 59 59 60 59 56 57 62 63 63 66 67 68 71 71 69 69 68 69 70 72 73 73 74 70
36 32 33 33 31 29 25 24 24 23 19 40 55 55 56 55 59 61 62 59 58 59 59 58 56 57 60 63 62 66 68 69 70 70 70 68 68 70 69 70 71 73 73 72
27 31 33 32 31 23 22 24 22 22 19 40 52 52 54 55 57 60 63 63 59 58 58 58 56 58 60 62 64 65 70 69 70 69 69 70 70 71 68 70 70 73 73 73
29 28 24 28 28 24 18 20 20 17 16 16 35 42 52 53 55 59 62 60 58 58 58 58 56 57 60 61 65 66 70 69 69 70 67 68 67 66 69 69 71 73 72 73
25 27 28 25 23 20 19 22 20 20 17 16 14 17 50 51 53 56 57 56 58 59 57 57 58 56 60 62 64 67 70 69 68 70 67 68 67 68 68 69 70 72 73 73
18 19 20 23 24 22 21 19 19 19 19 17 15 15 49 50 52 52 54 54 58 58 58 58 58 58 60 63 63 67 70 68 68 69 71 68 67 68 68 68 70 71 73 74
13 6 9 16 23 21 20 25 18 18 17 16 17 15 13 53 53 52 53 57 57 59 59 58 58 58 58 61 64 66 68 70 68 68 68 72 68 68 70 70 70 70 71 72
13 13 6 13 20 24 22 18 19 16 17 17 19 16 18 44 54 53 56 56 59 63 62 60 58 58 59 62 64 65 66 68 69 67 67 69 71 68 70 71 70 69 70 70
18 16 17 14 14 22 25 24 21 18 18 18 19 19 20 20 49 53 52 54 61 62 62 62 63 58 59 61 63 65 67 67 69 69 66 68 72 67 69 69 71 70 69 70
21 18 18 16 15 17 20 22 18 20 17 18 20 21 23 27 31 51 50 58 57 60 63 64 66 65 61 60 63 64 67 67 69 69 68 66 69 71 69 69 70 70 67 70
24 20 20 19 15 15 17 19 21 22 23 19 17 19 24 25 30 38 51 57 55 58 62 65 66 65 65 64 62 63 67 68 69 68 70 67 66 70 71 68 67 70 70 72
24 19 19 19 20 18 16 15 14 22 22 26 27 25 25 22 24 44 50 56 56 59 62 63 66 65 62 61 62 62 65 68 69 69 69 70 67 68 69 70 68 70 69 70
25 23 20 20 17 18 20 18 16 13 17 17 20 23 28 35 39 44 49 56 56 55 58 58 58 54 58 60 60 62 63 68 69 70 69 70 70 66 67 67 70 67 73 69
30 22 21 18 19 19 20 20 19 17 12 13 15 20 20 37 38 40 42 54 54 56 56 57 54 59 59 65 65 62 63 65 69 70 70 69 70 70 66 66 65 71 70 73
26 20 21 19 18 17 17 18 20 20 18 17 17 17 19 39 39 43 48 54 56 58 58 60 62 62 66 67 69 67 63 64 67 70 70 70 70 70 71 69 68 65 71 69
31 27 27 27 25 19 16 17 20 21 20 18 17 18 26 27 40 41 45 49 56 58 59 63 62 65 67 69 66 67 64 64 65 69 70 71 71 70 70 70 70 67 67 72
27 27 30 25 28 27 21 20 18 19 20 20 16 18 23 24 26 47 53 53 55 58 56 58 60 64 66 66 67 65 67 67 65 66 69 70 71 71 71 71 70 70 67 67
25 26 29 25 29 21 23 25 24 21 20 38 39 31 43 44 43 50 53 55 55 55 57 56 59 60 64 67 67 67 69 69 68 66 67 69 70 70 71 71 70 70 71 69
29 29 29 27 25 22 21 18 34 33 32 40 40 42 43 45 45 49 51 53 52 51 54 57 57 58 61 67 69 68 68 67 66 67 67 69 69 70 70 70 70 70 70 71
32 33 33 30 26 23 30 33 34 33 29 40 39 40 42 43 44 46 49 51 50 51 52 55 57 58 59 64 66 68 63 62 62 67 69 69 69 70 70 71 70 71 70 69
33 33 30 29 29 27 33 34 34 27 33 40 40 41 41 42 45 47 48 48 49 50 52 55 56 57 58 60 62 64 65 69 70 70 70 70 69 69 70 70 70 70 70 70
34 34 31 31 27 25 40 38 36 40 41 40 41 42 42 43 44 45 48 48 48 49 52 53 53 55 56 58 58 60 62 64 66 69 71 71 71 69 71 70 71 71 70 70
31 35 32 35 36 41 43 40 40 40 39 40 41 42 46 44 45 47 47 48 49 50 52 52 52 54 55 56 56 56 58 61 63 65 70 71 71 70 69 71 71 71 71 71
35 37 34 33 33 37 39 39 40 40 40 40 41 44 45 46 47 46 48 49 49 51 52 52 53 53 54 55 56 56 58 60 61 64 69 72 72 71 70 72 72 72 72 72
37 37 35 35 36 37 38 38 41 40 40 42 42 44 44 44 45 47 47 48 50 52 52 52 53 53 53 55 55 56 57 58 60 61 68 73 71 71 72 72 72 72 72 71
37 35 33 32 38 38 38 40 42 40 40 42 43 43 44 45 45 47 47 49 50 52 54 53 52 51 52 53 53 55 57 58 59 60 67 71 71 73 72 72 69 52 54 56

GFSCGP_sfc_dewp_075.txt.gz
Dewpoint
32 29 30 32 35 35 32 29 27 28 28 26 55 56 59 62 62 61 60 59 58 59 60 56 58 60 62 63 65 66 67 66 68 67 67 67 68 69 71 71 71 72 72 71
34 31 32 34 36 34 33 30 29 28 39 43 57 56 59 61 61 62 61 60 58 58 59 56 59 60 61 63 64 66 66 66 67 67 68 67 68 69 70 71 71 72 71 70
33 35 37 34 33 33 33 30 29 28 36 55 54 56 58 59 61 62 63 62 60 58 58 56 59 60 60 62 64 66 65 66 67 67 68 68 69 69 69 69 71 72 71 69
34 36 34 32 33 32 30 31 29 25 20 17 48 47 54 55 57 59 62 62 61 58 58 58 58 60 60 60 63 65 66 66 67 67 67 67 67 67 67 68 69 71 73 70
31 27 30 27 26 31 30 31 26 23 19 18 24 26 43 54 54 58 61 61 62 61 58 59 56 60 60 60 61 63 66 66 67 67 66 67 67 67 67 68 68 70 72 71
13 16 26 29 29 28 28 27 20 20 18 15 16 16 24 50 53 54 60 62 62 61 61 59 57 60 60 61 62 64 65 66 67 67 67 67 66 66 67 67 68 69 70 72
14 16 16 15 14 21 20 19 16 16 15 14 18 16 18 46 52 53 56 60 62 60 61 59 58 58 60 60 62 64 65 65 67 67 66 66 67 66 67 68 68 69 70 71
12 11 17 19 18 17 22 18 17 13 15 16 20 15 18 24 31 49 54 58 61 61 62 60 59 56 59 61 61 65 65 65 66 67 67 66 66 66 67 68 68 69 70 70
15 16 21 21 19 20 20 22 24 18 22 17 18 20 24 38 44 49 52 56 61 62 60 61 61 58 58 60 61 64 66 65 66 66 66 67 66 66 66 68 69 69 69 70
20 13 20 21 19 20 17 17 17 19 17 16 19 20 29 38 43 50 53 53 58 61 60 60 61 59 60 60 61 62 65 65 66 66 66 66 68 68 67 67 69 70 69 69
24 18 15 19 19 18 19 18 18 19 21 18 18 23 30 40 44 52 55 56 55 59 60 61 61 62 61 60 60 61 63 64 65 65 66 65 66 69 69 67 67 68 70 69
25 20 18 19 21 20 18 18 18 16 16 18 23 26 24 25 41 51 55 57 57 59 61 62 63 64 64 61 61 61 62 64 65 65 65 65 65 66 69 68 67 67 68 69
23 21 17 14 16 20 18 18 21 19 18 17 16 18 22 33 32 46 55 58 59 61 62 63 64 65 64 63 63 64 62 63 64 66 65 65 64 64 65 68 69 67 67 68
29 21 19 17 19 20 22 24 20 19 18 18 19 19 29 40 45 51 55 57 59 61 61 63 62 63 64 63 63 64 64 65 64 65 66 66 65 64 64 64 67 69 67 68
21 22 26 23 26 26 25 24 24 19 19 18 20 20 41 43 47 49 52 56 58 58 59 61 63 64 65 64 62 63 66 66 66 65 66 66 66 65 64 64 64 67 69 67
28 26 27 25 27 25 23 23 22 21 22 22 25 30 42 43 47 47 49 52 55 58 59 60 61 64 66 66 65 66 66 68 67 66 66 68 67 67 66 64 63 65 67 68
25 25 25 20 27 22 15 19 20 23 33 29 32 38 42 42 45 45 46 46 49 52 57 58 60 61 64 65 65 66 66 67 67 67 67 67 68 69 69 67 65 63 64 65
24 25 26 22 24 18 18 25 27 38 38 39 39 40 41 41 44 44 47 47 47 49 55 57 58 58 61 62 62 64 68 67 68 67 68 68 69 68 69 69 68 65 64 64
26 26 24 22 21 22 24 28 31 32 36 39 39 40 40 40 42 45 44 47 48 49 53 55 55 57 58 59 59 62 66 67 67 67 67 68 70 70 69 69 69 69 67 66
32 31 28 24 19 20 25 37 39 38 32 40 40 40 41 41 38 43 44 46 48 50 52 52 54 54 54 57 58 60 61 63 62 65 67 68 69 71 72 70 70 71 71 69
25 29 25 24 22 27 37 38 39 27 28 39 40 40 39 39 41 43 45 46 48 49 52 53 53 53 54 55 55 57 58 58 60 62 63 65 66 68 69 71 72 71 71 71
25 27 26 29 22 22 38 37 33 36 37 38 39 38 38 39 39 40 44 47 47 49 51 52 52 54 54 54 53 54 55 57 59 60 62 63 65 67 70 70 70 72 71 70
25 29 24 30 29 39 39 38 38 38 36 37 38 38 38 38 37 39 41 44 46 48 50 51 52 53 53 53 52 51 52 56 58 58 58 61 63 65 67 70 70 71 72 70
29 36 30 30 28 34 35 37 38 38 38 39 36 37 39 38 40 39 42 44 45 47 48 51 52 52 51 51 51 51 52 54 55 57 57 58 61 62 66 70 72 71 71 70
30 36 29 28 30 32 36 37 39 39 40 40 39 39 38 38 39 41 42 44 45 45 47 49 52 51 50 50 50 51 52 52 52 54 55 57 60 61 63 66 72 72 72 70
35 32 29 27 30 31 32 36 38 40 40 41 40 41 41 40 41 42 42 43 44 44 46 49 52 50 49 49 49 51 52 52 52 51 53 56 57 59 62 65 70 54 56 56

GFSCGP_sfc_dewp_078.txt.gz
Dewpoint
31 28 28 30 34 35 33 29 30 30 29 31 50 55 60 63 62 62 61 59 59 60 61 60 60 62 64 65 66 66 67 68 68 68 68 68 68 70 71 72 71 72 72 72
32 28 32 33 35 35 34 31 30 30 41 42 54 55 59 61 61 62 62 60 59 59 60 58 59 60 62 64 66 66 68 67 68 69 68 68 69 70 72 72 72 73 73 72
31 33 34 34 33 33 34 32 30 29 33 55 53 53 57 60 61 62 63 62 60 59 59 57 57 59 62 63 65 66 67 67 69 69 69 69 70 70 71 71 71 73 73 71
33 36 36 35 34 32 31 32 31 30 21 17 48 39 52 56 58 60 61 63 61 59 59 57 58 59 61 63 65 66 67 67 68 68 68 68 68 68 69 70 71 73 73 71
34 30 33 30 29 32 31 32 30 27 21 18 28 32 42 54 54 56 59 61 62 61 59 57 58 60 61 63 64 66 67 67 68 68 68 68 68 68 69 70 70 71 73 73
20 17 28 31 30 31 29 23 20 20 18 15 18 20 19 49 53 54 57 59 62 62 60 59 58 61 61 62 64 66 67 67 68 68 67 68 68 68 68 68 69 69 71 72
13 16 17 17 13 22 22 20 17 16 15 15 18 17 27 28 37 49 52 58 62 62 62 61 57 59 61 61 63 64 66 66 67 67 67 67 68 68 68 68 69 69 70 71
11 12 18 19 17 19 21 19 17 13 15 16 22 16 30 41 47 52 54 56 61 62 62 62 59 59 61 61 62 63 65 66 67 68 67 67 68 67 68 69 69 70 70 71
15 16 21 20 20 19 22 20 23 18 21 16 19 30 32 34 42 52 55 55 59 62 63 62 62 58 61 61 62 63 64 65 66 67 67 67 67 68 67 69 70 70 71 71
21 14 19 20 20 20 17 20 19 20 16 16 19 28 28 25 28 40 53 55 57 59 63 62 62 59 60 61 61 63 64 64 65 67 67 67 66 67 68 68 69 70 71 71
25 14 16 20 19 17 17 17 18 20 20 17 22 25 25 27 36 36 53 56 59 59 62 62 62 63 59 60 61 62 64 65 65 66 67 67 68 67 67 67 69 70 71 71
24 19 18 19 21 20 19 18 19 16 15 19 23 20 24 41 47 51 55 57 60 60 61 62 63 64 63 61 61 61 62 65 65 66 67 67 68 68 68 67 68 69 70 71
24 20 15 17 17 20 22 21 19 19 19 18 21 23 28 45 48 49 52 57 58 61 62 62 65 65 65 65 65 65 64 64 65 67 66 66 66 67 68 68 68 69 69 70
28 20 16 14 17 22 24 24 21 18 17 18 19 23 35 43 46 47 49 54 57 59 60 63 64 64 64 65 65 66 66 67 65 66 66 66 66 66 66 68 69 68 69 69
22 24 25 25 26 26 25 23 23 20 21 18 19 26 40 43 46 47 47 49 52 56 57 58 60 65 66 67 66 66 66 67 67 66 66 66 66 67 66 67 68 69 69 69
27 28 26 25 27 24 23 23 23 22 22 22 25 34 42 44 47 46 46 47 50 53 55 56 57 58 61 61 63 65 67 68 67 66 66 68 68 68 67 67 67 68 69 69
25 25 24 19 27 22 18 22 22 26 32 27 25 35 41 41 44 45 46 47 48 51 54 54 56 57 58 59 60 62 64 68 68 68 67 68 69 69 68 67 67 66 67 69
24 25 25 21 21 12 15 25 25 34 39 40 40 40 40 40 40 43 44 45 46 48 52 54 54 56 57 59 58 61 63 67 68 68 68 68 68 69 69 69 67 66 66 67
26 26 24 22 21 21 23 35 35 34 34 40 39 40 40 40 40 43 43 43 46 47 50 54 53 55 57 57 57 59 62 61 62 64 67 69 70 69 69 69 70 69 67 66
32 29 27 23 19 19 24 37 38 38 31 39 40 39 38 38 32 43 42 42 45 48 49 52 53 53 53 56 56 57 59 59 59 60 62 64 66 69 70 69 70 71 70 68
25 27 24 24 21 25 36 37 39 27 28 39 38 39 38 37 39 40 40 40 42 45 47 50 52 53 54 55 54 55 56 56 57 59 61 62 64 66 68 70 72 71 71 71
24 23 28 28 23 22 38 36 33 35 37 38 38 38 37 38 38 38 38 39 41 43 45 47 49 51 54 55 52 52 53 55 57 58 60 61 63 64 66 67 69 71 72 71
24 27 25 27 27 36 38 35 39 38 37 37 38 36 36 37 38 38 38 39 39 41 44 47 46 48 52 54 52 50 52 55 56 57 58 59 61 63 65 66 67 69 71 72
28 32 26 27 26 32 36 36 38 38 37 38 39 37 36 36 37 37 37 38 39 41 43 45 46 46 49 52 52 52 52 53 54 54 56 56 59 59 62 65 67 67 70 71
29 32 29 27 30 31 33 37 38 39 40 40 40 39 39 40 40 40 39 39 40 41 43 44 46 46 47 51 52 51 51 53 51 53 53 54 57 58 59 61 64 65 68 70
33 31 27 27 30 31 31 37 38 38 38 39 41 40 41 41 41 40 39 41 42 42 43 44 44 45 46 50 50 50 51 51 50 50 50 53 54 57 58 59 60 58 55 54

GFSCGP_sfc_dewp_081.txt.gz
Dewpoint
28 31 32 39 39 36 33 31 30 30 38 42 44 47 55 62 61 62 61 60 59 59 62 63 64 64 64 65 66 68 70 72 71 70 68 69 69 70 72 72 73 73 74 74
26 27 34 37 35 36 35 34 32 31 47 37 52 54 56 59 59 61 62 60 60 60 60 62 63 63 63 64 66 69 70 72 71 70 70 70 71 71 72 73 73 72 73 74
23 28 35 35 35 36 35 36 32 30 31 54 52 52 56 60 61 62 62 61 60 60 60 61 62 62 63 64 66 68 70 71 72 72 71 71 72 72 71 71 72 73 74 74
28 35 35 33 33 35 36 34 33 31 27 21 50 31 53 57 59 60 62 62 61 60 61 62 61 61 62 64 66 69 70 71 71 73 71 72 69 68 68 70 72 72 74 74
32 35 38 37 35 34 34 33 32 31 27 22 35 34 34 55 55 57 58 60 62 61 60 61 61 61 61 63 65 67 70 71 72 72 73 71 71 69 70 70 73 74 75 75
22 23 32 34 33 33 31 26 24 23 22 19 24 30 38 42 46 50 54 58 60 63 61 61 62 62 62 63 64 66 70 71 72 72 72 73 73 71 70 71 70 70 71 73
16 17 18 19 27 30 29 26 22 21 19 18 22 28 42 44 48 53 54 54 55 61 62 61 61 61 63 63 64 66 69 70 71 71 71 72 72 73 73 72 70 71 70 70
21 16 18 21 20 24 29 26 20 21 18 18 23 29 36 32 39 46 55 57 58 59 62 62 61 62 63 64 65 66 68 70 70 70 72 73 73 69 69 72 69 69 69 70
17 16 20 21 21 21 23 23 21 19 20 17 21 30 35 37 45 51 56 58 59 59 62 62 63 61 63 64 65 66 68 69 69 69 71 72 72 71 70 72 73 70 73 70
21 17 20 19 19 20 23 21 20 23 22 19 27 28 26 42 49 53 55 57 60 60 60 63 63 62 62 63 64 65 67 68 70 69 70 69 70 71 71 72 73 72 72 73
21 18 20 20 20 20 20 20 23 23 22 20 23 25 37 48 51 51 54 58 60 62 60 62 64 64 65 62 63 64 65 66 67 68 70 70 69 69 70 70 71 72 73 74
24 20 19 18 21 22 20 21 21 21 25 25 24 22 44 49 51 51 53 57 59 62 64 64 64 64 63 64 64 63 64 64 66 68 70 70 70 70 69 70 70 72 73 73
25 21 18 17 18 22 22 22 21 20 23 26 20 21 44 49 51 51 52 56 57 58 59 60 65 66 65 63 64 64 64 63 64 67 67 68 68 69 69 69 70 71 71 72
27 23 21 12 21 23 21 19 21 19 19 23 22 24 37 47 49 49 52 54 54 54 55 57 58 61 62 66 67 66 66 66 65 65 66 67 68 68 69 71 71 70 71 71
27 25 26 26 24 23 22 19 18 18 21 20 23 25 40 46 48 48 50 53 53 53 53 54 56 57 60 60 62 65 67 68 66 66 66 67 69 70 70 69 71 71 71 71
29 28 28 25 25 23 21 21 20 19 19 21 22 29 42 46 47 47 48 49 50 51 52 53 53 55 57 57 58 62 65 68 69 68 66 69 69 71 70 71 70 72 72 71
28 28 28 22 26 20 15 19 20 21 27 24 17 33 42 42 43 45 46 47 48 49 51 53 53 53 55 56 56 59 62 66 69 68 69 70 70 70 71 71 71 71 71 71
28 28 30 24 23 13 21 26 28 25 33 38 39 40 40 40 39 44 42 42 45 48 50 51 51 52 54 55 56 57 60 62 64 69 69 70 70 70 71 71 70 71 70 70
29 28 29 26 18 21 21 33 33 31 29 40 40 41 39 39 37 44 42 41 41 42 46 48 50 51 53 54 57 56 56 58 59 60 64 65 66 70 70 71 71 71 70 70
31 32 30 29 23 17 25 36 37 38 27 39 40 39 38 38 33 40 40 39 39 40 41 44 46 48 50 53 54 55 53 53 55 57 60 63 65 66 67 71 72 72 72 70
34 35 30 29 27 25 32 36 38 26 30 39 39 39 38 37 38 40 40 40 40 41 41 43 44 46 48 51 53 55 55 52 54 56 58 60 62 64 66 68 69 72 73 73
31 32 32 32 29 26 37 37 33 38 39 38 38 37 37 37 38 38 39 39 39 40 41 41 43 44 46 48 51 53 54 55 54 55 56 59 61 62 64 66 67 68 69 72
31 33 35 34 33 40 40 36 38 37 36 37 37 37 37 36 37 38 38 39 40 41 41 41 42 44 45 47 50 51 53 55 54 54 55 57 59 60 63 64 65 68 69 70
35 35 36 32 32 38 38 37 37 39 37 37 37 37 37 36 37 37 38 39 39 40 41 41 42 43 45 46 48 50 53 55 54 53 54 54 54 56 60 64 65 66 68 68
37 38 37 34 32 34 36 36 37 39 38 37 38 37 37 39 38 39 39 40 40 40 42 42 42 42 44 45 47 48 52 54 52 52 51 52 52 54 56 60 61 64 66 66
36 37 37 39 37 36 35 37 39 38 38 39 39 38 40 41 40 39 39 40 42 41 42 45 46 45 44 44 45 47 52 53 51 50 49 49 49 50 53 57 58 55 54 53

GFSCGP_sfc_dewp_084.txt.gz
Dewpoint
25 26 23 28 32 39 38 37 37 46 51 43 42 50 59 62 62 60 59 59 57 54 58 61 62 62 60 62 64 68 69 71 70 69 67 69 68 69 69 70 72 72 73 73
22 23 22 31 38 38 38 35 32 37 37 33 39 41 56 61 60 61 61 59 57 55 58 61 62 62 61 61 63 67 69 71 71 68 69 69 69 69 70 71 73 72 72 73
20 21 28 34 40 36 37 35 32 33 34 40 43 46 49 56 60 60 60 61 59 56 56 61 62 62 62 60 64 67 70 71 72 71 71 72 72 72 71 71 70 71 73 73
20 28 30 33 35 35 33 38 34 30 28 35 42 45 52 53 57 59 60 61 60 60 58 59 61 62 62 61 63 67 70 71 71 73 72 73 67 66 66 68 68 71 73 73
24 27 33 34 33 34 31 37 36 32 29 25 31 33 48 55 54 57 58 61 61 60 60 60 60 62 62 63 63 64 70 72 72 73 73 70 72 66 67 66 73 74 75 74
30 27 36 35 36 35 35 33 33 32 28 25 26 30 39 45 50 51 53 55 60 61 61 61 61 62 62 62 64 65 69 73 73 73 74 74 72 71 67 69 68 68 69 71
26 30 27 28 37 36 32 27 25 28 24 21 26 29 42 44 44 50 53 55 54 61 62 61 62 61 62 62 64 65 69 72 72 72 72 73 73 73 73 71 69 69 67 67
19 19 22 21 28 32 30 25 20 26 21 20 27 32 35 42 48 54 56 57 57 56 60 62 62 62 63 63 64 66 67 71 72 72 73 73 74 70 69 69 66 67 67 68
23 19 19 20 21 24 29 27 22 19 21 18 23 35 37 43 49 53 58 59 60 59 58 61 63 62 63 64 65 67 68 71 71 70 72 73 73 73 69 70 71 67 70 67
24 21 19 18 20 21 27 28 22 20 24 22 23 34 33 44 49 54 57 59 61 61 60 62 62 63 63 63 64 66 68 69 71 70 70 71 72 73 73 72 72 71 69 71
20 22 20 21 21 21 22 23 24 20 21 19 24 26 40 48 51 53 56 58 60 62 63 62 64 64 64 63 64 64 66 68 69 70 70 70 70 71 72 71 71 71 71 72
23 20 19 19 21 22 22 25 26 22 26 23 21 29 44 49 51 53 55 56 57 59 62 62 64 65 66 65 64 64 64 65 67 69 71 70 71 71 70 71 70 71 72 72
25 21 20 17 17 22 22 23 24 24 25 27 19 30 44 49 51 53 54 55 54 55 57 57 60 61 63 66 66 65 64 63 64 67 67 69 69 70 71 70 71 71 72 72
30 23 24 17 22 22 21 19 21 22 21 25 24 37 44 46 48 52 53 54 54 53 54 55 55 57 57 62 66 66 67 65 64 64 66 68 69 69 69 71 70 71 72 72
27 26 26 23 21 19 18 15 17 23 25 25 28 34 42 46 47 49 52 53 53 54 53 52 53 55 57 59 59 63 66 68 69 67 66 67 69 70 70 72 71 70 71 72
27 27 27 24 21 20 17 17 17 18 21 25 28 36 43 46 48 47 49 50 51 52 53 53 53 53 54 55 56 59 62 64 68 69 69 69 70 70 71 72 72 72 72 72
29 27 27 18 22 18 14 17 15 18 20 22 25 37 41 43 44 46 46 48 48 50 51 52 52 53 54 54 55 56 60 62 63 65 69 70 71 71 72 71 72 72 72 72
29 30 26 21 23 12 23 25 20 18 28 28 33 36 38 40 41 44 44 44 44 43 45 48 48 50 53 53 55 57 55 58 59 59 61 64 68 70 71 72 73 72 72 72
30 28 24 22 15 21 21 26 24 22 29 34 35 37 37 39 39 44 43 43 43 43 42 43 43 45 50 51 53 56 56 55 57 57 58 59 61 65 68 72 72 73 73 73
26 33 28 23 26 17 26 33 33 30 24 37 37 38 38 38 30 42 42 41 41 42 42 43 43 43 44 48 48 51 53 54 55 55 58 58 61 63 63 68 71 75 76 72
31 30 27 25 26 23 32 34 35 23 33 39 38 39 39 35 38 41 41 41 41 42 42 43 44 44 46 47 47 49 51 52 55 56 57 58 60 61 62 64 67 71 75 75
32 33 30 29 29 28 35 35 30 40 40 38 38 38 38 38 38 39 40 41 41 41 42 42 43 44 45 47 48 49 51 54 55 56 57 57 58 59 62 64 65 66 70 72
31 32 36 31 33 40 39 38 41 37 34 37 37 36 37 36 37 38 39 40 40 41 42 41 42 44 45 47 48 49 52 53 55 55 56 57 57 56 58 59 63 65 68 69
33 35 35 35 33 39 37 34 35 35 35 36 37 37 37 37 37 38 39 39 40 41 42 42 43 44 46 47 48 49 50 52 53 55 55 54 55 54 55 54 55 61 66 67
39 39 39 38 34 35 37 35 36 37 38 36 36 35 36 38 38 38 39 40 40 42 42 43 44 46 48 49 49 48 49 50 49 53 52 51 49 52 53 53 53 55 58 63
35 38 41 42 36 35 35 38 39 39 38 38 37 36 38 39 38 39 39 40 41 42 42 43 44 44 46 47 48 50 50 50 49 51 49 47 47 48 49 51 51 50 51 50

GFSCGP_sfc_dewp_087.txt.gz
Dewpoint
24 23 24 26 29 33 33 35 38 51 47 47 49 53 60 61 60 59 59 57 57 55 55 55 57 56 57 61 65 67 67 70 69 67 66 73 68 74 75 75 72 72 73 72
21 19 22 21 24 30 35 33 35 46 45 42 44 50 57 59 57 60 59 58 58 56 53 57 59 56 56 60 64 68 69 71 71 68 70 67 72 73 68 70 71 74 71 72
20 19 20 19 25 33 36 34 35 36 38 35 37 48 55 59 59 59 60 59 59 56 52 60 60 59 57 60 62 67 70 72 71 72 69 70 72 73 67 70 68 70 71 71
22 20 21 22 31 33 32 33 32 33 36 34 39 39 50 56 57 59 59 60 59 58 56 59 62 62 58 58 61 67 70 71 71 73 73 75 68 67 70 72 73 70 71 72
21 20 22 26 30 31 27 35 33 31 31 34 37 45 53 54 56 57 60 61 60 60 56 59 60 62 60 58 61 65 70 72 74 74 76 70 72 70 71 72 74 74 74 72
21 20 26 26 29 29 33 33 36 33 29 26 27 35 52 48 51 53 57 60 60 61 61 59 61 63 62 58 60 64 70 73 73 73 73 74 72 72 71 70 68 67 68 70
28 24 29 32 29 31 34 31 30 28 26 22 24 32 48 47 48 50 52 54 57 61 62 61 62 61 63 60 60 63 69 72 72 72 72 73 73 72 72 71 69 70 69 68
23 23 30 34 34 32 32 29 25 27 22 19 24 35 39 46 51 53 56 56 56 55 59 63 61 62 63 63 61 63 68 72 72 72 74 75 74 70 68 70 72 67 72 66
21 21 23 26 31 29 31 27 20 18 20 17 28 39 44 48 51 56 58 60 61 56 58 61 63 65 63 63 63 64 68 71 72 71 73 75 75 74 70 74 71 69 71 71
26 23 20 19 23 26 27 28 22 20 24 21 30 36 37 46 51 55 58 59 62 62 58 61 63 65 68 63 63 64 66 69 71 71 71 71 72 74 73 71 72 71 71 70
23 23 22 20 22 24 26 26 26 21 20 20 27 33 44 49 53 56 56 57 59 63 65 66 68 68 69 63 64 64 65 67 69 71 71 72 71 72 73 72 72 72 71 72
25 21 22 19 22 22 23 25 26 23 26 20 26 36 47 48 53 56 55 56 58 60 62 63 65 67 68 68 67 69 65 64 67 69 71 71 71 71 71 72 72 73 74 72
24 21 21 20 20 22 22 23 25 23 23 29 20 37 47 49 51 55 54 55 55 57 59 58 61 61 62 65 68 68 69 69 65 67 68 69 70 70 70 71 72 73 73 73
36 21 24 20 22 20 23 22 24 23 22 25 27 41 46 48 52 53 54 54 53 54 56 56 57 58 60 62 64 66 66 67 69 70 67 68 70 70 70 72 73 71 74 74
25 24 24 22 18 19 21 20 19 23 25 24 38 41 44 46 49 52 52 53 54 54 53 54 54 56 57 59 60 62 64 67 68 69 69 69 70 71 71 72 72 72 74 74
24 27 26 22 18 16 16 16 17 20 23 25 34 41 44 46 48 48 50 51 51 52 53 54 54 54 55 57 57 59 60 62 65 67 67 69 72 73 74 72 72 73 73 74
30 24 27 20 19 16 14 17 17 17 21 24 33 42 44 45 45 46 47 48 49 50 51 51 51 52 53 54 56 57 59 59 60 61 61 65 67 68 70 73 74 75 74 74
31 33 27 21 25 18 20 22 16 17 21 28 39 42 43 44 44 44 44 44 45 45 46 46 45 47 51 51 53 56 56 59 59 59 59 61 63 65 67 69 73 74 74 74
26 30 24 21 20 20 21 25 19 19 26 27 35 37 39 38 42 43 43 44 44 44 44 45 44 45 49 49 50 52 54 56 57 58 61 60 60 61 63 66 67 72 75 76
23 32 26 25 24 18 25 26 30 22 24 33 34 36 35 35 30 42 44 41 41 42 43 44 44 44 45 48 47 49 50 52 54 56 58 59 61 61 60 61 64 67 71 74
29 29 26 25 25 24 33 31 28 22 33 37 34 37 35 34 42 43 41 41 41 42 42 44 45 45 46 47 47 50 50 51 53 55 56 58 59 60 62 62 63 64 65 69
30 31 27 28 28 27 34 31 27 40 40 38 38 38 37 38 38 38 39 40 41 41 42 42 43 44 46 47 48 49 51 53 54 55 56 57 58 58 56 61 65 64 65 66
32 31 34 28 36 42 39 37 42 39 40 38 37 36 36 35 36 37 39 40 40 41 43 42 42 45 46 48 49 49 52 53 53 54 55 56 57 56 58 58 60 57 64 64
33 34 35 36 36 38 38 37 36 33 35 35 35 34 34 35 36 37 38 39 40 42 42 42 44 45 47 49 49 51 51 51 52 53 53 53 54 54 54 54 53 51 53 56
38 38 36 36 35 37 38 35 35 34 35 34 35 35 36 36 36 38 38 40 40 42 42 43 44 44 45 47 48 49 50 51 50 50 49 50 49 50 52 53 51 52 54 52
33 38 42 43 37 38 36 39 37 38 37 37 36 36 38 38 38 39 40 41 42 42 43 44 44 45 45 45 46 48 49 52 52 50 47 45 46 47 46 46 46 47 48 47

GFSCGP_sfc_dewp_090.txt.gz
Dewpoint
30 24 23 25 32 36 35 36 42 47 52 52 54 56 57 59 56 54 55 54 53 54 55 55 54 55 59 65 68 70 71 74 73 72 72 73 71 75 76 72 72 76 76 74
23 18 22 24 26 31 34 32 45 48 47 57 55 55 57 59 59 59 59 55 56 55 55 55 55 54 57 65 68 71 73 74 74 73 75 74 74 76 74 74 75 75 75 75
21 17 18 20 21 22 28 31 42 44 47 53 55 57 55 58 60 60 58 58 57 57 55 56 57 57 57 64 67 71 73 74 74 76 74 71 72 71 72 74 73 74 75 75
21 18 17 18 17 20 24 33 40 47 37 39 47 49 55 57 59 59 59 59 59 57 59 57 58 59 57 63 66 71 73 73 73 76 76 74 71 70 73 74 72 74 76 75
20 19 17 18 17 22 27 35 39 39 33 30 33 45 53 51 54 57 59 59 59 59 57 57 59 61 59 62 63 69 73 75 73 75 77 74 74 72 71 73 73 76 76 76
20 20 19 21 21 30 30 28 35 35 30 28 37 36 52 53 53 55 57 58 58 59 57 59 61 63 63 59 62 68 73 74 75 75 75 75 74 71 73 75 75 74 74 74
22 19 19 22 24 28 28 28 30 29 26 24 33 35 52 55 57 57 59 58 59 60 60 58 61 62 63 59 63 68 72 73 74 74 74 75 74 75 71 72 69 72 71 71
19 23 19 24 25 27 27 30 28 28 24 22 27 40 46 51 59 58 57 58 62 62 62 59 60 62 64 64 63 67 72 73 74 74 75 76 76 76 72 74 74 70 74 73
21 22 21 28 31 34 27 28 27 24 24 21 35 42 48 53 55 57 58 61 62 63 62 62 61 63 64 63 62 66 72 73 73 73 75 76 76 76 73 75 76 75 75 73
28 27 26 27 28 32 31 28 26 26 27 24 36 41 44 50 54 56 58 59 62 64 66 66 66 64 65 67 68 67 70 72 74 73 74 74 75 76 76 77 74 77 73 70
26 27 22 22 25 27 28 28 28 25 23 22 33 38 47 52 55 56 57 58 59 61 64 66 68 68 69 69 67 68 69 71 72 73 74 74 74 75 76 75 76 76 77 73
27 25 23 19 18 21 25 27 27 25 31 34 44 46 52 53 55 56 56 57 58 59 60 63 64 66 67 66 68 69 70 70 70 72 74 74 74 74 74 75 75 77 77 77
30 23 23 20 19 21 22 23 24 24 26 37 32 40 53 54 55 55 55 55 57 58 59 60 61 62 64 65 64 67 69 69 70 73 72 72 73 74 74 75 75 76 76 76
37 22 28 26 23 21 21 21 23 23 23 28 39 43 50 52 53 54 54 54 55 56 57 58 59 60 61 62 64 65 66 68 70 70 73 72 72 72 73 75 75 75 76 76
23 24 25 28 20 19 18 18 19 23 26 39 44 43 50 51 51 53 54 54 54 54 55 56 56 58 59 60 61 63 63 65 67 67 68 71 72 74 75 76 76 76 77 75
23 25 26 24 19 17 18 18 19 19 21 33 44 47 51 51 52 52 52 52 52 52 52 53 54 56 57 59 58 60 61 63 65 65 65 67 69 71 72 74 76 76 76 76
28 26 25 24 22 18 17 17 17 18 22 39 42 48 48 48 49 49 49 50 50 50 49 49 51 52 53 54 59 58 59 59 61 63 63 65 66 67 68 70 72 75 75 76
32 33 30 24 24 20 20 21 17 18 19 36 43 46 46 45 46 46 46 46 46 47 47 47 46 49 52 49 52 57 59 61 62 61 61 62 63 63 65 66 68 69 71 75
27 31 26 23 23 23 21 23 17 17 21 36 43 45 44 44 44 43 44 45 45 45 45 45 44 46 53 50 53 56 56 59 59 59 61 62 63 63 63 63 64 67 68 70
22 29 29 27 24 21 28 24 24 17 21 30 39 41 41 42 39 41 42 41 41 42 43 44 44 44 46 49 49 51 51 54 56 57 59 61 62 63 63 64 64 65 67 68
26 27 25 25 25 25 31 29 25 20 29 32 36 37 37 39 43 45 43 43 42 42 43 44 45 46 48 48 48 52 52 52 54 56 57 59 61 62 63 64 65 65 64 66
29 29 27 26 26 25 34 29 25 42 41 36 38 38 42 42 42 41 41 42 40 41 41 42 44 45 47 49 50 51 54 56 56 57 57 59 60 58 57 63 63 63 65 66
32 34 35 35 37 41 39 41 41 40 40 40 40 38 39 38 38 39 40 41 41 43 44 43 43 46 48 52 51 51 55 56 56 56 56 57 58 59 60 61 61 59 60 65
33 34 36 37 40 40 38 40 40 39 39 38 37 37 36 36 37 39 40 40 42 42 42 43 44 45 47 49 49 51 53 54 55 55 56 55 55 55 57 55 54 56 55 55
39 37 36 37 36 37 39 36 35 35 36 34 34 34 35 36 37 38 40 42 41 42 42 44 44 44 45 47 48 48 50 51 50 52 53 53 51 53 54 56 55 54 57 54
36 34 40 40 39 40 39 39 36 35 34 35 35 36 37 37 39 39 40 42 43 42 43 44 45 45 45 46 46 48 48 49 47 47 47 49 49 50 50 50 51 49 46 46

GFSCGP_sfc_dewp_093.txt.gz
Dewpoint
29 26 26 27 27 28 35 40 46 53 53 55 57 57 59 60 57 54 53 51 51 51 53 54 58 62 64 64 65 66 66 70 68 71 70 69 69 71 71 71 70 72 71 69
28 26 27 24 25 26 31 34 51 53 55 55 58 57 58 59 56 54 55 53 52 52 53 54 57 61 63 65 65 69 68 70 68 69 71 71 71 72 72 71 71 72 72 72
26 25 27 20 22 23 26 27 47 48 53 57 54 54 57 59 57 58 58 56 54 54 53 54 53 61 63 65 67 70 70 69 70 70 71 71 70 68 71 70 72 72 72 72
24 25 21 17 18 20 20 28 39 49 48 46 51 47 51 56 58 58 57 58 57 55 56 54 53 59 62 64 67 71 70 69 69 72 69 69 65 65 69 71 72 71 71 73
21 21 21 16 17 19 18 42 44 45 43 49 49 49 53 56 56 57 57 58 58 56 57 54 57 57 62 64 66 70 70 70 68 70 71 69 68 70 69 71 71 72 72 72
20 21 20 19 18 17 21 31 39 43 44 37 45 49 51 54 56 59 59 59 59 58 59 58 58 59 62 63 66 68 71 70 70 71 71 70 69 68 69 69 71 71 72 71
18 17 19 19 21 22 25 28 28 35 35 33 36 46 50 55 56 58 58 59 60 61 59 58 61 60 60 61 66 68 70 71 72 71 71 70 71 69 69 69 69 70 71 71
20 18 20 22 23 24 26 27 28 31 28 27 35 46 48 54 55 60 63 63 63 63 62 61 60 60 61 60 64 67 69 71 71 71 71 71 71 71 69 70 70 71 71 70
28 21 22 20 23 23 30 27 27 28 28 26 42 47 51 52 53 58 61 61 62 65 67 65 63 61 61 60 64 67 69 70 70 72 72 73 72 71 71 71 72 70 71 74
33 26 27 20 28 34 39 32 26 28 27 29 42 45 48 53 55 59 60 61 62 64 66 67 67 68 68 69 67 68 70 70 71 70 72 73 73 72 72 72 71 71 71 71
31 30 29 28 28 30 31 31 34 29 29 30 39 44 56 55 56 57 58 59 60 62 64 66 66 67 68 69 69 68 68 69 69 71 71 72 73 73 73 72 73 71 70 71
33 27 27 22 23 30 29 29 30 29 28 38 43 46 57 56 56 57 57 58 60 61 62 64 65 66 66 67 69 69 69 69 70 70 70 71 73 73 72 73 73 72 71 71
29 32 28 26 28 20 20 24 24 24 33 35 34 46 59 57 55 55 56 58 58 59 60 61 61 63 64 65 66 68 68 69 70 69 70 71 73 72 72 73 73 73 73 72
42 26 33 30 28 22 21 22 23 29 28 37 39 50 53 54 53 53 55 56 56 57 57 58 59 59 61 63 63 64 66 68 69 68 69 69 69 70 71 74 74 74 74 73
31 29 28 29 29 19 19 19 21 24 39 37 43 50 52 53 53 53 54 54 54 55 56 56 57 58 59 60 61 62 64 66 66 67 68 68 69 70 69 70 73 73 73 74
26 31 26 28 23 19 17 19 20 21 42 42 46 51 54 54 53 53 53 52 52 52 52 54 56 57 57 57 58 60 62 64 64 64 66 67 68 68 68 69 70 72 71 72
30 31 26 22 28 24 18 20 19 19 40 46 47 51 54 51 50 50 50 49 48 48 49 50 50 50 50 56 58 58 59 60 62 63 63 64 66 65 66 67 68 68 69 72
32 32 33 28 30 21 23 25 23 22 38 49 52 52 52 51 50 48 47 47 47 47 47 47 49 50 50 51 53 59 60 61 61 61 62 63 64 64 64 65 65 66 67 68
26 32 30 26 25 25 26 24 22 26 44 49 50 50 44 44 44 44 45 46 46 46 45 44 48 50 50 50 50 54 56 56 56 57 58 60 62 62 63 63 64 65 66 66
26 33 29 30 31 24 30 29 28 27 41 45 44 42 42 42 40 42 44 43 43 44 44 45 46 48 49 48 50 51 53 53 54 55 55 58 59 59 60 62 62 63 64 64
27 30 26 26 30 31 34 28 26 22 35 47 46 44 43 43 44 43 44 43 43 45 43 45 47 48 49 50 51 51 52 52 53 54 55 56 57 58 57 59 59 59 60 63
32 30 30 29 28 29 37 30 34 42 42 43 44 44 44 43 43 44 44 42 42 43 44 45 47 48 50 49 49 50 50 51 53 54 53 54 55 55 55 57 59 59 59 59
33 37 37 39 39 42 44 42 42 42 42 42 41 42 42 41 42 42 42 43 44 44 44 44 45 47 48 49 48 48 50 50 51 52 53 54 53 54 55 57 55 55 57 55
38 39 37 39 41 41 42 42 42 41 39 39 39 37 39 39 40 42 42 43 42 43 43 45 45 45 46 47 47 47 48 49 48 47 48 49 50 50 51 53 54 54 53 53
42 41 37 38 43 42 41 40 37 41 39 39 38 36 40 40 40 41 42 42 42 43 44 44 44 44 45 46 47 46 46 47 45 45 45 46 46 46 47 48 49 50 51 49
44 42 41 40 41 41 43 41 39 38 38 37 37 38 39 41 41 43 43 44 42 43 44 44 44 45 46 45 43 45 45 46 46 45 44 44 44 45 46 47 47 48 47 46

GFSCGP_sfc_dewp_096.txt.gz
Dewpoint
34 26 25 26 27 27 27 29 51 55 59 56 57 58 59 60 60 57 53 52 52 55 57 59 62 62 63 64 62 64 68 69 70 69 69 69 69 70 70 71 72 72 71 68
28 25 27 28 27 26 28 35 52 55 57 57 55 57 58 60 60 58 54 52 51 53 55 59 61 62 62 64 63 66 68 68 69 69 70 70 70 70 71 70 70 72 70 69
27 27 28 27 27 23 22 24 50 52 52 53 53 54 57 59 59 57 56 54 51 52 53 59 61 61 62 64 66 65 68 66 68 70 70 70 68 68 69 70 70 71 71 72
26 27 27 27 26 21 19 24 46 54 51 49 51 47 52 55 57 56 57 58 54 52 54 59 61 62 61 64 67 67 68 68 70 70 68 67 66 66 68 69 71 71 72 72
23 24 24 24 22 19 17 23 45 50 48 50 50 46 51 54 55 56 58 58 57 54 54 55 60 62 63 65 68 67 68 68 70 70 68 67 64 66 69 70 70 71 70 72
23 23 22 21 21 19 19 43 45 49 45 41 47 48 51 53 55 56 57 58 58 57 58 55 58 62 63 64 68 67 67 66 68 70 69 67 67 68 68 68 70 70 71 71
27 23 21 20 18 22 21 28 32 38 38 35 46 48 48 54 56 57 57 58 62 64 60 59 58 61 63 64 67 69 67 67 68 69 70 69 69 68 69 68 70 69 70 71
26 24 20 20 20 20 24 27 28 32 31 31 45 44 47 56 59 59 61 62 63 63 64 63 62 61 62 64 66 69 69 67 70 69 70 70 70 70 70 69 69 70 70 71
28 23 25 26 22 21 22 28 28 30 31 33 46 48 52 56 58 62 61 61 62 63 64 64 64 64 61 63 66 67 69 69 69 71 70 70 71 70 68 69 69 69 70 71
31 26 27 27 24 32 26 31 26 27 26 33 44 45 47 51 57 60 60 60 63 64 66 66 67 67 68 68 67 68 69 69 69 71 70 71 71 70 70 71 71 71 71 72
32 28 27 28 27 30 31 30 29 28 29 37 40 46 56 56 58 59 60 61 62 63 65 66 67 68 68 69 68 69 69 69 69 70 69 70 72 71 71 71 71 71 71 71
32 28 27 26 25 30 31 29 29 27 27 40 42 48 58 58 58 58 59 60 61 62 63 65 66 67 67 68 69 69 69 69 69 69 70 70 71 71 71 72 72 71 70 70
25 27 28 26 22 20 20 24 24 27 34 34 38 47 58 57 57 58 58 59 60 60 60 61 62 63 65 66 68 68 69 69 69 69 69 69 69 71 71 71 72 72 69 69
42 26 31 27 23 26 18 20 25 25 34 37 43 50 54 55 56 56 56 57 57 57 58 58 60 61 62 63 64 65 67 69 69 69 68 68 69 69 69 70 71 72 72 70
30 27 28 26 26 25 18 18 27 35 36 34 49 50 50 54 54 55 55 55 56 56 55 55 56 58 59 60 62 64 65 66 68 68 67 68 68 69 67 68 69 70 72 72
26 28 26 28 25 27 18 22 30 36 43 48 50 52 54 54 54 53 54 54 54 55 56 56 56 55 56 57 59 61 63 63 65 65 66 67 67 67 67 68 68 68 69 71
29 26 29 27 29 24 19 21 19 35 44 51 48 52 54 53 53 53 52 50 49 49 49 50 53 54 56 57 57 58 60 60 62 62 63 64 65 64 65 65 65 66 67 68
28 30 29 27 29 21 21 25 29 46 49 51 53 53 53 52 51 49 48 47 47 47 48 48 49 49 49 53 58 60 59 58 59 61 63 64 64 64 64 64 64 64 66 66
25 29 28 23 27 28 28 27 25 39 48 52 52 51 50 47 46 46 46 45 44 44 45 48 48 48 48 50 53 54 54 54 53 54 56 59 61 61 63 63 63 64 64 64
24 29 26 27 26 22 30 29 26 42 45 53 52 48 44 44 42 43 45 44 43 44 45 47 47 48 49 50 52 51 51 52 52 52 54 55 56 57 58 59 60 63 63 64
24 27 24 25 27 30 35 33 32 28 36 50 46 45 44 43 43 42 43 42 43 44 46 48 49 49 49 50 49 49 50 50 52 53 53 53 53 53 54 55 57 59 58 58
31 25 26 28 26 23 40 38 37 39 43 49 49 46 45 45 43 42 42 43 43 44 47 47 47 47 47 48 49 48 47 49 50 50 50 51 52 53 53 53 53 53 53 55
32 34 35 36 36 40 41 40 41 42 44 44 47 48 46 44 43 44 43 42 43 43 44 45 45 46 47 47 47 46 46 47 46 46 47 48 47 48 49 51 51 52 52 53
37 37 37 38 40 40 39 39 40 39 39 43 46 45 43 40 42 42 41 41 42 44 44 44 45 44 44 45 45 46 46 46 45 44 45 45 45 45 46 47 48 48 47 47
39 38 35 36 40 40 40 37 39 39 38 36 38 40 41 41 41 41 41 41 42 42 43 43 44 44 44 44 44 44 45 45 45 44 44 44 44 44 45 46 47 47 47 46
42 39 36 35 41 40 39 38 39 37 37 38 39 39 41 41 41 41 41 42 43 43 43 43 44 44 43 42 44 44 44 44 43 43 44 44 43 43 43 44 44 46 45 45

GFSCGP_sfc_dewp_099.txt.gz
Dewpoint
34 31 27 28 27 27 30 30 52 56 61 57 56 57 56 59 59 54 52 55 56 59 61 62 62 65 63 64 66 67 68 69 69 69 68 68 68 69 70 71 71 71 70 70
29 27 27 27 27 27 30 42 53 55 57 57 56 56 58 60 58 55 55 53 56 57 60 61 62 63 63 63 65 67 68 69 68 69 69 69 69 70 69 70 70 71 70 67
29 27 28 27 27 25 24 26 53 52 54 55 55 54 57 59 60 61 56 52 56 56 58 61 62 63 63 62 64 67 68 68 68 69 70 69 68 69 69 69 69 71 70 70
28 29 27 28 27 24 27 30 42 53 49 46 51 46 52 57 58 60 56 53 54 56 59 60 61 61 63 62 64 67 68 66 69 69 68 67 67 66 68 68 70 70 71 71
25 25 26 26 25 22 21 30 45 50 50 47 48 45 50 53 53 57 56 57 52 55 59 60 60 61 62 63 64 67 67 67 69 69 68 67 66 66 67 69 69 69 70 71
24 25 24 24 24 22 29 45 48 49 47 42 45 46 49 52 52 57 57 58 56 53 58 61 61 61 61 65 65 67 67 68 69 68 68 66 65 66 67 67 69 69 70 70
26 27 25 21 20 21 23 42 40 39 40 37 46 47 46 54 54 56 57 59 58 56 58 58 60 61 61 65 66 66 66 67 69 69 68 67 66 68 67 67 69 69 69 70
25 24 23 21 20 17 23 33 34 32 33 36 47 43 48 57 56 58 58 60 63 61 63 60 60 62 62 64 67 65 66 65 67 69 69 69 68 68 69 68 69 70 69 70
27 26 27 21 21 22 24 24 29 32 32 35 44 47 52 58 59 58 61 62 63 63 64 64 64 65 63 63 67 67 66 65 67 68 69 69 69 69 68 69 68 69 70 71
27 25 28 28 26 31 22 28 25 27 25 31 42 43 46 55 58 59 59 61 63 65 66 65 65 65 65 65 66 68 69 68 68 69 69 69 69 70 69 69 69 69 69 70
35 29 27 28 26 30 31 29 29 28 33 33 38 43 54 53 58 58 60 61 62 63 65 66 67 68 67 69 69 69 69 69 69 70 69 69 70 70 69 70 70 71 70 70
31 29 27 26 28 27 31 29 29 26 31 40 42 45 58 58 58 59 58 61 61 63 64 65 67 68 67 68 68 68 68 68 69 69 69 70 70 70 70 70 70 71 70 70
25 27 26 25 22 25 19 21 32 29 35 39 39 46 58 58 58 59 58 60 61 61 61 63 63 65 67 68 68 68 68 69 69 68 68 69 69 69 70 70 70 71 70 69
37 28 29 24 24 27 18 19 24 25 27 38 42 50 55 56 57 57 58 58 58 59 60 61 61 62 64 66 67 68 68 69 69 69 68 67 68 66 67 68 69 70 71 69
30 25 28 28 26 28 20 21 24 25 32 33 47 50 53 54 55 56 56 56 55 55 56 58 58 59 61 63 64 65 66 68 69 68 68 67 67 68 68 67 68 68 69 71
27 29 27 29 28 27 21 23 27 42 48 48 49 51 55 56 55 55 55 54 54 54 54 55 57 58 58 60 61 62 63 64 66 66 67 67 67 67 67 66 66 66 67 68
33 26 31 28 29 23 23 23 23 42 49 49 47 50 55 54 54 54 54 54 52 51 52 54 56 58 58 59 59 60 61 61 63 63 64 64 64 64 64 64 64 64 65 66
26 30 30 33 31 25 24 27 45 50 51 51 52 53 54 54 53 53 51 49 48 49 49 49 50 54 57 57 54 54 55 55 56 58 60 61 62 64 63 63 63 63 64 64
26 29 28 24 29 32 30 28 25 40 49 53 52 53 53 51 47 47 47 48 47 47 48 47 49 52 52 52 52 52 52 52 52 52 53 55 58 61 60 59 61 62 63 63
25 27 27 28 23 26 33 33 35 47 46 54 53 52 47 47 45 45 45 45 47 46 47 49 50 50 49 49 50 49 50 51 51 52 52 53 53 53 53 56 58 60 60 60
25 26 22 26 25 29 35 40 39 27 32 53 53 50 48 48 47 46 43 45 46 47 49 48 48 48 49 49 48 48 48 48 49 49 49 50 50 51 51 52 52 52 56 55
31 25 25 26 24 23 39 38 30 36 47 51 51 51 49 48 47 46 46 45 47 47 47 46 46 47 47 47 45 45 45 46 47 47 47 47 47 47 49 50 50 49 48 48
31 33 34 34 34 38 41 40 40 43 47 48 49 50 48 48 47 46 44 45 46 46 45 45 45 45 46 46 45 44 45 45 45 45 45 45 45 46 46 48 48 47 47 46
36 37 37 37 39 39 37 39 40 46 46 48 49 48 47 47 48 45 44 44 43 44 44 45 44 44 44 44 44 44 45 45 44 43 43 43 43 44 45 45 47 47 45 45
37 37 35 36 39 38 38 39 39 41 47 48 48 48 47 47 46 45 44 43 43 43 44 44 44 44 43 43 43 44 44 44 43 43 43 43 42 42 42 43 44 45 45 45
40 37 35 35 39 39 38 38 40 38 40 42 42 43 44 43 42 42 42 42 43 43 44 44 43 42 42 43 43 43 43 42 41 41 42 42 40 40 41 41 42 43 43 43

GFSCGP_sfc_dewp_102.txt.gz
Dewpoint
33 33 34 28 27 29 28 46 53 55 60 56 56 56 56 59 56 58 56 57 58 59 61 63 64 66 66 67 67 68 69 70 69 69 69 69 68 71 71 71 72 71 72 71
29 32 33 31 28 31 37 50 54 56 58 57 56 56 56 59 57 58 56 56 58 59 61 62 64 65 64 65 67 68 69 69 69 69 69 69 70 71 71 71 72 72 71 70
30 31 29 27 27 25 29 38 53 53 56 58 56 55 56 59 58 57 58 56 57 59 61 62 63 64 64 64 66 67 68 69 69 70 70 69 69 70 70 71 71 72 71 69
30 31 27 27 27 29 22 30 52 53 50 48 53 46 55 56 58 59 56 54 57 59 61 62 63 63 63 64 65 67 68 69 69 70 69 69 67 67 69 70 71 72 72 72
28 26 27 26 26 23 25 29 50 52 50 47 48 45 49 57 56 58 58 58 55 57 61 61 62 63 63 63 64 67 68 67 69 69 69 68 68 68 69 71 71 72 72 72
27 26 24 25 26 24 33 49 48 48 47 42 44 44 46 52 54 57 57 56 54 56 60 61 62 62 63 64 64 67 67 67 69 69 68 68 68 67 68 69 70 71 72 72
25 26 25 23 21 23 26 39 40 40 40 39 44 46 44 54 55 57 58 57 54 56 59 60 61 61 62 64 64 67 67 67 68 68 68 68 67 67 68 68 70 70 71 72
24 23 26 23 23 19 28 32 37 32 35 37 47 43 45 56 59 58 58 58 56 58 60 61 62 61 61 64 65 65 67 67 69 69 68 68 68 69 69 70 70 71 71 71
27 26 29 22 20 21 24 30 35 33 31 39 44 47 52 58 57 59 61 61 60 58 60 60 63 64 63 63 66 65 66 66 68 69 69 69 69 69 69 70 70 71 71 72
26 24 28 28 28 32 27 27 26 27 27 31 41 44 44 55 58 59 60 61 62 64 64 64 63 64 65 65 66 68 67 66 68 68 69 69 70 70 70 70 70 70 71 71
34 29 27 28 27 28 29 29 28 29 31 33 37 41 53 54 58 59 60 61 62 63 65 66 66 66 66 68 68 69 69 69 69 69 69 70 70 70 71 70 70 71 72 72
31 29 27 27 28 29 31 29 28 27 31 38 38 42 56 58 59 60 60 61 63 64 65 67 67 66 67 68 69 69 69 69 69 70 70 70 71 71 71 71 71 72 72 72
25 27 27 26 21 27 19 22 32 31 40 39 35 41 58 58 58 59 60 61 61 62 63 64 66 66 67 67 68 68 68 68 69 69 69 69 68 69 69 70 71 72 72 72
36 29 28 24 23 27 26 19 27 27 27 38 39 49 56 56 55 58 59 59 60 61 62 62 62 64 67 67 67 67 68 68 68 68 68 68 67 67 68 69 69 69 71 72
28 26 28 27 26 27 22 24 24 26 30 35 42 49 53 54 55 56 57 57 58 58 59 60 60 61 63 65 66 66 67 69 69 68 68 67 68 68 67 67 68 68 69 69
28 28 28 32 30 24 24 32 30 44 43 47 49 49 54 56 55 56 56 55 55 56 57 58 59 60 61 62 62 63 64 66 67 68 67 67 67 67 66 66 66 66 67 67
32 30 30 27 31 27 25 26 35 34 49 49 47 50 55 54 54 54 54 54 54 54 55 57 58 59 60 60 60 60 61 62 63 63 64 65 65 64 64 64 64 65 65 66
30 31 30 31 30 25 31 31 40 50 51 52 52 54 55 54 54 55 54 52 53 53 54 56 57 56 56 55 54 55 53 54 55 55 57 61 63 62 62 62 62 63 63 65
28 29 31 28 30 33 32 30 30 41 48 53 53 54 54 51 50 49 51 51 49 49 51 53 53 53 53 53 53 52 53 53 53 53 53 55 58 58 58 58 59 61 61 61
25 28 28 27 25 29 36 37 40 46 35 53 54 53 50 51 48 47 48 48 47 49 52 52 51 49 49 49 50 49 49 49 50 50 50 53 54 54 56 58 58 60 60 59
27 26 22 27 26 29 34 39 40 29 31 54 54 53 52 51 51 47 48 47 48 50 50 50 50 49 48 48 47 47 47 47 49 49 49 49 50 51 52 53 53 54 56 56
30 25 26 25 24 20 39 37 31 35 45 54 52 51 49 49 48 48 47 48 48 48 48 48 47 47 46 46 45 45 45 46 47 47 47 48 49 48 49 51 51 50 51 50
30 31 33 32 31 37 41 40 41 43 47 50 51 51 50 48 48 49 49 47 47 46 46 47 45 45 46 46 45 44 45 46 46 45 45 45 46 46 48 48 48 46 48 48
35 37 37 36 38 39 39 41 45 47 48 51 51 51 50 48 49 49 49 46 45 45 45 45 45 44 44 45 45 45 45 45 45 44 44 43 44 43 44 45 45 45 45 45
36 36 36 36 39 39 39 40 42 48 49 49 51 51 49 48 48 49 47 45 44 45 44 45 44 43 43 44 44 45 45 44 43 43 42 41 41 41 42 42 43 43 44 44
40 36 35 36 38 38 38 42 41 44 47 48 49 49 50 49 48 48 48 48 45 44 44 45 44 43 43 44 44 44 44 44 42 41 40 40 40 40 40 40 40 42 42 42

GFSCGP_sfc_dewp_105.txt.gz
Dewpoint
33 38 41 41 31 31 43 42 51 57 59 57 57 57 60 60 59 59 59 59 60 61 62 64 65 66 66 68 69 70 71 73 72 71 70 69 68 71 71 72 73 73 73 73
31 34 40 34 29 30 49 51 52 55 57 57 56 56 60 61 60 58 59 59 59 60 61 64 65 65 65 67 69 71 72 73 72 71 71 70 71 72 73 74 74 73 73 73
26 32 36 31 28 30 33 41 52 51 55 57 55 55 56 59 59 59 58 59 59 59 60 63 64 64 65 66 69 70 72 73 72 72 72 72 72 72 73 73 72 73 73 71
36 31 33 27 27 28 32 32 52 52 49 45 51 46 54 57 58 59 57 56 57 58 60 62 63 64 65 66 68 70 72 73 72 73 72 73 69 73 76 76 72 72 73 72
31 30 29 27 26 28 29 33 52 51 50 49 51 47 51 57 56 57 58 57 55 58 59 61 62 64 64 66 67 69 71 73 72 73 73 70 70 71 74 71 74 73 76 74
28 27 28 28 28 30 47 48 50 51 50 44 46 47 49 55 55 57 58 58 56 57 59 62 62 65 65 66 66 68 71 72 73 73 73 73 72 72 69 70 71 75 72 75
26 25 25 24 24 28 40 42 39 40 42 34 44 47 44 54 55 57 57 58 58 57 59 61 62 63 65 65 66 67 70 71 72 72 72 72 73 73 72 71 70 71 70 71
24 21 26 25 24 23 34 35 32 33 34 35 47 44 45 54 55 57 59 58 59 58 58 60 62 63 64 65 66 66 68 70 71 71 72 72 72 70 70 71 70 70 72 74
25 24 29 24 25 24 25 24 30 33 38 37 45 47 50 56 58 57 57 59 58 58 59 61 63 64 64 65 66 66 68 69 70 69 71 72 72 71 71 73 73 71 73 71
28 24 27 28 23 27 25 25 23 31 33 32 43 45 45 55 55 56 58 59 58 58 61 62 64 64 64 65 66 67 68 68 69 70 71 71 72 72 72 72 73 73 73 74
31 29 29 30 26 23 25 25 28 29 32 30 35 42 52 55 57 59 60 60 60 60 62 64 65 66 68 68 69 68 69 70 69 69 71 72 72 72 73 73 73 73 73 73
30 30 29 28 29 29 30 25 28 23 33 38 40 42 57 56 59 59 60 62 63 62 62 64 66 67 68 68 69 70 70 70 70 71 71 70 71 72 72 72 73 73 73 74
31 30 29 27 23 26 26 24 31 34 37 39 29 39 57 59 60 61 60 62 62 64 65 66 67 67 67 68 68 70 70 70 71 71 72 72 72 72 73 73 73 74 74 74
39 30 31 25 27 28 25 23 28 31 25 33 34 47 55 57 58 60 61 62 62 63 64 64 66 67 67 67 68 68 69 69 70 70 69 70 71 71 71 72 72 72 74 74
31 30 29 27 27 26 29 37 27 28 31 32 39 47 52 55 56 58 59 60 60 61 62 62 63 67 67 68 66 65 68 69 68 68 68 67 68 70 69 70 70 71 72 73
31 33 32 29 28 23 24 36 37 38 37 42 42 47 54 56 57 58 58 58 59 59 60 60 62 63 64 66 65 66 67 68 69 68 68 69 68 69 68 69 68 69 70 71
34 37 34 27 32 30 24 28 42 45 47 47 44 50 56 56 56 56 56 57 58 58 59 59 60 60 61 62 63 63 64 65 64 65 66 67 66 65 66 66 67 67 68 69
35 37 35 34 33 27 30 30 39 48 50 52 52 53 55 55 55 56 57 56 56 57 59 58 57 57 58 58 57 57 57 57 59 59 61 63 63 63 64 63 63 63 65 66
33 35 31 27 30 33 30 31 33 37 40 53 53 54 55 55 55 54 55 56 57 58 56 55 54 55 55 55 56 56 55 57 56 55 56 57 59 60 60 59 60 62 62 64
30 37 30 31 27 28 36 35 38 44 35 53 53 54 54 54 51 50 52 52 54 55 53 53 53 53 52 52 53 52 52 52 50 51 52 55 56 58 59 60 61 61 62 61
31 30 29 30 29 29 35 39 40 30 35 50 55 55 53 54 54 52 51 52 54 53 51 51 50 50 50 50 50 51 51 50 50 50 51 52 54 54 55 55 56 57 56 55
34 30 29 29 28 25 41 39 36 43 45 52 56 55 55 53 53 52 51 53 54 52 51 50 50 49 49 50 49 50 50 51 51 52 52 53 54 51 52 53 53 55 55 55
35 35 37 34 35 43 43 43 45 45 46 51 55 54 52 51 52 52 52 52 53 52 51 49 48 48 48 49 49 48 50 50 50 50 50 50 51 51 52 52 51 49 52 49
39 40 41 41 41 41 42 44 48 50 49 52 54 52 52 51 52 51 51 50 49 49 49 48 47 46 47 48 48 48 48 48 48 48 47 47 47 47 48 46 46 45 46 46
40 41 40 40 42 43 42 44 46 50 52 52 52 52 52 52 51 50 50 49 48 47 48 48 47 46 46 47 47 46 47 47 45 44 43 43 42 43 43 43 43 43 43 42
41 40 43 41 43 44 43 44 44 46 50 51 52 51 51 52 51 51 50 49 49 48 47 47 47 47 46 46 46 47 47 46 43 40 38 38 38 38 39 38 38 42 40 40

GFSCGP_sfc_dewp_108.txt.gz
Dewpoint
23 28 41 43 38 35 44 45 51 55 58 58 58 58 59 59 59 56 56 56 56 57 59 62 62 62 64 67 68 70 70 72 70 69 66 66 65 67 68 68 72 72 73 73
24 23 34 45 38 32 41 43 52 56 57 56 55 57 57 59 58 56 55 54 55 56 58 61 63 63 62 65 68 70 71 73 74 69 69 67 68 67 67 69 71 72 73 74
19 20 40 41 34 32 43 44 48 51 55 56 53 52 58 59 59 57 56 56 55 57 57 60 62 63 63 65 68 70 71 72 73 71 70 71 75 75 74 73 68 70 72 72
20 28 35 40 34 32 34 40 48 50 49 47 52 48 54 57 57 59 57 56 55 56 58 59 61 62 63 64 67 70 71 72 71 74 71 72 70 72 66 68 68 70 73 71
26 27 34 36 37 32 33 34 44 46 44 45 46 46 49 57 56 58 58 56 55 56 57 58 60 62 62 64 66 69 72 73 72 74 74 73 69 66 67 67 72 73 73 72
29 32 33 31 32 30 37 38 42 46 43 36 43 46 49 51 54 52 58 56 55 55 56 58 59 62 62 63 65 67 72 73 73 74 72 73 71 70 72 70 74 68 68 69
29 29 30 30 30 35 39 41 38 38 37 36 41 43 42 50 54 55 53 56 56 55 56 57 59 62 64 64 65 67 70 73 73 72 72 72 72 72 71 71 68 70 68 69
22 23 27 27 27 29 34 39 35 35 34 34 44 40 43 50 54 56 56 56 58 56 55 56 59 61 65 64 65 66 69 71 72 72 72 73 74 68 74 71 68 67 74 68
20 21 24 25 25 24 31 32 34 32 34 35 41 43 49 53 54 55 56 57 57 58 57 57 59 61 63 64 66 67 68 71 71 70 72 73 72 71 75 71 75 69 72 69
25 22 22 23 23 23 24 30 30 31 30 31 38 39 37 52 54 55 55 56 57 59 59 58 59 62 63 64 65 67 68 70 70 69 70 69 70 72 72 72 71 73 73 74
25 25 26 26 23 20 23 23 23 23 27 27 30 36 47 52 54 54 55 56 58 59 60 61 63 64 65 65 67 68 68 69 69 69 70 70 69 69 72 73 70 72 73 75
30 26 25 23 23 21 21 22 22 20 28 30 30 41 55 54 55 57 58 58 59 59 59 63 66 66 68 68 69 69 68 69 70 70 70 70 70 69 68 70 70 72 71 74
31 26 25 25 26 28 25 24 23 21 20 29 26 29 56 57 58 59 60 60 61 61 61 63 66 67 68 69 70 71 71 69 70 70 69 69 71 68 69 70 71 71 72 71
34 27 29 22 27 25 26 24 25 24 23 25 25 33 53 56 58 59 61 62 63 64 65 65 66 67 68 69 69 69 70 70 71 70 70 71 72 69 71 71 72 71 72 72
30 30 29 27 27 26 25 24 24 26 26 25 24 28 39 54 57 59 60 61 62 63 64 66 66 67 68 68 68 68 69 70 70 70 71 71 73 73 72 72 72 72 73 72
29 32 33 27 25 25 25 31 29 25 25 28 29 32 50 55 58 59 60 61 61 63 63 63 65 67 67 67 68 68 68 68 69 68 68 68 70 70 71 71 71 71 72 73
31 30 33 28 28 27 25 30 36 37 39 38 30 45 53 56 56 57 59 60 61 61 61 62 61 64 67 68 66 65 67 68 69 69 68 68 68 67 68 68 69 70 70 71
33 34 32 29 32 27 30 33 36 43 45 46 48 50 54 56 57 58 59 59 59 60 60 59 59 58 63 64 65 65 66 65 65 65 66 67 66 66 66 66 66 67 69 70
34 34 29 27 27 30 31 34 35 37 40 50 50 52 55 56 57 57 58 58 59 59 59 57 56 57 58 58 59 59 58 59 59 60 61 62 63 64 65 65 65 65 66 68
29 36 31 30 28 31 38 34 36 37 37 52 52 54 55 56 54 54 58 58 58 57 55 54 55 55 55 56 57 56 56 57 55 56 59 60 61 61 63 63 64 66 64 61
30 30 30 28 30 30 38 37 37 34 39 44 52 54 56 55 55 57 57 58 57 55 54 54 53 52 53 54 54 53 53 52 52 52 55 57 59 60 61 62 64 63 59 58
32 30 27 29 29 29 43 39 40 46 47 47 52 54 55 56 56 56 57 56 55 54 53 52 51 52 52 52 54 52 53 54 55 55 55 56 56 54 56 60 61 59 58 58
33 35 36 35 36 44 44 44 47 49 50 49 54 54 56 56 55 56 57 54 53 51 51 50 49 51 53 53 54 54 53 54 55 54 55 56 55 56 57 57 57 55 57 54
38 41 39 39 42 42 42 44 47 50 52 54 54 55 54 54 54 55 56 54 52 51 50 50 50 49 50 51 52 52 53 53 53 53 53 53 53 52 52 48 49 49 49 49
39 41 37 36 43 43 43 45 47 49 52 53 54 54 55 55 54 55 56 56 53 52 50 50 52 49 49 50 50 49 50 50 49 49 48 48 47 48 48 45 44 42 42 42
39 37 37 39 45 47 46 46 46 46 49 52 53 53 54 55 54 54 54 53 52 52 50 50 50 50 49 48 48 49 49 48 46 43 41 39 40 40 40 39 36 40 40 39

GFSCGP_sfc_dewp_114.txt.gz
Dewpoint
28 25 22 29 42 43 44 48 53 55 59 57 55 56 57 59 59 54 50 49 55 54 55 55 59 62 61 64 68 70 70 75 72 72 69 71 72 72 70 74 75 75 75 75
20 19 20 28 40 45 43 46 53 57 58 56 55 55 58 59 59 57 53 53 54 55 59 55 58 60 61 66 70 72 73 74 74 74 72 71 74 71 73 75 75 72 75 76
20 17 18 23 36 42 44 43 52 53 57 56 54 53 54 56 59 60 59 54 55 58 60 56 58 59 64 68 69 71 73 74 75 74 74 71 72 74 72 73 73 73 75 75
17 19 17 19 35 42 39 53 53 56 53 49 53 47 53 55 57 60 61 55 57 60 56 57 56 58 60 68 69 72 73 74 73 75 75 72 70 72 73 73 74 73 75 74
12 17 17 18 24 43 41 46 54 53 53 50 51 48 53 54 53 57 59 56 56 58 55 60 55 60 60 62 67 70 74 75 76 76 73 75 75 73 74 74 74 78 77 74
14 17 18 19 31 36 40 48 48 52 53 48 47 46 48 53 52 53 56 57 57 55 56 60 62 59 63 62 66 68 73 74 75 75 74 75 73 71 74 73 74 72 73 74
14 20 22 24 26 36 37 38 45 45 46 44 47 45 47 53 53 51 53 56 56 57 57 57 61 65 64 65 66 69 72 73 74 74 73 74 73 72 74 74 74 72 73 73
16 18 24 25 27 33 32 32 38 37 41 43 47 43 49 51 52 53 53 55 57 57 59 60 58 63 65 64 66 67 72 73 73 73 74 75 75 74 72 75 73 72 72 74
21 14 22 25 27 28 28 30 33 41 47 43 47 51 48 51 51 52 54 56 57 60 61 59 63 62 65 65 65 70 72 72 72 72 74 75 75 75 76 76 70 73 76 73
25 24 18 23 23 23 26 27 28 40 40 36 45 47 51 50 50 52 53 54 56 57 62 61 61 62 62 63 63 69 71 72 71 71 72 72 73 75 76 77 75 75 74 71
25 24 20 23 22 20 19 21 24 25 35 38 37 42 54 54 55 54 55 55 55 53 56 61 63 63 63 63 66 68 69 71 70 70 71 72 71 72 74 74 75 76 72 69
24 21 22 22 20 20 20 20 17 19 29 29 31 33 50 55 57 54 56 56 58 57 58 61 62 63 65 68 68 68 69 68 70 71 71 72 72 72 71 73 74 75 75 74
31 25 20 21 21 23 19 19 19 16 18 28 21 40 51 53 55 55 54 57 59 58 59 60 60 66 68 69 67 68 66 71 71 72 72 71 72 72 73 73 73 75 76 77
38 27 27 25 31 33 32 28 15 15 16 18 17 41 43 44 53 53 55 58 60 61 62 60 65 67 65 67 71 72 72 73 75 73 73 73 74 72 71 73 74 74 76 75
26 27 27 25 28 29 30 31 28 17 21 20 19 40 47 50 53 56 57 59 61 62 64 65 66 68 70 71 71 71 71 69 69 70 70 73 73 72 74 73 73 75 74 75
28 28 27 25 25 30 27 28 28 21 16 19 21 26 45 57 53 55 60 61 64 62 63 65 66 67 68 69 70 69 69 69 69 69 70 71 72 73 71 71 71 74 75 75
39 32 34 30 27 30 26 28 29 26 21 24 24 52 53 50 52 55 61 62 64 64 66 66 67 68 69 68 69 68 68 69 69 70 70 71 71 70 71 70 71 70 73 74
33 34 32 33 37 33 35 39 39 39 46 46 50 55 57 52 49 58 62 62 62 63 64 64 65 66 69 70 67 68 69 70 70 70 70 70 69 68 67 67 68 69 70 71
30 33 28 33 39 37 33 39 38 39 41 46 49 57 49 59 59 59 62 62 62 62 62 61 60 62 62 65 68 69 68 68 68 68 68 68 68 67 66 66 66 68 67 65
29 36 31 33 32 35 44 42 43 40 41 45 47 55 52 58 55 58 61 61 60 59 59 59 57 57 59 61 62 62 61 60 61 63 65 66 66 67 68 67 67 67 65 62
37 37 29 29 35 43 44 45 43 38 45 46 47 55 53 56 59 61 60 58 57 57 56 56 56 56 56 57 57 56 58 57 58 60 60 64 64 64 65 66 66 64 62 60
40 40 35 34 33 33 46 50 47 49 47 47 47 58 57 59 60 59 58 56 55 53 54 54 54 54 55 55 55 54 55 57 58 58 59 60 61 62 64 62 62 62 61 59
28 34 35 43 43 44 43 44 44 45 46 48 50 57 59 59 58 58 57 55 54 52 51 52 53 54 55 55 55 55 57 58 58 58 59 58 60 61 63 62 62 59 59 57
30 35 32 34 40 41 41 42 44 45 44 45 49 52 55 57 57 56 56 55 54 54 52 52 51 53 54 55 55 55 57 59 58 57 58 58 58 52 48 51 58 50 49 58
37 41 35 34 40 44 42 43 42 43 46 46 51 54 56 57 57 57 56 56 56 55 53 52 52 52 53 54 55 57 57 58 57 57 58 56 56 54 48 39 42 42 37 38
34 35 33 37 47 48 47 46 43 41 43 45 48 55 56 58 57 56 55 53 53 54 55 53 53 52 51 51 53 54 57 58 56 56 54 55 58 56 53 46 36 39 39 38

GFSCGP_sfc_dewp_117.txt.gz
Dewpoint
28 25 24 25 28 31 48 52 53 57 59 57 57 55 55 57 59 59 53 48 52 52 55 55 62 62 63 64 66 66 67 70 68 70 67 67 66 69 71 71 71 70 70 71
28 25 26 25 43 47 48 52 53 56 58 56 55 54 56 58 58 60 60 52 53 54 54 60 61 61 62 66 68 68 70 69 69 71 70 70 68 69 71 73 71 71 71 70
21 22 24 20 28 46 50 49 52 53 56 56 54 52 55 58 58 59 60 59 54 56 56 59 59 60 64 67 68 69 70 70 71 70 70 69 71 71 70 71 71 71 70 72
19 20 18 17 18 37 48 55 54 55 52 49 54 46 53 55 56 57 59 61 54 57 56 58 59 61 64 66 68 69 70 70 70 71 69 66 68 67 69 69 71 70 72 71
12 15 16 17 17 47 51 55 53 52 51 52 50 49 51 55 54 55 57 59 59 57 53 57 59 62 64 66 68 68 70 71 70 70 70 69 69 69 71 71 71 71 72 70
12 14 17 19 26 45 54 54 53 53 52 46 48 49 50 52 52 54 56 58 59 60 58 57 61 62 65 66 67 69 70 71 71 71 70 70 68 68 70 71 71 70 70 71
13 12 18 20 42 46 48 46 44 43 45 45 50 49 50 53 53 52 53 57 60 62 57 59 61 61 63 66 67 69 69 70 70 71 70 70 68 68 68 69 70 69 70 71
15 13 22 24 25 41 47 45 43 37 41 45 50 48 49 51 53 52 54 54 58 60 57 58 57 63 63 66 68 68 69 70 69 71 71 71 70 69 71 71 70 70 70 71
21 19 21 24 25 30 34 32 31 45 47 44 48 49 53 51 54 51 53 55 57 57 57 59 63 61 66 63 66 69 70 70 69 70 71 71 72 71 70 71 69 70 72 73
25 25 26 23 25 25 33 28 33 42 40 39 46 46 47 51 50 52 50 53 56 59 61 60 63 62 64 64 64 69 71 70 70 71 71 70 71 71 72 72 68 71 71 68
25 29 26 24 24 22 21 22 27 34 39 39 38 45 53 52 54 56 55 52 54 58 59 60 64 63 63 64 63 69 70 70 70 70 70 70 71 71 71 72 71 72 70 66
30 24 22 21 24 23 22 21 20 20 20 35 40 39 51 53 56 55 57 57 54 58 58 57 61 63 62 63 65 70 70 70 69 70 70 70 70 70 71 70 71 72 67 68
30 31 25 23 30 34 29 26 33 21 17 19 24 41 52 54 51 46 52 58 57 56 59 59 62 66 68 67 69 68 69 69 69 70 70 71 70 70 70 70 70 71 71 71
38 27 28 25 29 31 32 30 30 30 17 20 18 44 48 49 52 53 56 56 57 59 58 60 63 66 67 68 69 67 66 68 67 66 68 70 69 69 70 71 70 70 72 72
27 26 28 26 27 28 29 28 29 31 43 32 33 42 50 56 56 58 62 59 60 60 60 63 65 65 66 66 67 70 70 68 69 69 70 69 70 70 70 71 71 71 72 72
36 33 35 32 31 33 30 34 34 41 44 46 41 51 55 59 56 56 57 64 61 62 65 66 65 64 64 65 66 69 69 69 69 69 68 69 69 69 69 69 70 71 71 70
35 36 35 30 34 33 33 37 38 40 45 47 50 51 51 51 53 53 56 64 64 64 65 66 67 67 65 66 68 68 68 69 68 68 69 70 68 67 67 68 68 70 71 71
35 40 36 32 33 28 42 41 39 41 44 50 53 55 51 51 51 52 59 63 63 63 63 62 63 66 68 70 69 68 69 69 68 69 68 68 67 66 66 66 68 69 69 67
35 35 33 35 37 38 39 41 40 40 46 47 53 55 56 58 59 60 62 62 61 61 60 60 61 62 65 68 69 68 67 68 68 67 67 67 66 65 65 66 66 65 62 61
41 39 36 34 33 32 40 43 45 42 45 50 54 53 51 54 52 57 60 59 59 59 59 58 58 61 61 62 63 62 61 61 62 65 66 67 66 66 65 65 66 64 62 59
37 38 34 33 36 41 46 46 46 37 44 48 53 55 54 52 58 58 57 57 57 56 56 57 56 56 57 58 59 58 58 58 59 61 64 63 64 64 65 65 63 61 59 55
35 37 38 38 35 37 47 47 41 46 49 49 57 57 57 59 59 57 55 54 55 55 55 55 55 55 57 57 57 57 56 58 59 59 61 61 63 64 62 61 61 60 58 56
37 39 39 41 41 48 48 46 47 46 49 47 56 58 56 58 57 57 55 54 53 54 54 55 55 55 55 57 57 56 57 59 59 59 59 59 54 53 59 61 60 59 57 56
43 42 36 43 45 48 44 46 45 46 47 49 55 57 58 57 57 55 55 53 53 53 53 55 55 54 55 55 56 57 58 58 57 57 57 53 48 43 45 46 42 42 41 48
43 42 38 37 46 47 47 45 43 46 47 49 55 58 58 57 55 55 54 54 54 54 55 54 53 52 53 53 55 57 57 58 57 58 57 55 48 44 38 36 44 42 37 38
41 43 39 44 49 48 48 47 47 45 44 47 55 57 58 57 56 55 55 54 54 54 55 54 51 51 52 53 53 54 55 56 55 55 55 56 54 51 48 45 40 40 40 40

GFSCGP_sfc_dewp_120.txt.gz
Dewpoint
26 25 23 25 25 36 52 53 52 55 59 56 56 57 57 57 58 59 59 50 52 54 59 63 64 64 65 65 66 65 68 68 67 69 68 67 67 67 70 70 70 71 70 72
27 25 26 26 26 37 51 50 52 55 57 56 56 55 58 58 57 60 60 58 52 54 60 60 61 63 65 65 66 66 68 67 68 68 69 68 68 68 71 72 71 72 70 72
25 26 27 26 25 43 49 48 52 53 56 56 55 52 55 57 59 59 60 60 54 56 59 60 60 61 64 64 66 67 68 68 70 70 69 70 69 70 70 70 70 69 71 72
23 24 22 25 24 47 47 52 53 54 52 49 54 46 52 55 56 57 59 60 60 57 60 60 59 62 65 65 66 67 69 70 69 70 67 68 66 66 68 69 70 70 70 72
13 14 19 19 18 48 52 53 53 53 51 51 50 48 49 55 54 55 58 59 60 60 59 59 59 62 65 66 66 67 70 69 70 70 68 66 67 67 69 69 70 70 71 70
15 13 14 23 38 49 54 52 53 53 51 45 48 49 48 51 52 54 57 58 59 60 59 59 60 62 64 66 66 68 69 68 69 69 70 68 68 67 69 70 70 70 69 70
16 13 33 53 52 53 52 48 45 43 44 43 51 49 48 52 52 53 54 57 59 60 59 59 61 62 64 66 67 68 69 69 68 69 70 69 68 68 69 70 70 69 69 70
18 11 23 42 48 46 47 42 40 36 40 44 50 46 47 52 51 53 53 57 59 61 59 60 61 63 64 65 68 68 68 69 70 70 69 70 68 67 69 69 69 70 69 69
20 21 24 26 39 44 42 42 43 43 45 43 47 50 53 53 54 53 53 57 59 61 60 60 61 63 65 65 67 68 68 69 68 70 70 70 69 67 70 71 70 69 70 72
25 22 25 25 29 41 35 36 37 43 37 37 45 45 46 47 51 51 52 53 54 59 61 61 60 62 63 66 67 68 69 69 68 69 70 70 70 70 70 70 68 69 70 70
32 24 23 23 23 22 20 21 21 35 39 38 41 44 51 49 53 53 52 53 53 55 59 59 62 63 64 66 67 69 69 69 68 69 70 69 69 70 71 70 68 70 69 66
33 25 25 21 22 31 22 20 19 18 16 38 37 38 48 51 55 55 54 52 52 54 60 61 62 63 64 64 65 69 69 70 68 69 70 69 69 71 70 70 71 72 69 68
28 27 25 25 28 30 32 31 36 23 21 20 29 24 52 51 55 55 55 57 55 55 59 61 62 63 65 65 66 70 70 70 69 70 70 70 69 70 70 69 70 71 68 67
37 25 26 23 27 30 28 30 37 34 38 37 27 27 51 51 52 53 54 57 57 55 58 58 62 64 65 66 68 69 70 69 69 69 70 70 69 70 69 70 70 70 70 70
29 26 31 31 33 37 37 38 42 43 43 43 46 47 51 53 55 58 61 61 59 61 60 58 62 65 66 67 68 68 68 68 68 67 67 68 69 69 69 70 69 70 71 71
33 26 35 32 34 37 37 39 43 44 45 46 50 50 53 56 56 59 61 62 63 62 62 64 64 66 66 68 67 67 68 68 69 67 68 69 69 69 69 69 70 70 70 70
31 31 32 30 34 33 37 39 43 44 50 50 50 53 52 50 53 54 59 60 62 63 64 64 65 65 66 66 69 67 68 69 68 68 68 69 68 68 68 68 68 68 69 67
29 33 34 30 28 27 39 42 42 45 48 52 52 55 55 54 60 61 62 61 61 61 62 61 62 65 66 68 68 69 69 68 68 68 68 67 66 66 66 67 68 68 68 64
35 36 31 33 33 37 41 41 42 43 46 53 52 53 53 53 58 59 60 60 60 60 60 59 60 62 67 68 68 68 68 67 68 67 67 66 66 66 66 64 63 61 62 61
36 37 36 31 31 29 39 43 45 44 42 50 52 51 52 51 48 55 58 57 57 58 57 57 58 59 61 65 67 65 65 66 66 66 66 66 66 65 65 64 62 60 58 55
32 34 32 36 35 39 44 45 46 36 38 47 53 54 52 52 56 57 57 55 56 56 56 56 56 56 58 61 64 61 62 62 63 65 66 66 66 66 65 65 61 59 57 54
29 32 34 35 33 30 46 47 41 44 47 48 55 56 58 58 57 55 53 54 55 55 55 55 56 57 58 59 61 59 59 60 62 63 63 64 64 64 63 61 59 57 54 50
32 35 36 37 37 43 47 43 43 47 48 53 55 57 58 57 57 54 54 54 54 54 55 55 55 55 57 58 59 58 59 60 60 59 56 55 55 54 57 59 59 58 55 53
39 39 39 38 40 44 48 47 45 45 50 55 56 53 56 55 55 52 52 52 53 54 54 54 55 55 55 57 57 58 58 58 57 53 51 49 46 47 48 42 41 43 46 55
41 39 36 40 44 45 47 48 45 46 55 57 58 58 57 55 54 52 51 52 53 53 52 54 53 52 53 54 55 56 57 57 56 54 51 46 42 40 36 39 44 39 38 40
39 37 35 40 44 45 45 45 45 45 51 57 57 57 56 55 53 53 52 53 54 53 54 53 52 52 53 53 53 54 56 56 55 56 54 52 50 46 43 41 40 41 41 41

GFSCGP_sfc_dewp_123.txt.gz
Dewpoint
26 26 24 26 25 38 51 52 53 55 56 54 54 56 57 59 60 59 59 54 58 59 60 61 63 65 65 65 65 63 67 67 68 68 67 67 67 68 69 70 69 69 70 71
23 24 26 25 25 42 51 53 53 55 57 56 55 54 58 59 58 59 60 57 56 58 59 62 63 64 63 64 65 65 67 66 68 67 68 67 67 67 70 71 70 70 70 71
23 25 27 26 27 47 49 50 52 52 56 56 55 52 55 58 58 60 59 60 55 58 59 62 62 63 63 64 65 65 67 66 69 68 69 69 68 69 69 69 69 70 70 71
23 26 25 25 25 40 43 52 52 52 52 49 54 45 52 55 56 58 58 59 55 59 61 61 61 63 63 64 65 67 67 68 69 69 68 67 66 66 67 68 69 69 71 71
17 18 22 21 23 42 49 53 53 53 51 51 50 48 49 55 53 56 58 59 59 59 60 60 60 63 64 64 65 67 67 68 68 68 68 67 66 66 68 68 68 69 70 70
19 18 16 22 35 44 53 51 52 52 49 42 49 48 48 52 52 54 56 58 60 59 59 59 60 63 64 64 65 67 68 68 69 68 67 67 67 67 67 68 68 69 69 70
20 18 50 53 52 52 50 45 41 40 42 40 50 49 48 51 54 54 56 56 60 59 59 59 60 63 64 64 66 68 68 67 68 68 68 68 67 68 68 68 68 68 69 69
18 15 49 48 49 49 48 42 39 34 38 42 50 46 45 49 52 53 55 56 60 60 59 59 60 63 65 65 66 67 68 67 67 68 68 68 68 68 68 69 69 69 69 69
20 22 24 47 47 49 46 41 41 43 43 41 46 49 49 51 51 52 52 55 59 60 59 60 60 62 64 65 67 67 68 67 68 68 68 69 68 66 68 69 69 69 69 70
24 23 26 29 44 45 42 43 37 42 37 35 43 45 44 48 50 53 52 56 58 60 62 61 61 62 63 65 66 67 68 68 68 69 68 68 68 67 68 70 69 69 69 70
31 26 23 24 24 38 23 25 29 36 40 36 38 41 49 48 52 53 54 56 57 59 61 60 62 63 64 64 66 67 68 68 68 68 69 69 69 69 70 70 69 68 70 69
27 25 27 22 24 29 25 25 20 18 16 36 38 34 51 50 54 53 53 55 57 59 59 61 61 64 64 65 67 67 68 68 68 68 70 69 69 69 70 70 69 68 70 68
26 30 27 31 34 30 30 32 32 23 23 23 25 24 53 53 54 54 53 54 56 57 57 60 62 63 65 66 67 68 69 68 68 69 69 69 68 69 69 69 70 70 70 69
36 26 25 23 25 32 38 41 43 36 36 34 32 46 51 55 55 56 57 56 54 55 54 58 60 63 64 65 66 68 69 70 69 69 69 69 68 69 69 69 69 70 69 67
28 27 32 31 38 39 41 42 43 41 41 41 47 47 49 52 57 60 61 62 60 57 60 60 60 63 64 65 65 68 68 69 69 69 69 69 69 69 69 69 70 70 70 70
31 26 35 33 38 40 40 42 44 46 49 50 50 48 52 53 58 58 59 62 61 59 61 60 62 65 65 65 66 68 68 67 68 68 68 67 68 68 67 67 68 68 68 69
31 29 30 29 34 34 34 39 44 46 50 50 46 49 54 56 58 58 59 60 61 62 64 64 64 65 66 67 68 67 68 68 67 67 68 68 68 68 67 68 68 67 68 67
32 33 31 27 27 26 37 42 45 48 50 52 53 54 56 58 59 59 60 59 60 61 61 62 63 65 65 67 68 68 68 68 67 66 68 68 67 67 67 67 67 67 68 64
34 33 33 31 31 36 39 41 41 42 44 51 50 52 52 56 56 56 58 59 59 59 59 59 60 62 66 67 68 68 68 68 67 67 67 67 66 66 66 64 62 61 62 60
33 35 32 34 30 28 35 43 45 44 39 47 52 50 51 51 44 52 57 57 57 57 57 57 58 59 61 65 67 67 67 67 67 67 67 66 66 66 64 63 60 58 55 54
30 35 32 35 33 38 42 44 45 35 36 46 52 52 50 49 52 56 56 55 55 56 56 57 57 57 59 62 66 64 64 63 65 67 67 66 66 66 64 63 60 57 56 55
27 32 32 34 31 29 45 45 39 42 46 48 54 54 55 56 56 54 54 55 55 55 55 56 56 57 58 61 61 60 59 62 64 65 65 65 66 66 65 61 59 55 51 47
30 34 34 35 36 40 46 44 46 47 50 51 53 56 57 56 55 54 52 53 54 55 55 55 56 56 58 59 60 59 59 61 60 60 58 57 56 57 61 60 57 54 50 45
40 39 38 34 38 42 46 46 45 48 52 54 54 55 56 54 54 54 52 51 54 54 54 55 55 54 55 58 58 59 59 57 55 54 52 51 51 51 51 51 51 56 52 50
38 36 39 38 43 44 45 46 45 52 55 55 56 56 55 53 52 50 49 50 53 53 54 54 52 53 53 54 55 57 57 55 53 51 49 45 44 42 42 46 47 43 40 44
39 36 37 40 41 42 43 45 47 55 56 55 56 55 55 53 51 50 49 50 50 53 53 52 52 52 52 53 53 54 55 55 52 51 49 49 48 46 44 42 42 42 42 41

GFSCGP_sfc_dewp_126.txt.gz
Dewpoint
25 25 25 27 30 32 50 52 52 53 55 54 54 56 58 60 60 59 57 53 57 59 61 63 64 65 65 66 65 66 67 67 68 68 68 67 67 69 70 70 71 70 71 70
23 24 27 28 27 45 50 52 52 55 56 55 54 54 58 59 59 60 60 56 54 59 60 62 63 65 65 65 65 66 67 67 68 68 68 68 68 69 72 72 71 72 71 71
22 25 27 25 29 47 50 50 52 50 55 56 55 51 55 58 59 60 60 59 58 59 59 61 63 64 64 64 65 66 67 67 69 69 69 69 69 70 70 71 71 72 71 72
23 26 26 26 26 46 43 50 51 52 52 48 54 45 52 55 57 59 59 59 58 59 59 61 62 63 63 64 66 66 67 67 69 70 69 68 67 67 69 69 70 71 72 72
18 18 24 24 25 38 41 52 52 51 50 51 51 47 48 54 54 56 58 59 59 57 59 61 62 63 64 64 65 66 67 68 69 69 69 68 67 68 69 70 70 71 72 72
18 20 19 20 38 43 53 52 51 50 49 43 47 47 47 51 52 55 56 58 59 59 60 62 62 63 63 65 65 67 67 68 69 68 68 68 67 67 69 69 69 70 70 72
21 20 48 52 51 52 49 44 39 37 40 39 47 47 47 50 52 55 55 57 59 59 60 61 61 62 63 64 65 67 67 67 68 68 68 68 68 68 68 69 70 70 70 71
18 14 50 51 50 49 47 40 37 32 38 40 49 45 47 50 52 54 55 57 60 59 59 60 60 63 64 64 65 66 67 67 68 68 68 68 68 68 69 70 70 70 70 70
19 22 41 49 49 48 46 41 44 41 45 41 44 47 49 51 52 54 54 57 59 59 60 60 60 63 64 64 66 66 67 67 68 68 69 69 69 68 69 70 71 71 71 71
23 23 27 42 46 47 44 45 40 41 37 36 40 44 45 47 50 52 53 55 57 59 60 61 60 62 64 64 65 67 68 67 68 68 68 69 68 68 69 70 70 70 71 71
26 24 25 29 33 41 32 38 34 37 40 35 35 36 52 52 51 51 52 53 56 59 59 60 60 62 64 65 66 66 67 68 68 68 68 69 69 69 68 69 71 71 70 71
28 26 27 25 27 30 26 25 29 29 21 38 37 34 52 56 54 54 55 56 57 59 60 61 61 63 65 65 66 67 68 67 68 68 69 69 69 69 69 70 71 71 70 71
26 27 28 32 34 31 36 41 25 23 26 30 23 24 51 54 58 55 54 57 59 61 62 63 63 64 65 65 66 67 68 68 68 69 69 70 69 69 69 70 71 71 70 71
37 28 25 26 32 32 39 42 42 34 31 32 35 44 49 51 55 59 60 57 58 61 63 63 63 63 65 66 66 67 68 69 69 69 69 70 69 69 70 70 70 71 71 70
29 31 33 36 40 41 42 43 45 43 42 38 45 46 48 51 55 58 59 62 56 59 60 61 62 62 64 65 67 68 68 69 69 69 69 69 70 70 70 70 70 71 71 71
29 31 32 35 40 41 41 43 46 48 49 50 49 48 54 57 57 58 60 61 61 58 60 62 61 64 64 64 66 67 69 69 70 69 69 69 70 70 70 70 70 70 70 71
31 29 29 31 35 33 31 40 45 47 50 49 45 50 55 56 56 57 58 60 62 63 63 64 64 65 65 65 66 67 68 69 69 69 68 69 69 69 69 69 69 69 69 69
32 32 30 27 27 25 33 42 46 48 50 52 54 54 56 56 58 58 59 59 59 60 62 62 63 65 66 68 68 68 68 68 67 68 68 68 68 67 68 68 68 68 69 68
32 32 32 29 30 32 39 40 41 41 43 51 51 52 52 55 57 56 58 58 58 58 58 59 60 61 65 68 68 68 68 67 67 67 67 67 67 67 67 66 65 65 64 61
33 34 30 34 29 28 34 43 45 43 37 48 52 50 50 52 45 51 56 55 56 57 58 57 58 60 62 64 67 67 67 67 66 66 67 67 67 66 65 63 61 58 57 55
28 35 31 34 31 35 40 44 45 33 35 46 51 53 52 50 52 56 55 55 56 56 56 57 58 58 59 63 65 65 65 65 66 67 67 67 66 64 63 61 59 57 56 55
26 32 32 33 31 27 44 45 38 41 46 49 55 56 55 56 55 54 54 54 55 55 55 56 56 57 59 61 63 61 62 64 65 66 66 66 65 64 62 60 58 57 56 53
29 33 33 34 35 39 44 44 45 47 50 53 55 56 56 56 55 54 54 54 54 55 55 56 56 56 58 59 61 60 61 61 61 60 61 59 60 63 62 59 57 55 53 47
37 39 37 33 35 42 45 47 47 48 51 54 57 56 56 54 55 53 52 52 54 55 54 55 55 55 55 57 58 58 58 59 57 55 55 55 55 55 55 54 57 55 53 49
38 37 38 36 41 44 46 47 46 51 54 54 55 56 55 54 53 52 51 51 52 53 54 54 54 54 54 55 56 56 56 56 54 53 51 52 53 53 51 46 48 49 44 45
39 37 38 37 40 42 44 48 48 53 54 55 56 55 55 53 52 51 50 51 51 52 53 53 53 52 53 54 54 55 55 53 52 50 49 49 49 47 49 47 44 43 43 42

GFSCGP_sfc_dewp_129.txt.gz
Dewpoint
24 32 33 33 45 33 45 47 50 52 54 54 54 56 58 60 61 61 59 59 59 59 61 63 64 64 65 67 68 69 70 72 70 69 68 68 66 68 68 70 72 72 73 72
27 32 31 29 30 46 47 49 49 53 55 54 53 53 57 59 59 58 59 58 58 58 60 63 64 64 65 67 68 69 70 72 71 70 70 70 69 70 70 71 73 72 72 73
27 30 27 27 27 44 48 47 48 46 54 55 54 52 54 58 59 60 60 59 57 57 59 62 63 64 65 66 68 69 71 71 71 71 70 71 72 74 73 75 71 72 73 72
26 26 27 26 27 35 34 49 49 52 49 46 52 47 52 56 57 58 59 59 58 56 58 61 63 64 64 65 67 69 70 71 71 72 71 72 68 67 70 70 77 71 73 73
23 23 25 26 26 43 39 50 49 49 49 50 50 49 49 54 55 56 58 58 58 58 58 59 62 63 64 65 66 67 70 71 71 73 72 70 70 68 69 71 73 74 74 73
20 20 20 21 34 33 51 50 50 51 50 45 46 47 46 52 52 54 57 57 58 58 58 59 61 64 64 65 66 67 69 71 72 72 72 72 72 70 69 70 69 69 71 71
21 20 35 46 40 47 45 42 40 42 44 41 49 48 46 50 52 52 54 57 58 59 58 60 62 63 64 65 66 66 69 69 70 71 71 72 72 72 72 72 70 71 70 70
19 17 39 47 33 35 39 34 32 33 37 41 50 46 45 49 51 52 54 56 59 59 58 59 62 63 64 65 66 66 68 69 70 70 71 72 72 69 69 71 69 69 69 70
21 22 46 47 49 43 43 38 43 40 45 43 44 47 49 49 52 52 55 57 58 59 58 59 61 63 64 65 66 67 68 68 69 69 71 72 72 72 70 72 73 71 73 71
24 26 34 47 48 45 43 43 37 42 37 31 38 43 43 50 53 53 53 56 57 60 60 60 61 62 64 64 65 66 68 68 69 69 70 70 70 72 72 72 72 73 74 74
27 27 27 41 44 42 42 40 40 40 41 36 33 38 52 54 56 55 53 56 57 59 60 61 62 63 64 65 65 66 68 68 68 69 70 70 70 70 71 71 72 73 73 73
30 28 28 27 30 31 30 36 37 32 32 39 39 33 53 55 58 55 52 55 57 59 60 61 62 63 65 66 66 67 67 67 68 68 70 70 70 71 70 71 71 73 74 73
29 30 29 30 31 37 40 41 27 23 28 36 27 27 52 55 57 59 56 56 57 58 60 63 63 64 65 66 67 68 69 68 68 69 69 70 70 70 70 71 72 72 74 73
41 31 31 26 33 36 38 42 40 31 28 31 34 44 50 54 56 58 59 58 59 61 62 64 64 65 65 67 68 68 68 69 70 70 69 70 70 70 70 72 72 73 74 73
34 35 38 40 40 40 41 42 44 43 42 39 45 46 51 55 57 58 59 62 60 62 63 64 64 65 65 67 67 69 69 71 70 70 70 71 72 72 72 73 73 73 73 73
31 38 38 39 39 39 40 43 45 47 48 49 49 47 54 57 57 58 59 60 59 62 63 64 64 65 65 65 66 68 69 70 70 70 70 72 73 73 73 73 73 74 74 74
35 37 36 35 37 33 32 41 45 47 49 48 45 52 55 55 56 58 58 58 61 60 62 63 64 65 65 66 66 66 68 70 70 70 71 72 73 72 73 73 73 73 73 74
37 38 35 31 32 26 37 44 47 47 49 52 53 54 55 56 58 58 58 58 58 59 60 62 63 65 66 68 68 68 69 69 69 70 71 71 72 72 72 72 73 73 72 72
36 38 35 31 32 33 38 43 42 41 42 49 49 52 50 53 57 57 57 56 57 58 58 59 60 62 62 64 69 69 69 70 70 69 70 70 70 68 68 69 70 70 70 68
36 40 33 36 29 29 37 42 44 43 39 48 50 50 50 54 49 54 56 56 56 57 58 58 59 60 62 63 68 69 68 68 67 67 69 69 70 68 69 66 65 63 62 62
33 37 33 33 33 36 39 43 44 35 38 47 51 54 54 54 55 56 56 56 57 57 57 58 59 59 60 62 66 66 67 67 68 69 68 69 68 67 65 63 60 59 58 58
32 34 34 37 36 31 45 45 39 44 48 49 55 57 56 55 56 56 55 55 56 57 57 58 58 58 59 61 66 66 66 66 67 68 68 68 65 64 62 60 58 58 58 56
33 35 34 37 36 43 48 47 46 49 54 54 57 57 56 56 55 55 55 55 56 57 57 57 58 58 58 59 61 63 62 64 64 60 60 63 64 63 61 59 58 56 55 55
41 40 40 40 41 43 47 48 49 51 51 54 56 57 56 54 55 55 55 56 56 57 56 57 57 57 57 57 57 57 58 60 59 59 58 57 56 55 54 57 59 57 54 52
40 43 43 40 42 45 47 49 49 52 54 54 56 56 55 55 56 55 55 56 56 56 56 56 56 56 56 56 56 57 56 56 54 53 53 53 54 52 49 46 49 51 49 52
41 43 38 35 47 48 47 50 50 54 53 54 54 55 56 55 55 55 56 55 54 54 56 56 56 55 55 55 55 56 56 56 54 52 50 51 51 51 50 49 47 44 45 44